[[{"header":{"parameterUnit":"m.s-1","parameterCategory":1,"la1":30.6,"la2":29.2853,"lo1":-89.7004,"lo2":-87.6739,"dy":0.0162,"dx":0.0183,"nx":112,"ny":82,"refTime":"2024-05-20T00:00:00:Z","depth":0,"parameterNumber":2,"parameterNumberName":"U-component_of_WINDS"},"data":[0.0,0.0,0.0,0.0,0.0,0.0,0.0,0.0,0.0,0.0,0.0,0.0,0.0,0.0,0.0,0.0,0.0,0.0,0.0,0.0,0.0,0.0,0.0,0.0,0.0,0.0,0.0,0.0,0.0,0.0,0.0,0.0,0.0,0.0,0.0,0.0,0.0,0.0,0.0,0.0,0.0,0.0,0.0,0.0,0.0,0.0,0.0,0.0,0.0,0.0,0.0,0.0,0.0,0.0,0.0,0.0,0.0,0.0,0.0,0.0,0.0,0.0,0.0,0.0,0.0,0.0,0.0,0.0,0.0,0.0,0.0,0.0,0.0,0.0,0.0,0.0,0.0,0.0,0.0,0.0,0.0,0.0,0.0,0.0,0.0,0.0,0.0,0.0,0.0,0.0,-5.2202,-5.3453,-5.4489,-5.4938,-5.4516,-5.322,-5.1231,-4.8473,0.0,0.0,0.0,0.0,0.0,0.0,0.0,0.0,0.0,0.0,0.0,0.0,0.0,0.0,0.0,0.0,0.0,0.0,0.0,0.0,0.0,0.0,0.0,0.0,0.0,0.0,0.0,0.0,0.0,0.0,0.0,0.0,0.0,0.0,0.0,0.0,0.0,0.0,0.0,0.0,0.0,0.0,0.0,0.0,0.0,0.0,0.0,0.0,0.0,0.0,0.0,0.0,0.0,0.0,0.0,0.0,0.0,0.0,0.0,0.0,0.0,0.0,0.0,0.0,0.0,0.0,0.0,0.0,0.0,0.0,0.0,0.0,0.0,0.0,0.0,0.0,0.0,0.0,0.0,0.0,0.0,0.0,0.0,0.0,0.0,0.0,0.0,0.0,0.0,0.0,0.0,0.0,0.0,0.0,0.0,0.0,0.0,0.0,0.0,0.0,0.0,0.0,0.0,0.0,-5.201,-5.4991,-5.5197,-5.4938,-5.4516,-5.2715,-5.0637,-4.8454,0.0,0.0,0.0,0.0,0.0,0.0,0.0,0.0,0.0,0.0,0.0,0.0,0.0,0.0,0.0,0.0,0.0,0.0,0.0,0.0,0.0,0.0,0.0,0.0,0.0,0.0,0.0,0.0,0.0,0.0,0.0,0.0,0.0,0.0,0.0,0.0,0.0,0.0,0.0,0.0,0.0,0.0,0.0,0.0,0.0,0.0,0.0,0.0,0.0,0.0,0.0,0.0,0.0,0.0,0.0,0.0,0.0,0.0,0.0,0.0,0.0,0.0,0.0,0.0,0.0,0.0,0.0,0.0,0.0,0.0,0.0,0.0,0.0,0.0,0.0,0.0,0.0,0.0,0.0,0.0,0.0,0.0,0.0,0.0,0.0,0.0,0.0,0.0,0.0,0.0,0.0,0.0,0.0,0.0,0.0,0.0,0.0,0.0,0.0,0.0,0.0,0.0,0.0,-5.1395,-5.2472,-5.5395,-5.5128,-5.4686,-5.4519,-5.2396,-5.0285,-4.8435,-4.715,0.0,0.0,0.0,0.0,0.0,0.0,0.0,0.0,0.0,0.0,0.0,0.0,0.0,0.0,0.0,0.0,0.0,0.0,0.0,0.0,0.0,0.0,0.0,0.0,0.0,0.0,0.0,0.0,0.0,0.0,0.0,0.0,0.0,0.0,0.0,0.0,0.0,0.0,0.0,0.0,0.0,0.0,0.0,0.0,0.0,0.0,0.0,0.0,0.0,0.0,0.0,0.0,0.0,0.0,0.0,0.0,0.0,0.0,0.0,0.0,0.0,0.0,0.0,0.0,0.0,0.0,0.0,0.0,0.0,0.0,0.0,0.0,0.0,0.0,0.0,0.0,0.0,0.0,0.0,0.0,0.0,0.0,0.0,0.0,0.0,0.0,0.0,0.0,0.0,0.0,0.0,0.0,0.0,0.0,0.0,0.0,0.0,0.0,0.0,0.0,0.0,0.0,-5.2722,-5.3498,-5.5366,-5.4924,-5.4471,-5.4338,-5.1992,-4.9884,-4.8398,-4.6434,0.0,0.0,0.0,0.0,0.0,0.0,0.0,0.0,0.0,0.0,0.0,0.0,0.0,0.0,0.0,0.0,0.0,0.0,0.0,0.0,0.0,0.0,0.0,0.0,0.0,0.0,0.0,0.0,0.0,0.0,0.0,0.0,0.0,0.0,0.0,0.0,0.0,0.0,0.0,0.0,0.0,0.0,0.0,0.0,0.0,0.0,0.0,0.0,0.0,0.0,0.0,0.0,0.0,0.0,0.0,0.0,0.0,0.0,0.0,0.0,0.0,0.0,0.0,0.0,0.0,0.0,0.0,0.0,0.0,0.0,0.0,0.0,0.0,0.0,0.0,0.0,0.0,0.0,0.0,0.0,0.0,0.0,0.0,0.0,0.0,0.0,0.0,0.0,0.0,0.0,0.0,0.0,0.0,0.0,0.0,0.0,0.0,0.0,0.0,0.0,0.0,0.0,-5.353,-5.5354,-5.5167,-5.4764,-5.4322,-5.3906,-5.1284,-4.9279,-4.8361,-4.5388,0.0,0.0,0.0,0.0,0.0,0.0,0.0,0.0,0.0,0.0,0.0,0.0,0.0,0.0,0.0,0.0,0.0,0.0,0.0,0.0,0.0,0.0,0.0,0.0,0.0,0.0,0.0,0.0,0.0,0.0,0.0,0.0,0.0,0.0,0.0,0.0,0.0,0.0,0.0,0.0,0.0,0.0,0.0,0.0,0.0,0.0,0.0,0.0,0.0,0.0,0.0,0.0,0.0,0.0,0.0,0.0,0.0,0.0,0.0,0.0,0.0,0.0,0.0,0.0,0.0,0.0,0.0,0.0,0.0,0.0,0.0,0.0,0.0,0.0,0.0,0.0,0.0,0.0,0.0,0.0,0.0,0.0,0.0,0.0,0.0,0.0,0.0,0.0,0.0,0.0,0.0,0.0,0.0,0.0,0.0,0.0,0.0,0.0,0.0,0.0,0.0,0.0,-5.2241,-5.3872,-5.5316,-5.4396,-5.3607,-5.3445,-5.1083,-4.9003,-4.7626,0.0,0.0,0.0,0.0,0.0,0.0,0.0,0.0,0.0,0.0,0.0,0.0,0.0,0.0,0.0,0.0,0.0,0.0,0.0,0.0,0.0,0.0,0.0,0.0,0.0,0.0,0.0,0.0,0.0,0.0,0.0,0.0,0.0,0.0,0.0,0.0,0.0,0.0,0.0,0.0,0.0,0.0,0.0,0.0,0.0,0.0,0.0,0.0,0.0,0.0,0.0,0.0,0.0,0.0,0.0,0.0,0.0,0.0,0.0,0.0,0.0,0.0,0.0,0.0,0.0,0.0,0.0,0.0,0.0,0.0,0.0,0.0,0.0,0.0,0.0,0.0,0.0,0.0,0.0,0.0,0.0,0.0,0.0,0.0,0.0,0.0,0.0,0.0,0.0,0.0,0.0,0.0,0.0,0.0,0.0,0.0,0.0,0.0,0.0,0.0,0.0,0.0,-5.0029,-5.1471,-5.2931,-5.4534,-5.3574,-5.2755,-5.2594,-5.0268,-4.8214,-4.6801,0.0,0.0,0.0,0.0,0.0,0.0,0.0,0.0,0.0,0.0,0.0,0.0,0.0,0.0,0.0,0.0,0.0,0.0,0.0,0.0,0.0,0.0,0.0,0.0,0.0,0.0,0.0,0.0,0.0,0.0,0.0,0.0,0.0,0.0,0.0,0.0,0.0,0.0,0.0,0.0,0.0,0.0,0.0,0.0,0.0,0.0,0.0,0.0,0.0,0.0,0.0,0.0,0.0,0.0,0.0,0.0,0.0,0.0,0.0,0.0,0.0,0.0,0.0,0.0,0.0,0.0,0.0,0.0,0.0,0.0,0.0,0.0,0.0,0.0,0.0,0.0,0.0,0.0,0.0,0.0,0.0,0.0,0.0,0.0,0.0,0.0,0.0,0.0,0.0,0.0,0.0,0.0,0.0,0.0,0.0,0.0,0.0,0.0,0.0,0.0,0.0,0.0,-4.926,-5.1606,-5.3048,-5.2641,-5.2229,-5.1804,-5.1336,-4.8716,-4.6746,0.0,0.0,0.0,0.0,0.0,0.0,0.0,0.0,0.0,0.0,0.0,0.0,0.0,0.0,0.0,0.0,0.0,0.0,0.0,0.0,0.0,0.0,0.0,0.0,0.0,0.0,0.0,0.0,0.0,0.0,0.0,0.0,0.0,0.0,0.0,0.0,0.0,0.0,0.0,0.0,0.0,0.0,0.0,0.0,0.0,0.0,0.0,0.0,0.0,0.0,0.0,0.0,0.0,0.0,0.0,0.0,0.0,0.0,0.0,0.0,0.0,0.0,0.0,0.0,0.0,0.0,0.0,0.0,0.0,0.0,0.0,0.0,0.0,0.0,0.0,0.0,0.0,0.0,0.0,0.0,0.0,0.0,0.0,0.0,0.0,0.0,0.0,0.0,0.0,0.0,0.0,0.0,0.0,0.0,0.0,0.0,0.0,0.0,0.0,0.0,0.0,0.0,0.0,-4.8375,-5.0721,-5.2469,-5.296,-5.1901,-5.1096,-5.0958,-4.858,-4.6507,-4.5149,0.0,0.0,0.0,0.0,0.0,0.0,0.0,0.0,0.0,0.0,0.0,0.0,0.0,0.0,0.0,0.0,0.0,0.0,0.0,0.0,0.0,0.0,0.0,0.0,0.0,0.0,0.0,0.0,0.0,0.0,0.0,0.0,0.0,0.0,0.0,0.0,0.0,0.0,0.0,0.0,0.0,0.0,0.0,0.0,0.0,0.0,0.0,0.0,0.0,0.0,0.0,0.0,0.0,0.0,0.0,0.0,0.0,0.0,0.0,0.0,0.0,0.0,0.0,0.0,0.0,0.0,0.0,0.0,0.0,0.0,0.0,0.0,0.0,0.0,0.0,0.0,0.0,0.0,0.0,0.0,0.0,0.0,0.0,0.0,0.0,0.0,0.0,0.0,0.0,0.0,0.0,0.0,0.0,0.0,0.0,0.0,0.0,0.0,0.0,0.0,0.0,0.0,-4.7471,-4.9548,-5.1241,-5.2106,-5.1185,-5.0463,-5.0306,-4.8184,-4.6116,-4.4341,0.0,0.0,0.0,0.0,0.0,0.0,0.0,0.0,0.0,0.0,0.0,0.0,0.0,0.0,0.0,0.0,0.0,0.0,0.0,0.0,0.0,0.0,0.0,0.0,0.0,0.0,0.0,0.0,0.0,0.0,0.0,0.0,0.0,0.0,0.0,0.0,0.0,0.0,0.0,0.0,0.0,0.0,0.0,0.0,0.0,0.0,0.0,0.0,0.0,0.0,0.0,0.0,0.0,0.0,0.0,0.0,0.0,0.0,0.0,0.0,0.0,0.0,0.0,0.0,0.0,0.0,0.0,0.0,0.0,0.0,0.0,0.0,0.0,0.0,0.0,0.0,0.0,0.0,0.0,0.0,0.0,0.0,0.0,0.0,0.0,0.0,0.0,0.0,0.0,0.0,0.0,0.0,0.0,0.0,0.0,0.0,0.0,0.0,0.0,0.0,0.0,0.0,-4.6471,-4.8182,-4.9586,-5.0366,-5.0065,-4.9651,-4.9306,-4.7457,-4.5482,-4.3513,0.0,0.0,0.0,0.0,0.0,0.0,0.0,0.0,0.0,0.0,0.0,0.0,0.0,0.0,0.0,0.0,0.0,0.0,0.0,0.0,0.0,0.0,0.0,0.0,0.0,0.0,0.0,0.0,0.0,0.0,0.0,0.0,0.0,0.0,0.0,0.0,0.0,0.0,0.0,0.0,0.0,0.0,0.0,0.0,0.0,0.0,0.0,0.0,0.0,0.0,0.0,0.0,0.0,0.0,0.0,0.0,0.0,0.0,0.0,0.0,-4.8186,-4.7952,0.0,0.0,0.0,0.0,0.0,0.0,0.0,0.0,0.0,0.0,0.0,0.0,0.0,0.0,0.0,0.0,0.0,0.0,0.0,0.0,0.0,0.0,0.0,0.0,0.0,0.0,0.0,0.0,0.0,0.0,0.0,0.0,0.0,0.0,0.0,0.0,0.0,0.0,0.0,0.0,-4.4816,-4.6913,-4.8452,-4.8625,-4.8055,-4.7624,-4.7542,-4.6036,-4.4372,-4.267,-4.1644,0.0,0.0,0.0,0.0,0.0,0.0,0.0,0.0,0.0,0.0,0.0,0.0,0.0,0.0,0.0,0.0,0.0,0.0,0.0,0.0,0.0,0.0,0.0,0.0,0.0,0.0,0.0,0.0,0.0,0.0,0.0,0.0,0.0,0.0,0.0,0.0,0.0,0.0,0.0,0.0,0.0,0.0,0.0,0.0,0.0,0.0,0.0,0.0,0.0,0.0,0.0,0.0,0.0,0.0,0.0,0.0,0.0,0.0,0.0,-4.9947,-4.9356,0.0,0.0,0.0,0.0,0.0,0.0,0.0,0.0,0.0,0.0,0.0,0.0,0.0,0.0,0.0,0.0,0.0,0.0,0.0,0.0,0.0,0.0,0.0,0.0,0.0,0.0,0.0,0.0,0.0,0.0,0.0,0.0,0.0,0.0,0.0,0.0,0.0,0.0,0.0,0.0,-4.4239,-4.6182,-4.7682,-4.8067,-4.7761,-4.7395,-4.7022,-4.5904,-4.4387,-4.243,-4.1535,0.0,0.0,0.0,0.0,0.0,0.0,0.0,0.0,0.0,0.0,0.0,0.0,0.0,0.0,0.0,0.0,0.0,0.0,0.0,0.0,0.0,0.0,0.0,0.0,0.0,0.0,0.0,0.0,0.0,0.0,0.0,0.0,0.0,0.0,0.0,0.0,0.0,0.0,0.0,0.0,0.0,0.0,0.0,0.0,0.0,0.0,0.0,0.0,0.0,0.0,0.0,0.0,0.0,-5.2526,-5.3196,-5.3776,-5.2144,-5.2149,-5.3361,-5.1985,-5.1212,-5.0837,-4.9971,0.0,0.0,0.0,0.0,0.0,0.0,0.0,0.0,0.0,0.0,0.0,0.0,0.0,0.0,0.0,0.0,0.0,0.0,0.0,0.0,0.0,0.0,-4.4355,-4.3682,-4.4586,-4.5229,-4.3835,0.0,0.0,0.0,0.0,0.0,0.0,0.0,0.0,0.0,0.0,0.0,-4.4008,-4.5605,-4.6932,-4.7586,-4.7607,-4.732,-4.6713,-4.5811,-4.4383,-4.2304,-4.1364,-4.0215,0.0,0.0,0.0,0.0,0.0,0.0,0.0,0.0,0.0,0.0,0.0,0.0,0.0,0.0,0.0,0.0,0.0,0.0,0.0,0.0,0.0,0.0,0.0,0.0,0.0,0.0,0.0,0.0,0.0,0.0,0.0,0.0,-4.7168,-4.7402,0.0,0.0,0.0,0.0,0.0,0.0,0.0,0.0,0.0,0.0,0.0,0.0,0.0,-5.1719,-5.2363,-5.334,-5.3769,-5.3652,-5.3769,-5.3866,-5.3964,-5.3596,-5.3475,-5.3605,-5.4008,0.0,-5.1673,-5.0856,0.0,0.0,0.0,0.0,0.0,0.0,0.0,0.0,0.0,0.0,0.0,0.0,0.0,0.0,0.0,0.0,0.0,0.0,0.0,0.0,0.0,0.0,-4.5402,-4.5306,-4.5441,-4.5537,-4.5325,-4.4759,-4.4028,-4.3104,-4.3028,-4.2797,0.0,0.0,0.0,0.0,0.0,0.0,-4.3239,-4.472,-4.5806,-4.5922,-4.5668,-4.5461,-4.5365,-4.403,-4.2771,-4.1756,-4.0652,-3.9643,-3.8744,-3.8707,0.0,0.0,0.0,0.0,0.0,0.0,0.0,0.0,0.0,0.0,0.0,0.0,0.0,0.0,0.0,0.0,0.0,0.0,0.0,0.0,0.0,0.0,0.0,0.0,0.0,0.0,0.0,0.0,0.0,-4.6362,-4.7486,-4.7484,-4.7556,-4.7402,0.0,0.0,0.0,0.0,0.0,0.0,0.0,0.0,0.0,-5.1562,-5.1953,-5.2558,-5.3418,-5.4297,-5.4726,-5.4746,-5.5234,-5.5469,-5.5469,-5.5327,-5.5223,-5.5174,-5.532,-5.4655,-5.3354,-5.1963,-5.0875,-4.9952,0.0,0.0,0.0,0.0,-4.7259,-4.7586,-4.7702,-4.774,-4.7567,-4.6644,0.0,0.0,0.0,0.0,0.0,0.0,0.0,-4.4412,-4.4893,-4.5306,-4.5594,-4.5594,-4.597,-4.6201,-4.571,-4.5682,-4.5374,-4.4028,-4.4162,-4.3932,-4.2115,-4.222,0.0,0.0,0.0,-4.3778,-4.3778,-4.4844,-4.5594,-4.5594,-4.5476,-4.5121,-4.4429,-4.3744,-4.2725,-4.1241,-4.0514,-3.9756,-3.8956,-3.8773,-3.8707,0.0,0.0,0.0,0.0,0.0,0.0,0.0,0.0,0.0,0.0,0.0,0.0,0.0,0.0,0.0,0.0,0.0,0.0,0.0,0.0,0.0,0.0,0.0,0.0,0.0,0.0,0.0,0.0,-4.7012,-4.7691,-4.7721,-4.8012,-4.7889,0.0,0.0,0.0,0.0,0.0,0.0,-5.1113,-5.1172,-5.1738,-5.2988,-5.3242,-5.3672,-5.4336,-5.5195,-5.5625,-5.5644,-5.6289,-5.6601,-5.6601,-5.6508,-5.6426,-5.6383,-5.6136,-5.5518,-5.4568,-5.2907,-5.176,-5.0837,-4.9106,-4.8432,-4.8413,-4.8182,-4.824,-4.8529,-4.9183,-4.9394,-4.9183,-4.7952,-4.7105,-4.6163,-4.4047,0.0,0.0,0.0,0.0,-4.4778,-4.5441,-4.5594,-4.5594,-4.5594,-4.6105,-4.6394,-4.5748,-4.6105,-4.6182,-4.4874,-4.5171,-4.494,-4.2797,-4.2989,0.0,-4.2258,-4.3374,-4.4297,-4.4297,-4.5056,-4.5594,-4.5594,-4.5594,-4.5149,-4.4028,-4.366,-4.277,-4.1044,-4.0409,-3.9853,-3.9262,-3.8952,-3.8803,-3.8803,0.0,0.0,0.0,0.0,0.0,0.0,0.0,0.0,0.0,0.0,0.0,0.0,0.0,0.0,0.0,0.0,0.0,0.0,0.0,0.0,0.0,0.0,0.0,0.0,0.0,0.0,0.0,0.0,0.0,-4.8616,-4.9367,0.0,0.0,0.0,0.0,-5.1094,-5.125,-5.2012,-5.3711,-5.3808,-5.3848,-5.3926,-5.4746,-5.5195,-5.5234,-5.6094,-5.6523,-5.6543,-5.6582,-5.6601,-5.6601,-5.6582,-5.6515,-5.6408,-5.6383,-5.5745,-5.4626,-5.3562,-5.2615,-5.1673,-4.999,-4.9336,-4.9221,-4.8413,-4.8625,-4.9336,-4.9375,-4.9394,-4.9394,-4.9298,-4.7644,-4.5498,-4.4528,-4.4239,0.0,0.0,-4.4893,-4.5537,-4.5594,-4.5594,-4.5594,-4.5594,-4.5633,-4.5652,-4.5614,-4.5633,-4.5633,-4.5556,-4.5575,-4.5306,-4.4335,0.0,-4.397,-4.3162,-4.3758,-4.4297,-4.4297,-4.5056,-4.5594,-4.5594,-4.5594,-4.524,-4.4357,-4.3283,-4.2256,-4.133,-4.0238,-3.9614,-3.9576,-3.9269,-3.9085,-3.9085,-3.8032,0.0,0.0,0.0,0.0,0.0,0.0,0.0,0.0,0.0,0.0,0.0,0.0,0.0,0.0,0.0,0.0,0.0,0.0,0.0,0.0,0.0,0.0,0.0,0.0,0.0,0.0,0.0,0.0,-4.992,-5.049,0.0,-5.0403,-5.0973,-5.1582,-5.2187,-5.2754,-5.3594,-5.4765,-5.4844,-5.5098,-5.5664,-5.5976,-5.6133,-5.6133,-5.6445,-5.6601,-5.6601,-5.6601,-5.6601,-5.6601,-5.6601,-5.6562,-5.6496,-5.5843,-5.5287,-5.4705,-5.3131,-5.2269,-5.1788,-5.0664,-5.025,-5.0212,-4.9894,-4.9606,-4.9394,-4.9394,-4.9029,-4.849,-4.7971,-4.6797,-4.5537,-4.5229,-4.5152,-4.5152,-4.5152,-4.5364,-4.5594,-4.5594,-4.5594,-4.5594,-4.5594,-4.5594,-4.5594,-4.5594,-4.5594,-4.5594,-4.5594,-4.5594,-4.5325,-4.4451,-4.4759,-4.4863,-4.3989,-4.4586,-4.5152,-4.5152,-4.5421,-4.5594,-4.5594,-4.5594,-4.5037,-4.3643,-4.3152,-4.2321,-4.0882,-4.0244,-3.9922,-3.9922,-3.9389,-3.9112,-3.9112,-3.8046,-3.7254,0.0,0.0,0.0,0.0,0.0,0.0,0.0,0.0,0.0,0.0,0.0,0.0,0.0,0.0,0.0,0.0,0.0,0.0,0.0,0.0,0.0,0.0,0.0,0.0,0.0,-4.8431,-4.92,-5.0627,-5.1217,-5.1546,-5.1634,-5.2518,-5.3219,-5.3555,-5.4101,-5.4824,-5.5683,-5.5742,-5.5996,-5.6582,-5.6601,-5.6601,-5.6601,-5.6601,-5.6601,-5.6601,-5.6601,-5.6601,-5.6601,-5.6601,-5.6445,-5.6113,-5.5457,-5.4767,-5.3996,-5.2704,-5.1931,-5.1509,-5.0933,-5.0712,-5.0654,-5.0366,-4.9894,-4.9356,-4.9067,-4.8413,-4.7605,-4.7058,-4.6317,-4.5594,-4.5594,-4.5594,-4.5594,-4.5594,-4.5594,-4.5594,-4.5594,-4.5594,-4.5594,-4.5594,-4.5594,-4.5594,-4.5594,-4.5594,-4.5594,-4.5594,-4.5594,-4.5421,-4.4836,-4.5229,-4.5402,-4.4816,-4.5229,-4.5594,-4.5594,-4.5594,-4.5594,-4.5594,-4.5594,-4.4921,-4.3239,-4.3104,-4.2354,-4.0612,-4.0339,-4.0232,-4.0232,-3.9724,-3.9426,-3.9426,-3.8361,-3.7543,-3.7005,0.0,0.0,0.0,0.0,0.0,0.0,0.0,0.0,0.0,0.0,0.0,0.0,0.0,0.0,0.0,0.0,0.0,0.0,0.0,0.0,0.0,0.0,0.0,-4.8029,-4.8894,-4.9805,-5.0751,-5.1648,-5.2298,-5.2575,-5.3376,-5.4285,-5.5253,-5.5332,-5.5703,-5.6543,-5.6601,-5.6601,-5.6601,-5.6601,-5.6601,-5.6601,-5.6601,-5.6601,-5.6601,-5.6601,-5.6601,-5.6601,-5.6601,-5.6133,-5.5332,-5.5273,-5.4232,-5.2528,-5.234,-5.1719,-5.0901,-5.0748,-5.0712,-5.0596,-4.9721,-4.9375,-4.9202,-4.8317,-4.7509,-4.6846,-4.6846,-4.6297,-4.5594,-4.5594,-4.5594,-4.5594,-4.5594,-4.5594,-4.5594,-4.5594,-4.5594,-4.5594,-4.5594,-4.5594,-4.5594,-4.5594,-4.5594,-4.5594,-4.5594,-4.5594,-4.5594,-4.5594,-4.5594,-4.5594,-4.5594,-4.5594,0.0,-4.5594,-4.5594,-4.5594,-4.5594,-4.5594,-4.494,-4.3278,-4.3104,-4.2374,-4.065,-4.0516,-4.0496,-4.0496,-4.0232,-4.0091,-4.0091,-3.8991,-3.8395,-3.8395,0.0,0.0,0.0,0.0,0.0,0.0,0.0,0.0,0.0,0.0,0.0,0.0,0.0,0.0,0.0,0.0,0.0,0.0,0.0,0.0,0.0,-4.7182,-4.8798,-4.9009,-4.9779,-5.0885,-5.2367,-5.3406,-5.4246,-5.4893,-5.5392,-5.5792,-5.6083,-5.6187,-5.6348,-5.6582,-5.6601,-5.6601,-5.6601,-5.6601,-5.6601,-5.6601,-5.6601,-5.6601,-5.6601,-5.6601,-5.6601,-5.6601,-5.6601,-5.6465,-5.6172,-5.4902,-5.4017,-5.3333,-5.2041,-5.1327,-5.1027,-5.0791,-5.0712,-5.0596,-4.9721,-4.8625,-4.7471,-4.6586,-4.6144,-4.5951,-4.5951,-4.5806,-4.5594,-4.5594,-4.5594,-4.5594,-4.5594,-4.5594,-4.5594,-4.5594,-4.5594,-4.5594,-4.5594,-4.5594,-4.5594,-4.5594,-4.5594,-4.5594,-4.5594,-4.5594,-4.5594,-4.5594,-4.5594,-4.5594,-4.5594,-4.5594,-4.5594,-4.5594,-4.5594,-4.5594,-4.5594,-4.5594,-4.5171,-4.4066,-4.3431,-4.2624,-4.1508,-4.0854,-4.0496,-4.0496,-4.0232,-3.9992,-3.9742,-3.8863,-3.8395,0.0,0.0,0.0,0.0,0.0,0.0,0.0,0.0,0.0,0.0,0.0,0.0,0.0,0.0,0.0,0.0,0.0,0.0,0.0,0.0,0.0,0.0,-4.8202,-4.9529,-4.9894,-5.0664,-5.1702,-5.3049,-5.4034,-5.4953,-5.5811,-5.6083,-5.6245,-5.6386,-5.6462,-5.6538,-5.6601,-5.6601,-5.6601,-5.6601,-5.6601,-5.6601,-5.6601,-5.6601,-5.6601,-5.6601,-5.6601,-5.6601,-5.6601,-5.6601,-5.6191,-5.5449,-5.4433,-5.3533,-5.2718,-5.1642,-5.1177,-5.1124,0.0,0.0,0.0,0.0,-4.7798,-4.6278,-4.5787,-4.5594,-4.5594,-4.5594,-4.5594,-4.5594,-4.5594,-4.5594,-4.5594,-4.5594,-4.5594,-4.5594,-4.5594,-4.5594,-4.5594,-4.5594,-4.5594,-4.5594,-4.5594,-4.5594,-4.5594,-4.5594,-4.5594,0.0,-4.5594,-4.5594,-4.5594,-4.5594,-4.5594,-4.5594,-4.5594,-4.5594,-4.546,-4.5094,-4.5383,-4.496,-4.3393,-4.3162,0.0,0.0,0.0,-4.0496,-4.0496,-4.0356,0.0,0.0,0.0,0.0,0.0,-3.928,0.0,0.0,-3.9242,-3.9392,0.0,0.0,0.0,0.0,0.0,0.0,0.0,0.0,0.0,0.0,0.0,0.0,0.0,0.0,0.0,0.0,-4.9048,-4.9952,-5.0721,-5.1625,-5.2442,-5.3126,-5.4049,-5.4949,-5.5808,-5.5888,-5.6032,-5.6345,-5.6386,-5.6456,-5.6582,-5.6601,0.0,0.0,0.0,-5.6601,-5.6601,-5.6601,-5.6601,-5.6601,-5.6601,-5.6601,-5.6601,-5.6504,-5.5605,-5.4141,-5.3945,-5.2988,-5.1523,-5.1309,-5.1208,-5.1171,-5.0891,-5.0717,-5.0383,-4.8626,-4.6978,-4.5594,-4.5594,0.0,0.0,-4.5594,-4.5594,-4.5594,-4.5594,-4.5594,-4.5594,-4.5594,-4.5594,-4.5594,-4.5594,-4.5594,-4.5575,-4.5479,-4.546,-4.5441,-4.5344,-4.5325,-4.5325,-4.5325,-4.5325,-4.5325,-4.5325,-4.5479,-4.5594,-4.5594,-4.5518,-4.546,-4.546,-4.5364,-4.5017,-4.4239,-4.4863,0.0,-4.2143,-4.2566,-4.2297,-4.0746,-4.0554,-4.0496,-4.0496,-4.0496,-4.0496,-4.0496,-4.0496,-4.0496,-4.0496,-4.0496,-4.0496,-4.0489,-3.9945,-3.9701,0.0,0.0,0.0,0.0,0.0,0.0,0.0,0.0,0.0,0.0,0.0,0.0,0.0,0.0,0.0,-4.8971,-5.0433,-5.1481,-5.1635,-5.301,-5.3799,-5.326,-5.4549,-5.5532,-5.5719,-5.5833,-5.5984,-5.6217,-5.6331,-5.6456,-5.6582,-5.6601,-5.6601,-5.6601,-5.6601,-5.6601,-5.6601,-5.6601,-5.6601,-5.6601,-5.6601,0.0,-5.6582,-5.5879,-5.5371,-5.4961,-5.3555,-5.2754,-5.2383,-5.1659,-5.1296,-5.1115,-5.031,-4.9516,-4.8662,-4.7606,-4.6526,-4.5594,-4.5594,-4.5594,-4.5594,-4.5594,-4.5594,-4.5594,-4.5594,-4.5594,0.0,-4.5594,-4.5594,-4.5594,-4.5594,-4.5594,-4.5421,-4.472,-4.4547,-4.4374,-4.372,-4.3585,-4.3585,-4.3585,-4.3585,-4.3585,-4.3585,-4.4701,-4.5594,-4.5594,-4.4998,-4.4547,-4.4547,-4.397,-4.3528,-4.3355,-4.347,-4.3374,-4.2893,-4.2354,-4.1912,-4.1566,-4.0893,-4.0496,-4.0496,-4.0496,-4.0496,-4.0496,-4.0496,-4.0496,-4.0496,-4.0496,-4.0496,-4.0496,-4.037,-4.0328,0.0,0.0,0.0,0.0,0.0,0.0,0.0,0.0,0.0,0.0,0.0,-4.6124,-4.7845,0.0,-4.9817,-5.1087,-5.201,-5.2538,-5.2538,-5.3683,-5.4337,-5.3895,-5.4953,-5.5703,-5.5703,-5.575,-5.5919,-5.6175,-5.6251,-5.6383,-5.6582,-5.6601,-5.6601,-5.6601,-5.6601,-5.6601,-5.6601,-5.6601,-5.6601,-5.6601,-5.6601,-5.6601,-5.6562,-5.5703,-5.5058,-5.457,-5.3262,-5.2441,-5.2012,-5.1582,-5.1111,-5.0612,-4.9708,-4.8959,-4.8291,-4.7425,-4.6513,-4.57,-4.57,-4.5668,-4.5612,-4.568,-4.5648,-4.5612,-4.5688,-4.564,-4.5594,-4.5594,-4.5594,-4.5594,-4.5594,-4.5324,-4.4951,-4.4507,-4.4063,-4.3639,-4.3233,-4.3119,-4.3104,-4.3104,-4.3104,-4.3104,-4.3104,-4.3797,-4.4355,-4.4355,-4.397,-4.3701,-4.3701,-4.3355,-4.2931,-4.2508,-4.2835,-4.2758,-4.1873,-4.1393,-4.1143,-4.1143,-4.0746,-4.0496,-4.0496,-4.0496,-4.0496,-4.0496,-4.0496,-4.0496,-4.0496,-4.0496,-4.0496,-4.0496,-4.0496,-4.0496,0.0,0.0,0.0,0.0,0.0,0.0,0.0,-4.4335,-4.5047,-4.5922,-4.6913,-4.8279,-5.0327,-5.0981,-5.1625,-5.2991,-5.3337,-5.3453,-5.3453,-5.4184,-5.4722,-5.4722,-5.5299,-5.5703,-5.5703,-5.5703,-5.5835,-5.6169,-5.6191,-5.632,-5.6582,-5.6601,-5.6601,-5.6601,-5.6601,-5.6601,-5.6601,-5.6601,-5.6601,-5.6601,-5.6601,-5.6504,-5.6328,-5.5449,-5.457,-5.3691,-5.2832,-5.2051,-5.1387,-5.123,-5.0781,-5.0098,-4.9043,-4.8516,-4.8218,-4.7319,-4.6499,-4.5828,-4.5828,-4.5756,-4.5673,-4.5783,-4.5756,-4.5673,-4.579,-4.5729,-4.5661,-4.5661,-4.5661,-4.5661,-4.5661,-4.5213,-4.4691,-4.4356,-4.3737,-4.3105,-4.2799,-4.2677,-4.2622,-4.2622,-4.2622,-4.2633,-4.2593,-4.2585,-4.2701,-4.3047,-4.297,-4.2854,-4.2854,-4.2701,-4.2335,-4.1623,-4.2181,-4.2027,-4.0612,-4.0496,-4.0496,-4.0496,-4.0496,-4.0496,-4.0496,-4.0496,-4.0496,-4.0496,-4.0496,-4.0496,-4.0496,-4.0496,-4.0496,-4.0496,-4.0496,-4.0496,-4.0161,-3.994,-4.0113,-4.2026,-4.2574,-4.3321,0.0,-4.6538,-4.6836,-4.7644,-4.9125,-5.0366,-5.0654,-5.1914,-5.2991,-5.3164,-5.3857,-5.4357,-5.4357,-5.5049,-5.5568,-5.5568,-5.5645,-5.5703,-5.5703,-5.5703,-5.5835,-5.6169,-5.6191,-5.632,-5.6582,-5.6601,-5.6601,-5.6601,-5.6601,-5.6601,-5.6601,-5.6601,-5.6601,-5.6601,-5.6601,-5.6191,-5.543,-5.4531,-5.3672,-5.2793,-5.1914,-5.1484,-5.1348,-5.0625,-5.0273,-5.0039,-4.8398,-4.7734,-4.7574,-4.6585,-4.6089,-4.59,-4.59,-4.5872,-4.5862,-4.5876,-4.5872,-4.5862,-4.5876,-4.5872,-4.5877,-4.5877,-4.5877,-4.5877,-4.5877,-4.5808,-4.5371,-4.3873,-4.3363,-4.2817,-4.1377,-4.1027,-4.0958,-4.0958,-4.0958,-4.0933,-4.0816,-4.0785,-4.1324,-4.2874,-4.245,-4.1942,-4.1942,-4.1277,-4.0746,-4.0669,-4.0727,-4.0708,-4.0516,-4.0496,-4.0496,-4.0496,-4.0496,-4.0496,-4.0496,-4.0496,-4.0496,-4.0496,-4.0496,-4.0496,-4.0496,-4.0496,-4.0496,-4.0496,-4.0496,-4.0496,-3.9528,-4.0157,-4.1055,-4.2286,-4.3325,-4.4551,-4.6474,-4.725,-4.7836,-4.8682,-5.0202,-5.1548,-5.2068,-5.3145,-5.4107,-5.4587,-5.4953,-5.5203,-5.5203,-5.5491,-5.5703,-5.5703,-5.5703,-5.5703,-5.5703,-5.5703,-5.5789,-5.601,-5.6121,-5.6273,-5.6462,-5.656,-5.6601,-5.6601,-5.6601,-5.6601,-5.6601,-5.6601,-5.6601,-5.6601,-5.6601,-5.6133,-5.5273,-5.4394,-5.3242,-5.1914,-5.1562,-5.1406,-5.1348,-5.0527,-4.9902,-4.9316,-4.8086,-4.7285,-4.6797,-4.6363,-4.6122,-4.6027,-4.6027,-4.5971,-4.5912,-4.5988,-4.5951,-4.5912,-4.5992,-4.5971,-4.5899,-4.5899,-4.5899,-4.5899,-4.5899,-4.5223,-4.4384,-4.3682,-4.2701,-4.173,-4.1064,-4.0828,-4.0762,-4.0762,-4.0762,-4.0722,-4.063,-4.0616,-4.0833,-4.1493,-4.1277,-4.1046,-4.1046,-4.0727,-4.0496,-4.0496,-4.0496,-4.0496,-4.0496,-4.0496,-4.0496,-4.0496,-4.0496,-4.0496,-4.0496,-4.0496,-4.0496,-4.0496,-4.0496,-4.0496,-4.0496,-4.0496,-4.0496,-4.0496,-4.0496,-4.0496,-3.9389,-4.0337,-4.1536,-4.2683,-4.4031,-4.5411,-4.6627,-4.7721,-4.8644,-4.926,-5.0741,-5.2173,-5.3049,-5.3914,-5.4761,-5.5568,-5.5703,-5.5703,-5.5703,-5.5703,-5.5703,-5.5703,-5.5703,-5.5703,-5.5703,-5.5703,-5.5759,-5.588,-5.6084,-5.627,-5.6386,-5.6535,-5.6601,-5.6601,-5.6601,-5.6601,-5.6601,-5.6601,-5.6601,-5.6601,-5.6601,-5.6015,-5.4902,-5.3789,-5.2598,-5.1406,-5.1406,-5.1406,-5.1328,-5.0273,-4.9473,-4.8789,-4.7676,-4.6855,-4.6308,-4.6308,-4.6246,-4.6168,-4.6168,-4.6087,-4.6033,-4.6119,-4.6084,-4.6033,-4.6138,-4.5928,-4.5651,-4.5651,-4.5651,-4.5592,-4.5358,-4.4634,-4.3863,-4.3374,-4.2293,-4.1293,-4.109,-4.0955,-4.0857,-4.0857,-4.0857,-4.0828,-4.0747,-4.0721,-4.069,-4.0561,-4.0552,-4.0537,-4.0504,-4.0496,-4.0496,-4.0496,-4.0496,-4.0496,-4.0496,-4.0496,-4.0496,-4.0496,-4.0496,-4.0496,-4.0496,-4.0496,-4.0496,-4.0496,-4.0496,-4.0496,-4.0496,-4.0496,-4.0496,-4.0496,-4.0496,-4.0496,-4.0277,-4.0407,-4.0988,-4.3284,-4.4491,-4.5413,-4.6627,-4.8182,-4.9375,-4.9394,-5.0741,-5.2173,-5.3049,-5.3914,-5.4761,-5.5568,-5.5703,-5.5703,-5.5703,-5.5703,-5.5703,-5.5703,-5.5703,-5.5703,-5.5703,-5.5703,-5.5759,-5.588,-5.6084,-5.627,-5.6386,-5.6535,-5.6601,-5.6601,-5.6601,-5.6601,-5.6601,-5.6601,-5.6601,-5.6601,-5.6601,-5.5703,-5.3984,-5.2266,-5.1445,-5.1406,-5.1406,-5.1406,-5.1269,-4.9629,-4.8926,-4.873,-4.7012,-4.6328,-4.6308,-4.6308,-4.6308,-4.6289,-4.6289,-4.6289,-4.6289,-4.6289,-4.6289,-4.6289,-4.6289,-4.5703,-4.5039,-4.5039,-4.5039,-4.4824,-4.3984,-4.4355,-4.4531,-4.2832,-4.2352,-4.2064,-4.1346,-4.1082,-4.0994,-4.0994,-4.0994,-4.0955,-4.0813,-4.0793,-4.0775,-4.0696,-4.0692,-4.0655,-4.0519,-4.0496,-4.0496,-4.0496,-4.0496,-4.0496,-4.0496,-4.0496,-4.0496,-4.0496,-4.0496,-4.0496,-4.0496,-4.0496,-4.0496,-4.0496,-4.0496,-4.0496,-4.0496,-4.0496,-4.0496,-4.0496,-4.0496,-4.0496,-4.0216,-4.0942,-4.1901,-4.3499,-4.4499,-4.5411,-4.6627,-4.7759,-4.8702,-4.9279,-5.0741,-5.1981,-5.2269,-5.353,-5.4587,-5.4857,-5.5338,-5.5703,-5.5703,-5.5703,-5.5703,-5.5703,-5.5703,-5.5703,-5.5703,-5.5703,-5.5726,-5.576,-5.6037,-5.6212,-5.6256,-5.6484,-5.6601,-5.6601,-5.6601,-5.6601,-5.6601,-5.6601,-5.6601,-5.6582,-5.543,-5.4258,-5.3105,-5.1933,-5.1406,-5.1406,-5.1406,-5.1406,-5.1269,-4.959,-4.8906,-4.873,-4.6973,-4.6308,-4.6308,-4.6308,-4.6308,-4.6308,-4.6308,-4.6308,-4.6308,-4.6308,-4.6308,-4.6308,-4.6308,-4.6094,-4.5742,-4.5156,-4.5,-4.4805,-4.3926,-4.3496,-4.3125,-4.2539,-4.1971,-4.1501,-4.125,-4.1151,-4.1129,-4.1129,-4.1129,-4.1082,-4.0957,-4.0925,-4.088,-4.0718,-4.063,-4.0552,-4.0504,-4.0496,-4.0496,-4.0496,-4.0496,-4.0496,-4.0496,-4.0496,-4.0496,-4.0496,-4.0496,-4.0496,-4.0496,-4.0496,-4.0496,-4.0496,-4.0496,-4.0496,-4.0496,-4.0496,-4.0496,-4.0496,-4.0496,-4.0496,-4.0428,-4.1484,-4.2557,-4.375,-4.4671,-4.5485,-4.6261,-4.7086,-4.7836,-4.8394,-4.9837,-5.1106,-5.1414,-5.2626,-5.378,-5.4395,-5.4934,-5.5376,-5.5665,-5.5703,-5.5703,-5.5703,-5.5703,-5.5703,-5.5703,-5.5703,-5.5703,-5.5703,-5.5932,-5.6115,-5.6191,-5.6416,-5.6559,-5.6601,-5.6601,-5.6601,-5.6601,-5.6601,-5.6445,-5.6113,-5.4687,-5.3535,-5.2676,-5.1797,-5.1406,-5.1406,-5.1406,-5.123,-5.0859,-4.9473,-4.8711,-4.8281,-4.6855,-4.6308,-4.6308,-4.6308,-4.6308,-4.6308,-4.6308,-4.6308,-4.6308,-4.6308,-4.6308,-4.6308,-4.6308,-4.6074,-4.5644,-4.4785,-4.4531,-4.4277,-4.3105,-4.2598,-4.2324,-4.2031,-4.1582,-4.1191,-4.1191,-4.1191,-4.1191,-4.1191,-4.1191,-4.1171,-4.1081,-4.0992,-4.0877,-4.0718,-4.0595,-4.0496,-4.0496,-4.0496,-4.0496,-4.0496,-4.0496,-4.0496,-4.0496,-4.0496,-4.0496,-4.0496,-4.0496,-4.0496,-4.0496,-4.0496,-4.0496,-4.0496,-4.0496,-4.0496,-4.0496,-4.0496,-4.0496,-4.0496,-4.0496,-4.0496,-4.0902,-4.1942,-4.29,-4.4014,-4.496,-4.5594,-4.5594,-4.6278,-4.6904,-4.6904,-4.824,-4.9644,-5.0481,-5.1356,-5.25,-5.4164,-5.4511,-5.4818,-5.5588,-5.5703,-5.5703,-5.5703,-5.5703,-5.5703,-5.5703,-5.5703,-5.5703,-5.5703,-5.5815,-5.5988,-5.6186,-5.6324,-5.6458,-5.6601,-5.6601,-5.6601,-5.6601,-5.6601,-5.6133,-5.5215,-5.4394,-5.3516,-5.2617,-5.1777,-5.1406,-5.1406,-5.1406,-5.0937,-5.0137,-4.9258,-4.8398,-4.7519,-4.6641,-4.6308,-4.6308,-4.6308,-4.6308,-4.6308,-4.6308,-4.6308,-4.6308,-4.6308,-4.6308,-4.6308,-4.6308,-4.5723,-4.4883,-4.3965,-4.3691,-4.3301,-4.1641,-4.1777,-4.2148,-4.1387,-4.1191,-4.1191,-4.1191,-4.1191,-4.1191,-4.1191,-4.1191,-4.1191,-4.1191,-4.0962,-4.0775,-4.0701,-4.0595,-4.0496,-4.0496,-4.0496,-4.0496,-4.0496,-4.0496,-4.0496,-4.0496,-4.0496,-4.0496,-4.0496,-4.0496,-4.0496,-4.0496,-4.0496,-4.0496,-4.0496,-4.0496,-4.0496,-4.0496,-4.0496,-4.0496,-4.0496,-4.0496,-4.0496,-4.0973,-4.2125,-4.319,-4.4077,-4.496,-4.5594,-4.5594,-4.6278,-4.6904,-4.6904,-4.824,-4.9471,-4.9683,-5.1452,-5.301,-5.3453,-5.4587,-5.5472,-5.5665,-5.5703,-5.5703,-5.5703,-5.5703,-5.5703,-5.5703,-5.5703,-5.5703,-5.5703,-5.5815,-5.5988,-5.6186,-5.6324,-5.6458,-5.6601,-5.6601,-5.6601,-5.6601,-5.6601,-5.584,-5.4336,-5.4101,-5.3203,-5.1719,-5.1504,-5.1406,-5.1406,-5.1406,-5.0937,-5.0137,-4.9258,-4.8398,-4.7519,-4.6641,-4.6308,-4.6308,-4.6308,-4.6308,-4.6308,-4.6308,-4.6308,-4.6308,-4.6308,-4.6308,-4.6308,-4.6308,-4.6133,-4.5644,-4.4121,-4.3691,-4.3301,-4.1641,-4.1348,-4.1445,-4.125,-4.1191,-4.1191,-4.1191,-4.1191,-4.1191,-4.1191,-4.1126,-4.1052,-4.1052,-4.0878,-4.0724,-4.0703,-4.0595,-4.0496,-4.0496,-4.0496,-4.0496,-4.0496,-4.0496,-4.0496,-4.0496,-4.0496,-4.0496,-4.0496,-4.0496,-4.0496,-4.0496,-4.0496,-4.0496,-4.0496,-4.0496,-4.0496,-4.0496,-4.0496,-4.0496,-4.0496,-4.0496,-4.0496,-4.0835,-4.1993,-4.3201,-4.3662,-4.4682,-4.5594,-4.5594,-4.597,-4.6336,-4.6336,-4.7663,-4.8836,-4.8836,-5.0914,-5.275,-5.3145,-5.4318,-5.5299,-5.5645,-5.5703,-5.5703,-5.5703,-5.5703,-5.5703,-5.5703,-5.5703,-5.5703,-5.5703,-5.5769,-5.5935,-5.6181,-5.626,-5.6391,-5.6582,-5.6601,-5.6601,-5.6601,-5.6211,-5.5351,-5.4004,-5.3613,-5.2715,-5.1406,-5.1406,-5.1406,-5.1406,-5.1406,-5.0723,-4.959,-4.9101,-4.8164,-4.6973,-4.6484,-4.6308,-4.6308,-4.6308,-4.6308,-4.6308,-4.6308,-4.6308,-4.6308,-4.6308,-4.6308,-4.623,-4.5859,-4.5723,-4.5371,-4.3613,-4.3125,-4.2832,-4.1543,-4.1191,-4.1191,-4.1191,-4.1191,-4.1191,-4.1191,-4.1191,-4.1191,-4.1191,-4.1149,-4.1052,-4.0925,-4.0828,-4.0715,-4.0636,-4.0545,-4.0496,-4.0496,-4.0496,-4.0496,-4.0496,-4.0496,-4.0496,-4.0496,-4.0496,-4.0496,-4.0496,-4.0496,-4.0496,-4.0496,-4.0496,-4.0496,-4.0496,-4.0496,-4.0496,-4.0496,-4.0496,-4.0496,-4.0496,-4.0496,-4.0496,-4.0932,-4.195,-4.3124,-4.3239,-4.4432,-4.5594,-4.5594,-4.5594,-4.5594,-4.5594,-4.6932,-4.8105,-4.8105,-5.0173,-5.2192,-5.3068,-5.3933,-5.478,-5.5588,-5.5703,-5.5703,-5.5703,-5.5703,-5.5703,-5.5703,-5.5703,-5.5703,-5.5703,-5.5703,-5.5844,-5.6175,-5.6191,-5.6324,-5.6582,-5.6484,-5.6426,-5.6426,-5.5566,-5.4687,-5.3828,-5.3066,-5.2246,-5.1406,-5.1406,-5.1406,-5.1387,-5.1289,-5.0351,-4.8887,-4.8789,-4.7773,-4.6308,-4.6308,-4.6308,-4.6308,-4.6308,-4.6308,-4.6308,-4.6308,-4.6308,-4.6308,-4.6308,-4.6308,-4.6152,-4.5391,-4.5098,-4.4668,-4.3027,-4.248,-4.2207,-4.1406,-4.1191,-4.1191,-4.1191,-4.1191,-4.1191,-4.1191,-4.1191,-4.1191,-4.1191,-4.1191,-4.1103,-4.0867,-4.0797,-4.0723,-4.0547,-4.0512,-4.0496,-4.0496,-4.0496,-4.0496,-4.0496,-4.0496,-4.0496,-4.0496,-4.0496,-4.0496,-4.0496,-4.0496,-4.0496,-4.0496,-4.0496,-4.0496,-4.0496,-4.0496,-4.0496,-4.0496,-4.0496,-4.0496,-4.0496,-4.0496,-4.0496,-4.2392,-4.2874,-4.3258,-4.3932,-4.4855,-4.5594,-4.5594,-4.5594,-4.5594,-4.5594,-4.6932,-4.8105,-4.8105,-5.0173,-5.2192,-5.3068,-5.3933,-5.478,-5.5588,-5.5703,-5.5703,-5.5703,-5.5703,-5.5703,-5.5703,-5.5703,-5.5703,-5.5703,-5.5703,-5.5844,-5.6175,-5.6191,-5.6324,-5.6582,-5.5898,-5.5527,-5.5527,-5.4668,-5.3789,-5.293,-5.2773,-5.2246,-5.1406,-5.1406,-5.1406,-5.1367,-5.0703,-4.9824,-4.8848,-4.8125,-4.7226,-4.6308,-4.6308,-4.6308,-4.6308,-4.6308,-4.6308,-4.6308,-4.6308,-4.6308,-4.6308,-4.6308,-4.6308,-4.6269,-4.6113,-4.5566,-4.4785,-4.3769,-4.2969,-4.2207,-4.1406,-4.1191,-4.1191,-4.1191,-4.1191,-4.1191,-4.1191,-4.1191,-4.1191,-4.1191,-4.1105,-4.1023,-4.0964,-4.0824,-4.0701,-4.0667,-4.0574,-4.0496,-4.0496,-4.0496,-4.0496,-4.0496,-4.0496,-4.0496,-4.0496,-4.0496,-4.0496,-4.0496,-4.0496,-4.0496,-4.0496,-4.0496,-4.0496,-4.0496,-4.0496,-4.0496,-4.0496,-4.0496,-4.0496,-4.0496,-4.0496,-4.0496,-4.306,-4.3412,-4.3816,-4.4201,-4.496,-4.5594,-4.5594,-4.5594,-4.5594,-4.5594,-4.6932,-4.8105,-4.8105,-5.0173,-5.2038,-5.2462,-5.326,-5.4126,-5.4953,-5.5068,-5.5222,-5.5645,-5.5703,-5.5703,-5.5703,-5.5703,-5.5703,-5.5703,-5.5299,-5.5364,-5.6012,-5.6152,-5.6129,-5.5937,-5.5443,-5.5012,-5.4629,-5.3769,-5.3105,-5.2695,-5.2246,-5.1797,-5.1406,-5.1406,-5.1406,-5.1367,-5.0547,-4.9707,-4.8828,-4.7969,-4.709,-4.6308,-4.6308,-4.6308,-4.6308,-4.6308,-4.6308,-4.6308,-4.6308,-4.5996,-4.5625,-4.5625,-4.5625,-4.5547,-4.5078,-4.4336,-4.3476,-4.2637,-4.2109,-4.1699,-4.1308,-4.1191,-4.1191,-4.1191,-4.1191,-4.1191,-4.1191,-4.1191,-4.1191,-4.1191,-4.115,-4.108,-4.1,-4.0922,-4.0822,-4.0721,-4.0655,-4.0588,-4.0512,-4.0496,-4.0496,-4.0496,-4.0496,-4.0496,-4.0496,-4.0496,-4.0496,-4.0496,-4.0496,-4.0496,-4.0496,-4.0496,-4.0496,-4.0496,-4.0496,-4.0496,-4.0496,-4.0496,-4.0496,-4.0496,-4.0496,-4.0496,-4.3758,-4.3951,-4.4335,-4.4528,-4.5094,-4.5594,-4.5594,-4.5594,-4.5594,-4.5594,-4.6932,-4.8105,-4.8105,-5.0048,-5.1692,-5.1865,-5.2635,-5.351,-5.4376,-5.4645,-5.4991,-5.5607,-5.5703,-5.5703,-5.5703,-5.5703,-5.5626,-5.5453,-5.4684,-5.4555,-5.5315,-5.5546,-5.5439,-5.4997,-5.4699,-5.4271,-5.373,-5.2851,-5.2422,-5.2402,-5.1738,-5.1406,-5.1406,-5.1406,-5.1308,-5.1094,-5.0273,-4.9433,-4.8555,-4.7676,-4.6914,-4.6308,-4.6308,-4.6308,-4.6308,-4.6308,-4.6308,-4.6308,-4.6308,-4.5723,-4.5,-4.5,-4.4863,-4.459,-4.3906,-4.3086,-4.2266,-4.1621,-4.1328,-4.1191,-4.1191,-4.1191,-4.1191,-4.1191,-4.1191,-4.1191,-4.1191,-4.1191,-4.1191,-4.1191,-4.1191,-4.1171,-4.1055,-4.1023,-4.0942,-4.0786,-4.0745,-4.0672,-4.0559,-4.0537,-4.0523,-4.0496,-4.0496,-4.0496,-4.0496,-4.0496,-4.0496,-4.0496,-4.0496,-4.0496,-4.0496,-4.0496,-4.0496,-4.0496,-4.0496,-4.0496,-4.0496,-4.0496,-4.0496,-4.0496,-4.0496,-4.0496,-4.519,-4.4863,-4.4489,-4.5287,-4.5537,-4.5594,-4.5594,-4.5594,-4.5594,-4.5594,-4.6932,-4.8105,-4.8105,-4.9586,-5.1048,-5.1769,-5.2635,-5.351,-5.4376,-5.5126,-5.5607,-5.5684,-5.5703,-5.5703,-5.5703,-5.5703,-5.5395,-5.4664,-5.3818,-5.3417,-5.3619,-5.3751,-5.3872,-5.3945,-5.316,-5.2752,-5.2812,-5.1953,-5.1523,-5.1523,-5.1445,-5.1406,-5.1406,-5.1406,-5.0996,-5.0254,-4.9394,-4.8516,-4.7656,-4.6777,-4.6367,-4.6308,-4.6308,-4.6308,-4.6308,-4.6308,-4.6308,-4.6308,-4.6308,-4.5723,-4.5,-4.5,-4.4453,-4.3808,-4.3711,-4.3086,-4.2383,-4.2305,-4.1758,-4.1191,-4.1191,-4.1191,-4.1191,-4.1191,-4.1191,-4.1191,-4.1191,-4.1191,-4.1191,-4.1191,-4.1191,-4.1191,-4.1172,-4.108,-4.0992,-4.0981,-4.086,-4.0761,-4.0697,-4.068,-4.0623,-4.0512,-4.0496,-4.0496,-4.0496,-4.0496,-4.0496,-4.0496,-4.0496,-4.0496,-4.0496,-4.0496,-4.0496,-4.0496,-4.0496,-4.0496,-4.0496,-4.0496,-4.0496,-4.0496,-4.0496,-4.0496,-4.5518,-4.5344,-4.5171,-4.5518,-4.5594,-4.5594,-4.5594,-4.5594,-4.5594,-4.5594,-4.6932,-4.8105,-4.8105,-4.951,-5.0808,-5.1125,-5.1471,-5.2164,-5.353,-5.3991,-5.4568,-5.5568,-5.5703,-5.5703,-5.5703,-5.5703,-5.5145,-5.3818,-5.3395,-5.2791,-5.1824,-5.2779,-5.3229,-5.2902,-5.2567,-5.2181,-5.1799,-5.1521,-5.1406,-5.1406,-5.1406,-5.1406,-5.1387,-5.0898,-5.0508,-5.0117,-4.8711,-4.793,-4.7539,-4.666,-4.6308,-4.6308,-4.6308,-4.6308,-4.6308,-4.6308,-4.6308,-4.6308,-4.6308,-4.5391,-4.4219,-4.4219,-4.3301,-4.2285,-4.2773,-4.2344,-4.168,-4.168,-4.1445,-4.1191,-4.1191,-4.1191,-4.1191,-4.1191,-4.1191,-4.1191,-4.1191,-4.1191,-4.1191,-4.1191,-4.1191,-4.1191,-4.1191,-4.115,-4.1083,-4.1,-4.0957,-4.089,-4.0766,-4.0715,-4.0674,-4.063,-4.0545,-4.0496,-4.0496,-4.0496,-4.0496,-4.0496,-4.0496,-4.0496,-4.0496,-4.0496,-4.0496,-4.0496,-4.0015,-4.0015,-4.0496,-4.0015,-4.0035,-4.0496,-4.0496,-4.0496,-4.5594,-4.5594,-4.5594,-4.5594,-4.5594,-4.5594,-4.5594,-4.5806,-4.597,-4.597,-4.7317,-4.849,-4.849,-4.9702,-5.0712,-5.0712,-5.1116,-5.1856,-5.3029,-5.3626,-5.4376,-5.5549,-5.5491,-5.5434,-5.5684,-5.5472,-5.4741,-5.3318,-5.2972,-5.2202,-5.0789,-5.1818,-5.2284,-5.1905,-5.1924,-5.1713,-5.1201,-5.1323,-5.1406,-5.1406,-5.1406,-5.1289,-5.1035,-5.0469,-4.9922,-4.9355,-4.8125,-4.7441,-4.7168,-4.6543,-4.6308,-4.6308,-4.6308,-4.6308,-4.6308,-4.6308,-4.6308,-4.6269,-4.5996,-4.4941,-4.3652,-4.3398,-4.2363,-4.1308,-4.1875,-4.1641,-4.1191,-4.1191,-4.1191,-4.1191,-4.1191,-4.1191,-4.1191,-4.1191,-4.1191,-4.1191,-4.1191,-4.1191,-4.1191,-4.1191,-4.1191,-4.1191,-4.1191,-4.1191,-4.1171,-4.1078,-4.1055,-4.1019,-4.0874,-4.082,-4.0772,-4.0731,-4.0654,-4.0563,-4.0504,-4.0496,-4.0496,-4.0496,-4.0496,-4.0496,-4.0496,-4.0496,-4.0496,-4.0496,-3.9938,-3.9938,-4.0496,-3.9938,-3.9958,-4.0496,-4.0496,-4.0496,-4.5594,-4.5594,-4.5594,-4.5594,-4.5594,-4.5594,-4.5594,-4.6278,-4.6885,-4.6885,-4.8221,-4.9394,-4.9394,-5.0106,-5.0712,-5.0712,-5.2087,-5.3183,-5.3203,-5.4626,-5.5684,-5.5703,-5.4991,-5.4818,-5.5607,-5.4972,-5.4145,-5.328,-5.2404,-5.1568,-5.075,-5.0731,-5.0785,-5.0908,-5.1039,-5.1133,-5.1201,-5.1323,-5.1406,-5.1406,-5.1406,-5.0976,-5.0215,-5.0195,-4.9258,-4.7637,-4.7617,-4.7109,-4.6308,-4.6308,-4.6308,-4.6308,-4.6308,-4.6308,-4.6308,-4.6308,-4.6308,-4.6172,-4.5312,-4.4433,-4.3555,-4.2695,-4.1855,-4.1191,-4.1211,-4.1211,-4.1191,-4.1191,-4.1191,-4.1191,-4.1191,-4.1191,-4.1191,-4.1191,-4.1191,-4.1191,-4.1191,-4.1191,-4.1191,-4.1191,-4.1191,-4.1191,-4.1191,-4.1191,-4.1191,-4.1191,-4.1191,-4.115,-4.1021,-4.0994,-4.0952,-4.0809,-4.0797,-4.0718,-4.0527,-4.0496,-4.0496,-4.0496,-4.0496,-4.0496,-4.0496,-4.0496,-4.0496,-4.0496,-4.0496,-4.0496,-4.0496,-4.0496,-4.0496,-4.0496,-4.0496,-4.0496,-4.5594,-4.5594,-4.5594,-4.5594,-4.5594,-4.5768,-4.6355,-4.6701,-4.7058,-4.7605,-4.8625,-4.9394,-4.9394,-5.0106,-5.0875,-5.1433,-5.1962,-5.2741,-5.3914,-5.4549,-5.4876,-5.4876,-5.4664,-5.4376,-5.403,-5.4299,-5.3895,-5.2423,-5.2058,-5.1548,-5.075,-5.0712,-5.0731,-5.0766,-5.0901,-5.1014,-5.1128,-5.1221,-5.1318,-5.1387,-5.084,-5.0449,-5.0156,-4.8965,-4.8125,-4.7578,-4.6973,-4.6543,-4.6308,-4.6308,-4.6308,-4.6308,-4.6308,-4.6308,-4.6308,-4.6308,-4.5918,-4.5371,-4.5098,-4.4043,-4.2773,-4.248,-4.1855,-4.1191,-4.1191,-4.1191,-4.1191,-4.1191,-4.1191,-4.1191,-4.1191,-4.1191,-4.1191,-4.1191,-4.1191,-4.1191,-4.1191,-4.1191,-4.1191,-4.1191,-4.1191,-4.1191,-4.1191,-4.1191,-4.1191,-4.1191,-4.1191,-4.1172,-4.1149,-4.1054,-4.0988,-4.095,-4.0857,-4.0773,-4.0713,-4.0703,-4.0703,-4.0703,-4.0703,-4.0679,-4.0649,-4.0643,-4.0643,-4.0643,-4.005,-4.0066,-4.0703,-3.9563,-3.9254,-3.9754,-4.0366,-4.0602,-4.5612,-4.5594,-4.5594,-4.5594,-4.5594,-4.5825,-4.6701,-4.7135,-4.7586,-4.8413,-4.9279,-4.9894,-4.9894,-5.0327,-5.0856,-5.1375,-5.1692,-5.2385,-5.3818,-5.428,-5.4376,-5.4049,-5.401,-5.3664,-5.2799,-5.351,-5.3414,-5.2,-5.1904,-5.1548,-5.075,-5.0712,-5.0712,-5.0712,-5.0819,-5.0945,-5.1008,-5.0832,-5.0791,-5.0852,-5.0077,-4.9531,-4.918,-4.8086,-4.7422,-4.707,-4.6543,-4.6308,0.0,-4.6308,-4.6308,-4.6308,-4.6308,-4.6308,-4.6269,-4.5937,-4.5469,-4.4902,-4.4258,-4.3301,-4.2344,-4.2051,-4.1601,-4.1191,-4.1191,-4.1191,-4.1191,-4.1191,-4.1191,-4.1191,-4.1191,-4.1191,-4.1191,-4.1191,-4.1191,-4.1191,-4.1191,-4.1191,-4.1191,-4.1191,-4.1191,-4.1191,-4.1191,-4.1191,-4.1191,-4.1191,-4.1191,-4.1191,-4.1191,-4.1127,-4.1078,-4.1078,-4.0996,-4.0955,-4.0955,-4.086,-4.0797,-4.0797,-4.0797,-4.0788,-4.0747,-4.0742,-4.0742,-4.0742,-4.0209,-4.0072,-4.0346,-3.9299,-3.9185,-3.9936,-4.0489,-4.0699,0.0,-4.5603,-4.5594,-4.5594,-4.5594,-4.5825,-4.6701,-4.749,0.0,-4.9125,-4.999,-5.0616,-5.0616,-5.0654,-5.0731,-5.0789,-5.1414,-5.2192,-5.3087,-5.3837,-5.401,-5.3203,-5.3106,-5.2779,-5.1904,-5.2606,-5.276,-5.1885,-5.1808,-5.1491,-5.075,-5.0712,-5.0673,-5.0616,-5.0726,-5.0797,-5.0811,-5.0259,-4.9942,-4.9894,-4.9153,-4.8379,-4.7598,-4.7539,-4.707,-4.6308,-4.6308,-4.6308,-4.6308,-4.6308,-4.6308,-4.6308,-4.6308,-4.6269,-4.6113,-4.5293,-4.4922,-4.457,-4.2969,-4.2363,-4.2187,-4.1445,-4.1191,-4.1191,-4.1191,-4.1191,-4.1191,-4.1191,-4.1191,-4.1191,-4.1191,-4.1191,-4.1191,-4.1191,-4.1191,-4.1191,-4.1191,-4.1191,-4.1191,-4.1191,-4.1191,-4.1191,-4.1191,-4.1191,-4.1191,-4.1191,-4.1191,-4.1191,-4.1191,-4.1191,-4.1191,-4.1191,-4.1191,-4.1191,-4.1191,-4.0964,-4.082,-4.082,-4.082,-4.0816,-4.0809,-4.0809,-4.0809,-4.0809,-4.0758,-4.033,-3.9528,-3.9528,-3.9914,-4.0634,-4.0692,-4.0747,-4.5783,0.0,-4.5594,-4.5594,-4.5594,-4.5825,0.0,-4.7038,-4.7413,-4.824,-4.9106,-4.9702,-4.9702,-5.025,-5.0894,-5.1529,-5.1769,-5.2192,-5.3087,-5.2799,-5.2442,-5.2231,-5.2212,-5.1875,-5.1048,-5.1722,-5.1875,-5.1029,-5.0971,-5.0894,-5.0712,-5.0712,-5.0385,-4.9721,-4.9739,-4.9804,-4.9901,-4.9757,-4.9459,-4.9001,-4.8154,-4.7704,-4.7578,-4.6914,-4.6484,-4.6308,-4.6308,-4.6308,-4.6308,-4.6308,-4.6308,-4.6308,-4.6308,-4.5898,-4.5273,-4.5078,-4.416,-4.2949,-4.2539,-4.1992,-4.1445,-4.1269,-4.1191,-4.1191,-4.1191,-4.1191,-4.1191,-4.1191,-4.1191,-4.1191,-4.1191,-4.1191,-4.1191,-4.1191,-4.1191,-4.1191,-4.1191,-4.1191,-4.1191,-4.1191,-4.1191,-4.1191,-4.1191,-4.1191,-4.1191,-4.1191,-4.1191,-4.1191,-4.1191,-4.1191,-4.1191,-4.1191,-4.1191,-4.1191,-4.1191,-4.1149,-4.1104,-4.1104,-4.1104,-4.1055,-4.0957,-4.0955,-4.0955,-4.0955,-4.0408,-3.9697,-3.8838,-3.8838,-3.8884,-3.898,-3.9646,-4.0259,-4.5855,-4.6018,-4.6201,-4.6201,-4.6201,-4.6413,-4.7259,-4.7173,-4.7135,-4.7932,-4.849,-4.8798,-4.8798,-4.951,-5.024,-5.0683,-5.1087,-5.1645,-5.2481,-5.2192,-5.1904,-5.1904,-5.1568,-5.1183,-5.075,-5.1087,-5.1164,-5.0731,-5.0712,-5.0539,-5.0125,-5.0087,-4.9702,-4.8836,-4.8798,-4.8843,-4.8913,-4.858,-4.8266,-4.7993,-4.7189,-4.6877,-4.6992,-4.6523,-4.6308,-4.6308,-4.6308,-4.6308,-4.6308,-4.6308,-4.6308,-4.6269,-4.5859,-4.543,-4.4902,-4.4101,-4.3203,-4.2344,-4.1973,-4.1562,-4.1191,-4.1191,-4.1191,-4.1191,-4.1191,-4.1191,-4.1191,-4.1191,-4.1191,-4.1191,-4.1191,-4.1191,-4.1191,-4.1191,-4.1191,-4.1191,-4.1191,-4.1191,-4.1191,-4.1191,-4.1191,-4.1191,-4.1191,-4.1191,-4.1191,-4.1191,-4.1191,-4.1191,-4.1191,-4.1191,-4.1191,-4.1191,-4.1191,-4.1191,-4.1191,-4.1191,-4.1191,-4.1191,-4.1191,-4.1171,-4.1083,-4.1082,-4.1082,-4.1082,-4.0311,-3.9863,-3.9785,-3.8984,-3.8768,-3.9109,-3.9577,-4.0018,-4.6078,-4.661,-4.7083,-4.6932,-4.6904,-4.7077,-4.7759,-4.7298,-4.6894,-4.7586,-4.7817,-4.7952,-4.8086,-4.8817,-4.9433,-4.9586,-5.0231,-5.0933,-5.1625,-5.1712,-5.1712,-5.1712,-5.1125,-5.0712,-5.0712,-5.0577,-5.05,-5.05,-5.0385,-4.9971,-4.924,-4.9202,-4.8817,-4.7952,-4.7932,-4.7855,-4.7721,-4.7225,-4.6997,-4.6975,-4.6369,-4.6144,-4.6268,-4.6289,-4.6308,-4.6308,-4.6308,-4.6308,-4.6308,-4.6308,-4.6308,-4.6211,-4.5332,-4.4922,-4.4609,-4.2988,-4.2324,-4.2129,-4.1445,-4.1191,-4.1191,-4.1191,-4.1191,-4.1191,-4.1191,-4.1191,-4.1191,-4.1191,-4.1191,-4.1191,-4.1191,-4.1191,-4.1191,-4.1191,-4.1191,-4.1191,-4.1191,-4.1191,-4.1191,-4.1191,-4.1191,-4.1191,-4.1191,-4.1191,-4.1191,-4.1191,-4.1191,-4.1191,-4.1191,-4.1191,-4.1191,-4.1191,-4.1191,-4.1191,-4.1191,-4.1191,-4.1191,-4.1191,-4.1191,-4.1191,-4.1191,-4.1191,-4.1191,-4.1191,-4.0332,-4.0254,-4.0996,-3.9394,-3.8984,-3.9707,-3.9707,-3.9766,-4.6835,-4.7519,-4.789,-4.7092,-4.6904,-4.6923,-4.7058,-4.6413,-4.5825,-4.596,-4.6567,-4.7298,-4.7971,-4.8817,-4.9644,-5.0385,-5.0616,-5.075,-5.0856,-5.0875,-5.0875,-5.0875,-5.0789,-5.0712,-5.0712,-5.0029,-4.9606,-4.9606,-4.8913,-4.8432,-4.8317,-4.8298,-4.7932,-4.7096,-4.7077,-4.674,-4.5998,-4.6602,-4.6611,-4.6015,-4.5969,-4.5995,-4.6122,-4.6247,-4.6308,-4.6308,-4.6308,-4.6308,-4.6308,-4.6308,-4.6308,-4.6211,-4.5332,-4.4551,-4.3789,-4.2773,-4.1973,-4.1367,-4.123,-4.1191,-4.1191,-4.1191,-4.1191,-4.1191,-4.1191,-4.1191,-4.1191,-4.1191,-4.1191,-4.1191,-4.1191,-4.1191,-4.1191,-4.1191,-4.1191,-4.1191,-4.1191,-4.1191,-4.1191,-4.1191,-4.1191,-4.1191,-4.1191,-4.1191,-4.1191,-4.1191,-4.1191,-4.1191,-4.1191,-4.1191,-4.1191,-4.1191,-4.1191,-4.1191,-4.1191,-4.1191,-4.1191,-4.1191,-4.1191,-4.1191,-4.1191,-4.1191,-4.1191,-4.1191,-4.0332,-3.9961,-4.0098,-3.9082,-3.8672,-3.8809,-3.8809,-3.9199,-4.6434,-4.7037,-4.7591,-4.7563,-4.7894,-4.8259,-4.8259,-4.724,-4.6297,-4.6297,-4.624,-4.6451,-4.7298,-4.8125,-4.9144,-5.0481,-5.0712,-5.0712,-5.0712,-5.0712,-5.0712,-5.0712,-5.0712,-5.0519,-5.0029,-4.9644,-4.9202,-4.874,-4.8336,-4.7913,-4.7471,-4.7451,-4.7067,-4.622,-4.6201,-4.6009,-4.5594,-4.599,-4.607,-4.5803,-4.5881,-4.5974,-4.6091,-4.6246,-4.6308,-4.6308,-4.6308,-4.6308,-4.6308,-4.6308,-4.6016,-4.5508,-4.4648,-4.3769,-4.2891,-4.2051,-4.1523,-4.1191,-4.1191,-4.1191,-4.1191,-4.1191,-4.1191,-4.1191,-4.1191,-4.1191,-4.1191,-4.1191,-4.1191,-4.1191,-4.1191,-4.1191,-4.1191,-4.1191,-4.1191,-4.1191,-4.1191,-4.1191,-4.1191,-4.1191,-4.1191,-4.1191,-4.1191,-4.1191,-4.1191,-4.1191,-4.1191,-4.1191,-4.1191,-4.1191,-4.1191,-4.1191,-4.1191,-4.1191,-4.1191,-4.1191,-4.1191,-4.1191,-4.1191,-4.1191,-4.1191,-4.1191,-4.1191,-4.1191,-4.0801,-4.0371,-3.9902,-3.9023,-3.8359,-3.7891,-3.7891,-3.8359,-4.6189,-4.6618,-4.7229,-4.7918,-4.8471,-4.8913,-4.9317,-4.8105,-4.6904,-4.6904,-4.6374,-4.6105,-4.6778,-4.7721,-4.8913,-5.0462,-5.0712,-5.0712,-5.0712,-5.0712,-5.0616,-5.0423,-5.0404,-5.0048,-4.9183,-4.8933,-4.8548,-4.7875,-4.7625,-4.7259,-4.6624,-4.6605,-4.6297,-4.5614,-4.5594,-4.5594,-4.5594,-4.5594,-4.564,-4.5761,-4.5847,-4.5927,-4.6024,-4.6175,-4.6248,-4.6248,-4.6289,-4.6308,-4.6289,-4.6074,-4.5605,-4.4883,-4.3828,-4.2871,-4.2031,-4.1426,-4.1191,-4.1191,-4.1191,-4.1191,-4.1191,-4.1191,-4.1191,-4.1191,-4.1191,-4.1191,-4.1191,-4.1191,-4.1191,-4.1191,-4.1191,-4.1191,-4.1191,-4.1191,-4.1191,-4.1191,-4.1191,-4.1191,-4.1191,-4.1191,-4.1191,-4.1191,-4.1191,-4.1191,-4.1191,-4.1191,-4.1191,-4.1191,-4.1191,-4.1191,-4.1191,-4.1191,-4.1191,-4.1191,-4.1191,-4.1191,-4.1191,-4.1191,-4.1191,-4.1191,-4.1191,-4.1191,-4.1191,-4.1191,-4.0996,-4.0566,-3.9902,-3.9023,-3.8144,-3.7305,-3.7305,-3.7656,-4.6964,-4.715,-4.7331,-4.7942,-4.7586,-4.749,-4.9048,-4.8105,-4.6904,-4.6904,-4.6846,-4.6836,-4.6885,-4.8221,-4.9606,-5.0558,-5.0712,-5.0712,-5.0712,-5.0712,-5.0404,-4.9586,-4.949,-4.9144,-4.8279,-4.7528,-4.7038,-4.6981,-4.624,-4.5748,-4.571,-4.5691,-4.5671,-4.5594,-4.5594,-4.5594,-4.5594,-4.5594,-4.5603,-4.562,-4.5754,-4.5803,-4.5828,-4.6014,-4.6115,-4.6117,-4.6247,-4.6308,-4.623,-4.543,-4.5058,-4.4824,-4.3144,-4.1992,-4.1289,-4.1211,-4.1191,-4.1191,-4.1191,-4.1191,-4.1191,-4.1191,-4.1191,-4.1191,-4.1191,-4.1191,-4.1191,-4.1191,-4.1191,-4.1191,-4.1191,-4.1191,-4.1191,-4.1191,-4.1191,-4.1191,-4.1191,-4.1191,-4.1191,-4.1191,-4.1191,-4.1191,-4.1191,-4.1191,-4.1191,-4.1191,-4.1191,-4.1191,-4.1191,-4.1191,-4.1191,-4.1191,-4.1191,-4.1191,-4.1191,-4.1191,-4.1191,-4.1191,-4.1191,-4.1191,-4.1191,-4.1191,-4.1191,-4.1191,-4.041,-3.9961,-3.9902,-3.9023,-3.8144,-3.7305,-3.7305,-3.7324,-4.6364,-4.6385,-4.6551,-4.7199,-4.6721,-4.6663,-4.8894,-4.8105,-4.7038,-4.7548,-4.6817,-4.6259,-4.6797,-4.7836,-4.8702,-4.9029,-4.9086,-4.9086,-4.9086,-4.9086,-4.8952,-4.8625,-4.8586,-4.8279,-4.7432,-4.7077,-4.6682,-4.6124,-4.5787,-4.5594,-4.5594,-4.5594,-4.5594,-4.5594,-4.5594,-4.5594,-4.5594,-4.5594,-4.5594,-4.5594,-4.5733,-4.5512,-4.5002,-4.5202,-4.5016,-4.4553,-4.4645,-4.4687,-4.4668,-4.4336,-4.3867,-4.3262,-4.2109,-4.1465,-4.1191,-4.1191,-4.1191,-4.1191,-4.1191,-4.1191,-4.1191,-4.1191,-4.1191,-4.1191,-4.1191,-4.1191,-4.1191,-4.1191,-4.1191,-4.1191,-4.1191,-4.1191,-4.1191,-4.1191,-4.1191,-4.1191,-4.1191,-4.1191,-4.1191,-4.1191,-4.1191,-4.1191,-4.1191,-4.1191,-4.1191,-4.1191,-4.1191,-4.1191,-4.1191,-4.1191,-4.1191,-4.1191,-4.1191,-4.1191,-4.1191,-4.1191,-4.1191,-4.1191,-4.1191,-4.1191,-4.1191,-4.0684,-4.0391,-4.0391,-3.9531,-3.8828,-3.8281,-3.7949,-3.7344,-3.6484,-3.6484,-3.6777,-4.6011,-4.5928,-4.6003,-4.643,-4.6061,-4.6133,-4.8144,-4.7721,-4.7058,-4.7605,-4.6586,-4.5883,-4.674,-4.7355,-4.7798,-4.8067,-4.8105,-4.8105,-4.8105,-4.8105,-4.8009,-4.7759,-4.7721,-4.7394,-4.6567,-4.649,-4.624,-4.5633,-4.5594,-4.5594,-4.5594,-4.5594,-4.5594,-4.5594,-4.5594,-4.5594,-4.5594,-4.5594,-4.5594,-4.5594,-4.5414,-4.5017,-4.4432,-4.4662,-4.432,-4.3531,-4.3646,-4.3691,-4.3672,-4.3398,-4.2793,-4.1973,-4.1426,-4.1191,-4.1191,-4.1191,-4.1191,-4.1191,-4.1191,-4.1191,-4.1191,-4.1191,-4.1191,-4.1191,-4.1191,-4.1191,-4.1191,-4.1191,-4.1191,-4.1191,-4.1191,-4.1191,-4.1191,-4.1191,-4.1191,-4.1191,-4.1191,-4.1191,-4.1191,-4.1191,-4.1191,-4.1191,-4.1191,-4.1191,-4.1191,-4.1191,-4.1191,-4.1191,-4.1191,-4.1191,-4.1191,-4.1191,-4.1191,-4.1191,-4.1191,-4.1191,-4.1191,-4.1191,-4.0937,-4.0781,-4.0781,-3.9941,-3.9492,-3.9492,-3.8633,-3.7891,-3.7305,-3.7012,-3.6582,-3.5996,-3.5996,-3.6328,-4.6144,-4.5998,-4.5891,-4.5828,-4.57,-4.5825,-4.6682,-4.6894,-4.6885,-4.6885,-4.6201,-4.5855,-4.674,-4.6885,-4.7154,-4.7952,-4.8086,-4.8086,-4.8086,-4.8086,-4.7778,-4.6981,-4.6885,-4.6547,-4.5691,-4.5594,-4.5594,-4.5594,-4.5594,-4.5594,-4.5594,-4.5594,-4.5594,-4.5594,-4.5594,-4.5594,-4.5594,-4.5594,-4.5594,-4.5594,-4.472,-4.4297,-4.4295,-4.4564,-4.4202,-4.3382,-4.3598,-4.3672,-4.3613,-4.2734,-4.1914,-4.1191,-4.1191,-4.1191,-4.1191,-4.1191,-4.1191,-4.1191,-4.1191,-4.1191,-4.1191,-4.1191,-4.1191,-4.1191,-4.1191,-4.1191,-4.1191,-4.1191,-4.1191,-4.1191,-4.1191,-4.1191,-4.1191,-4.1191,-4.1191,-4.1191,-4.1191,-4.1191,-4.1191,-4.1191,-4.1191,-4.1191,-4.1191,-4.1191,-4.1191,-4.1191,-4.1191,-4.1191,-4.1191,-4.1191,-4.1191,-4.1191,-4.1191,-4.1191,-4.1191,-4.1191,-4.1191,-4.1191,-4.0371,-3.9883,-3.9902,-3.9062,-3.8594,-3.8594,-3.7734,-3.7285,-3.7285,-3.6426,-3.5996,-3.5996,-3.5996,-3.5996,-4.63,-4.6075,-4.6001,-4.5896,-4.5789,-4.5817,-4.6061,-4.605,-4.599,-4.599,-4.5787,-4.5691,-4.5932,-4.599,-4.6047,-4.6297,-4.6336,-4.6336,-4.6336,-4.6336,-4.624,-4.6009,-4.599,-4.5874,-4.5633,-4.5594,-4.5594,-4.5594,-4.5594,-4.5594,-4.5594,-4.5594,-4.5594,-4.5594,-4.5594,-4.5594,-4.5594,-4.5594,-4.5594,-4.5594,-4.472,-4.3989,-4.344,-4.2996,-4.2349,-4.1583,-4.1731,-4.1848,-4.1914,-4.166,-4.1426,-4.1191,-4.1191,-4.1191,-4.1191,-4.1191,-4.1191,-4.1191,-4.1191,-4.1191,-4.1191,-4.1191,-4.1191,-4.1191,-4.1191,-4.1191,-4.1191,-4.1191,-4.1191,-4.1191,-4.1191,-4.1191,-4.1191,-4.1191,-4.1191,-4.1191,-4.1191,-4.1191,-4.1191,-4.1191,-4.1191,-4.1191,-4.1191,-4.1191,-4.1191,-4.1191,-4.1191,-4.1191,-4.1191,-4.1191,-4.1191,-4.1191,-4.1191,-4.1191,-4.1191,-4.1191,-4.1191,-4.1191,-3.9805,-3.9258,-3.9863,-3.8476,-3.7695,-3.7695,-3.6836,-3.6387,-3.6387,-3.6133,-3.5996,-3.5996,-3.5996,-3.5996,-4.6767,-4.6399,-4.608,-4.5995,-4.5881,-4.5783,-4.5725,-4.5648,-4.5594,-4.5594,-4.5594,-4.5594,-4.5594,-4.5594,-4.5594,-4.5594,-4.5594,-4.5594,-4.5594,-4.5594,-4.5594,-4.5594,-4.5594,-4.5594,-4.5594,-4.5594,-4.5594,-4.5594,-4.5594,-4.5594,-4.5594,-4.5594,-4.5594,-4.5594,-4.5594,-4.5594,-4.5594,-4.5267,-4.5075,-4.5075,-4.3874,-4.3047,-4.2574,-4.2182,-4.1557,-4.0776,-4.0936,-4.1078,-4.1191,-4.1191,-4.1191,-4.1191,-4.1191,-4.1191,-4.1191,-4.1191,-4.1191,-4.1191,-4.1191,-4.1191,-4.1191,-4.1191,-4.1191,-4.1191,-4.1191,-4.1191,-4.1191,-4.1191,-4.1191,-4.1191,-4.1191,-4.1191,-4.1191,-4.1191,-4.1191,-4.1191,-4.1191,-4.1191,-4.1191,-4.1191,-4.1191,-4.1191,-4.1191,-4.1191,-4.1191,-4.1191,-4.1191,-4.1191,-4.1191,-4.1191,-4.1191,-4.1191,-4.1191,-4.1191,-4.1191,-4.1191,-4.1191,-4.1191,-3.9883,-3.9355,-3.9883,-3.7891,-3.6777,-3.6777,-3.6269,-3.5996,-3.5996,-3.5996,-3.5996,-3.5996,-3.5996,-3.5996,-4.7383,-4.6925,-4.6234,-4.6234,-4.6013,-4.5776,-4.5627,-4.5594,-4.5594,-4.5594,-4.5594,-4.5594,-4.5594,-4.5594,-4.5594,-4.5594,-4.5594,-4.5594,-4.5594,-4.5594,-4.5594,-4.5594,-4.5594,-4.5594,-4.5594,-4.5594,-4.5594,-4.5594,-4.5594,-4.5575,-4.5498,-4.5479,-4.5479,-4.5479,-4.5479,-4.5479,-4.5479,-4.4701,-4.4259,-4.4162,-4.2566,-4.1788,-4.1797,-4.184,-4.144,-4.0715,-4.0916,-4.1077,-4.1172,-4.1191,-4.1191,-4.1191,-4.1191,-4.1191,-4.1191,-4.1191,-4.1191,-4.1191,-4.1191,-4.1191,-4.1191,-4.1191,-4.1191,-4.1191,-4.1191,-4.1191,-4.1191,-4.1191,-4.1191,-4.1191,-4.1191,-4.1191,-4.1191,-4.1191,-4.1191,-4.1191,-4.1191,-4.1191,-4.1191,-4.1191,-4.1191,-4.1191,-4.1191,-4.1191,-4.1191,-4.1191,-4.1191,-4.1191,-4.1191,-4.1191,-4.1191,-4.1191,-4.1191,-4.1191,-4.1191,-4.1191,-4.1191,-4.1191,-4.0371,-3.9902,-3.9902,-3.7461,-3.6113,-3.6113,-3.6035,-3.5996,-3.5996,-3.5996,-3.5996,-3.5996,-3.5996,-3.5996,-4.7558,-4.7441,-4.7283,-4.7283,-4.6577,-4.5834,-4.5648,-4.5594,-4.5594,-4.5594,-4.5594,-4.5594,-4.5594,-4.5594,-4.5594,-4.5594,-4.5594,-4.5594,-4.5594,-4.5594,-4.5594,-4.5594,-4.5594,-4.5594,-4.5594,-4.5594,-4.5594,-4.5594,-4.5594,-4.5306,-4.4624,-4.4586,-4.4586,-4.4586,-4.4586,-4.4586,-4.4586,-4.4393,-4.397,-4.3355,-4.2297,-4.1788,-4.1777,-4.1112,-4.0789,-4.0715,-4.0916,-4.1021,-4.1052,-4.115,-4.1191,-4.1191,-4.1191,-4.1191,-4.1191,-4.1191,-4.1191,-4.1191,-4.1191,-4.1191,-4.1191,-4.1191,-4.1191,-4.1191,-4.1191,-4.1191,-4.1191,-4.1191,-4.1191,-4.1191,-4.1191,-4.1191,-4.1191,-4.1191,-4.1191,-4.1191,-4.1191,-4.1191,-4.1191,-4.1191,-4.1191,-4.1191,-4.1191,-4.1191,-4.1191,-4.1191,-4.1191,-4.1191,-4.1191,-4.1191,-4.1191,-4.1191,-4.1191,-4.1191,-4.1191,-4.1191,-4.1191,-4.1191,-4.0371,-3.9902,-3.9902,-3.8047,-3.7012,-3.7012,-3.6348,-3.5996,-3.5996,-3.5996,-3.5996,-3.5996,-3.5996,-3.5996,-4.748,-4.7598,-4.7578,-4.7513,-4.6735,-4.5939,-4.5742,-4.5692,-4.568,-4.5612,-4.5594,-4.5594,-4.5594,-4.5594,-4.5594,-4.5594,-4.5594,-4.5594,-4.5594,-4.5594,-4.5594,-4.5594,-4.5594,-4.5594,-4.5594,-4.5594,-4.5594,-4.5594,-4.521,-4.4778,-4.4316,-4.3932,-4.372,-4.372,-4.372,-4.372,-4.372,-4.3316,-4.2893,-4.247,-4.1585,-4.1181,-4.1162,-4.0708,-4.0561,-4.0709,-4.0832,-4.095,-4.1019,-4.1149,-4.1191,-4.1191,-4.1191,-4.1191,-4.1191,-4.1191,-4.1191,-4.1191,-4.1191,-4.1191,-4.1191,-4.1191,-4.1191,-4.1191,-4.1191,-4.1191,-4.1191,-4.1191,-4.1191,-4.1191,-4.1191,-4.1191,-4.1191,-4.1191,-4.1191,-4.1191,-4.1191,-4.1191,-4.1191,-4.1191,-4.1191,-4.1191,-4.1191,-4.1191,-4.1191,-4.1191,-4.1191,-4.1191,-4.1191,-4.1191,-4.1191,-4.1191,-4.1191,-4.1191,-4.1191,-4.1191,-4.1191,-4.1191,-4.0762,-4.0527,-4.0527,-3.8848,-3.7734,-3.7305,-3.6445,-3.5996,-3.5996,-3.5996,-3.5996,-3.5996,-3.5996,-3.5996,-4.7363,-4.7598,-4.7577,-4.7432,-4.6735,-4.6056,-4.5853,-4.5821,-4.5777,-4.5657,-4.562,-4.5594,-4.5594,-4.5594,-4.5594,-4.5594,-4.5594,-4.5594,-4.5594,-4.5594,-4.5594,-4.5594,-4.5594,-4.5594,-4.5594,-4.5594,-4.5537,-4.5383,-4.4701,-4.4162,-4.3874,-4.3239,-4.2874,-4.2874,-4.2874,-4.2874,-4.2874,-4.2162,-4.1712,-4.1566,-4.0835,-4.0496,-4.0496,-4.0496,-4.0559,-4.0667,-4.0757,-4.085,-4.0986,-4.1105,-4.1171,-4.1191,-4.1191,-4.1191,-4.1191,-4.1191,-4.1191,-4.1191,-4.1191,-4.1191,-4.1191,-4.1191,-4.1191,-4.1191,-4.1191,-4.1191,-4.1191,-4.1191,-4.1191,-4.1191,-4.1191,-4.1191,-4.1191,-4.1191,-4.1191,-4.1191,-4.1191,-4.1191,-4.1191,-4.1191,-4.1191,-4.1191,-4.1191,-4.1191,-4.1191,-4.1191,-4.1191,-4.1191,-4.1191,-4.1191,-4.1191,-4.1191,-4.1191,-4.1191,-4.1191,-4.1191,-4.1191,-4.1191,-4.1191,-4.1133,-4.0976,-3.9453,-3.8184,-3.7324,-3.6445,-3.5996,-3.5996,-3.5996,-3.5996,-3.5996,-3.5996,-3.5996,-4.7363,-4.7598,-4.7577,-4.7432,-4.6735,-4.605,-4.5927,-4.5896,-4.5876,-4.5783,-4.5688,-4.5594,-4.5594,-4.5594,-4.5594,-4.5594,-4.5594,-4.5594,-4.5594,-4.5594,-4.5594,-4.5594,-4.5594,-4.5594,-4.5594,-4.5594,-4.5287,-4.4528,-4.4374,-4.3662,-4.222,-4.2019,-4.1962,-4.1962,-4.1962,-4.1962,-4.1962,-4.1865,-4.1431,-4.0669,-4.0554,-4.0496,-4.0496,-4.0496,-4.0512,-4.0523,-4.0661,-4.0752,-4.0847,-4.0964,-4.1102,-4.1191,-4.1191,-4.1191,-4.1191,-4.1191,-4.1191,-4.1191,-4.1191,-4.1191,-4.1191,-4.1191,-4.1191,-4.1191,-4.1191,-4.1191,-4.1191,-4.1191,-4.1191,-4.1191,-4.1191,-4.1191,-4.1191,-4.1191,-4.1191,-4.1191,-4.1191,-4.1191,-4.1191,-4.1191,-4.1191,-4.1191,-4.1191,-4.1191,-4.1191,-4.1191,-4.1191,-4.1191,-4.1191,-4.1191,-4.1191,-4.1191,-4.1191,-4.1191,-4.1191,-4.1191,-4.1191,-4.1191,-4.1191,-4.0859,-4.0098,-3.9121,-3.8184,-3.7324,-3.6445,-3.5996,-3.5996,-3.5996,-3.5996,-3.5996,-3.5996,-3.5996,-4.7363,-4.7246,-4.6972,-4.7397,-4.6867,-4.6175,-4.6042,-4.6005,-4.5978,-4.5881,-4.5799,-4.5731,-4.5618,-4.5594,-4.5594,-4.5594,-4.5594,-4.5594,-4.5594,-4.5594,-4.5594,-4.5594,-4.5594,-4.5594,-4.5594,-4.5594,-4.5248,-4.4374,-4.3874,-4.3085,-4.1865,-4.1335,-4.1066,-4.1066,-4.1066,-4.1066,-4.1066,-4.1066,-4.0873,-4.0496,-4.0496,-4.0496,-4.0496,-4.0496,-4.0496,-4.0504,-4.0649,-4.0742,-4.0805,-4.0933,-4.108,-4.1191,-4.1191,-4.1191,-4.1191,-4.1191,-4.1191,-4.1191,-4.1191,-4.1191,-4.1191,-4.1191,-4.1191,-4.1191,-4.1191,-4.1191,-4.1191,-4.1191,-4.1191,-4.1191,-4.1191,-4.1191,-4.1191,-4.1191,-4.1191,-4.1191,-4.1191,-4.1191,-4.1191,-4.1191,-4.1191,-4.1191,-4.1191,-4.1191,-4.1191,-4.1191,-4.1191,-4.1191,-4.1191,-4.1191,-4.1191,-4.1191,-4.1191,-4.1191,-4.1191,-4.1191,-4.1191,-4.1191,-4.1191,-4.0801,-3.9941,-3.9062,-3.8184,-3.7324,-3.6445,-3.5996,-3.5996,-3.5996,-3.5996,-3.5996,-3.5996,-3.5996,-4.709,-4.6797,-4.6465,-4.7109,-4.6777,-4.6269,-4.6174,-4.6147,-4.6115,-4.5981,-4.5765,-4.5628,-4.5662,-4.5681,-4.5665,-4.5648,-4.566,-4.5643,-4.5603,-4.5594,-4.5594,-4.5594,-4.5594,-4.5594,-4.5594,-4.5594,-4.5152,-4.4085,-4.3431,-4.2624,-4.1527,-4.0854,-4.0496,-4.0496,-4.0496,-4.0496,-4.0496,-4.0496,-4.0496,-4.0496,-4.0496,-4.0496,-4.0496,-4.0496,-4.0496,-4.0504,-4.0603,-4.071,-4.0805,-4.0911,-4.1052,-4.1191,-4.1191,-4.1191,-4.1191,-4.1191,-4.1191,-4.1191,-4.1191,-4.1191,-4.1191,-4.1191,-4.1191,-4.1191,-4.1191,-4.1191,-4.1191,-4.1191,-4.1191,-4.1191,-4.1191,-4.1191,-4.1191,-4.1191,-4.1191,-4.1191,-4.1191,-4.1191,-4.1191,-4.1191,-4.1191,-4.1191,-4.1191,-4.1191,-4.1191,-4.1191,-4.1191,-4.1191,-4.1191,-4.1191,-4.1191,-4.1191,-4.1191,-4.1191,-4.1191,-4.1191,-4.1191,-4.1191,-4.0996,-4.0488,-3.9609,-3.873,-3.7851,-3.6992,-3.6328,-3.5996,-3.5996,-3.5996,-3.5996,-3.5996,-3.5996,-3.5996,-4.6367,-4.6328,-4.6308,-4.6367,-4.6328,-4.6308,-4.6289,-4.6289,-4.6247,-4.6117,-4.544,-4.5064,-4.5767,-4.5881,-4.5862,-4.5796,-4.579,-4.5747,-4.562,-4.5594,-4.5594,-4.5594,-4.5594,-4.5594,-4.5594,-4.5594,-4.4921,-4.3297,-4.3124,-4.2354,-4.0669,-4.0516,-4.0496,-4.0496,-4.0496,-4.0496,-4.0496,-4.0496,-4.0496,-4.0496,-4.0496,-4.0496,-4.0496,-4.0496,-4.0496,-4.0496,-4.0504,-4.0616,-4.0797,-4.0805,-4.0962,-4.1191,-4.1191,-4.1191,-4.1191,-4.1191,-4.1191,-4.1191,-4.1191,-4.1191,-4.1191,-4.1191,-4.1191,-4.1191,-4.1191,-4.1191,-4.1191,-4.1191,-4.1191,-4.1191,-4.1191,-4.1191,-4.1191,-4.1191,-4.1191,-4.1191,-4.1191,-4.1191,-4.1191,-4.1191,-4.1191,-4.1191,-4.1191,-4.1191,-4.1191,-4.1191,-4.1191,-4.1191,-4.1191,-4.1191,-4.1191,-4.1191,-4.1191,-4.1191,-4.1191,-4.1191,-4.1191,-4.1191,-4.043,-3.957,-3.8691,-3.7832,-3.6953,-3.6074,-3.6016,-3.5996,-3.5996,-3.5996,-3.5996,-3.5996,-3.5996,-3.5996,-4.5469,-4.5879,-4.6172,-4.5605,-4.5898,-4.6308,-4.6308,-4.6308,-4.6289,-4.6246,-4.5541,-4.5186,-4.5996,-4.5595,-4.5297,-4.5779,-4.5832,-4.5776,-4.5752,-4.5648,-4.5594,-4.5594,-4.5594,-4.5594,-4.5594,-4.5594,-4.4902,-4.322,-4.3104,-4.2335,-4.0593,-4.0496,-4.0496,-4.0496,-4.0496,-4.0496,-4.0496,-4.0496,-4.0496,-4.0496,-4.0496,-4.0496,-4.0496,-4.0496,-4.0496,-4.0496,-4.0496,-4.0584,-4.0747,-4.0788,-4.0911,-4.108,-4.1171,-4.1191,-4.1191,-4.1191,-4.1191,-4.1191,-4.1191,-4.1191,-4.1191,-4.1191,-4.1191,-4.1191,-4.1191,-4.1191,-4.1191,-4.1191,-4.1191,-4.1191,-4.1191,-4.1191,-4.1191,-4.1191,-4.1191,-4.1191,-4.1191,-4.1191,-4.1191,-4.1191,-4.1191,-4.1191,-4.1191,-4.1191,-4.1191,-4.1191,-4.1191,-4.1191,-4.1191,-4.1191,-4.1191,-4.1191,-4.1191,-4.1191,-4.1191,-4.1191,-4.1191,-4.1191,-4.0371,-3.9512,-3.8633,-3.7754,-3.6894,-3.6016,-3.5996,-3.5996,-3.5996,-3.5996,-3.5996,-3.5996,-3.5996,-3.5996,-4.4648,-4.5195,-4.5723,-4.5137,-4.5449,-4.5937,-4.623,-4.6308,-4.6308,-4.6308,-4.5605,-4.5273,-4.6133,-4.5485,-4.5069,-4.5841,-4.5933,-4.588,-4.583,-4.5735,-4.5665,-4.5665,-4.5637,-4.5594,-4.5594,-4.5594,-4.4902,-4.322,-4.3104,-4.2335,-4.0593,-4.0496,-4.0496,-4.0496,-4.0496,-4.0496,-4.0496,-4.0496,-4.0496,-4.0496,-4.0496,-4.0496,-4.0496,-4.0496,-4.0496,-4.0496,-4.0496,-4.0581,-4.0709,-4.077,-4.0874,-4.1,-4.115,-4.1191,-4.1191,-4.1191,-4.1191,-4.1191,-4.1191,-4.1191,-4.1191,-4.1191,-4.1191,-4.1191,-4.1191,-4.1191,-4.1191,-4.1191,-4.1191,-4.1191,-4.1191,-4.1191,-4.1191,-4.1191,-4.1191,-4.1191,-4.1191,-4.1191,-4.1191,-4.1191,-4.1191,-4.1191,-4.1191,-4.1191,-4.1191,-4.1191,-4.1191,-4.1191,-4.1191,-4.1191,-4.1191,-4.1191,-4.1191,-4.1191,-4.1191,-4.1191,-4.1191,-4.1191,-4.0371,-3.9512,-3.8633,-3.7754,-3.6894,-3.6016,-3.5996,-3.5996,-3.5996,-3.5996,-3.5996,-3.5996,-3.5996,-3.5996,0.0,0.0,0.0,-4.4941,-4.4941,-4.5195,-4.6055,-4.623,-4.623,-4.6289,-4.5586,-4.5234,-4.6133,-4.5586,-4.5232,-4.5984,-4.6091,-4.6047,-4.592,-4.5853,-4.5803,-4.5803,-4.5696,-4.5603,-4.5594,-4.5594,-4.4902,-4.322,-4.3104,-4.2335,-4.0593,-4.0496,-4.0496,-4.0496,-4.0496,-4.0496,-4.0496,-4.0496,-4.0496,-4.0496,-4.0496,-4.0496,-4.0496,-4.0496,-4.0496,-4.0496,-4.0496,-4.0561,-4.0703,-4.077,-4.0874,-4.1017,-4.1149,-4.1191,-4.1191,-4.1191,-4.1191,-4.1191,-4.1191,-4.1191,-4.1191,-4.1191,-4.1191,-4.1191,-4.1191,-4.1191,-4.1191,-4.1191,-4.1191,-4.1191,-4.1191,-4.1191,-4.1191,-4.1191,-4.1191,-4.1191,-4.1191,-4.1191,-4.1191,-4.1191,-4.1191,-4.1191,-4.1191,-4.1191,-4.1191,-4.1191,-4.1191,-4.1191,-4.1191,-4.1191,-4.1191,-4.1191,-4.1191,-4.1191,-4.1191,-4.1191,-4.1191,-4.1191,-4.0371,-3.9512,-3.8633,-3.7754,-3.6894,-3.6016,-3.5996,-3.5996,-3.5996,-3.5996,-3.5996,-3.5996,-3.5996,-3.5996,-4.3008,0.0,0.0,0.0,0.0,0.0,-4.5156,-4.4863,-4.4785,-4.6035,-4.5117,-4.4512,-4.6016,-4.5586,-4.5273,-4.611,-4.6152,-4.6084,-4.6045,-4.5944,-4.585,-4.5816,-4.5775,-4.5708,-4.5612,-4.5594,-4.4902,-4.322,-4.3104,-4.2335,-4.0593,-4.0496,-4.0496,-4.0496,-4.0496,-4.0496,-4.0496,-4.0496,-4.0496,-4.0496,-4.0496,-4.0496,-4.0496,-4.0496,-4.0496,-4.0496,-4.0496,-4.0527,-4.0561,-4.0738,-4.0816,-4.0874,-4.1105,-4.1191,-4.1191,-4.1191,-4.1191,-4.1191,-4.1191,-4.1191,-4.1191,-4.1191,-4.1191,-4.1191,-4.1191,-4.1191,-4.1191,-4.1191,-4.1191,-4.1191,-4.1191,-4.1191,-4.1191,-4.1191,-4.1191,-4.1191,-4.1191,-4.1191,-4.1191,-4.1191,-4.1191,-4.1191,-4.1191,-4.1191,-4.1191,-4.1191,-4.1191,-4.1191,-4.1191,-4.1191,-4.1191,-4.1191,-4.1191,-4.1191,-4.1191,-4.1191,-4.1191,-4.1191,-4.0371,-3.9512,-3.8633,-3.7754,-3.6894,-3.6016,-3.5996,-3.5996,-3.5996,-3.5996,-3.5996,-3.5996,-3.5996,-3.5996,-4.2637,-4.3418,-4.4121,-4.2734,0.0,0.0,-4.4805,-4.4609,-4.4629,-4.6016,-4.5488,-4.5098,-4.6113,-4.5879,-4.5703,-4.6211,-4.6226,-4.6177,-4.6177,-4.6075,-4.5963,-4.5939,-4.5844,-4.5775,-4.5685,-4.5627,-4.5037,-4.3701,-4.3297,-4.2335,-4.0593,-4.0496,-4.0496,-4.0496,-4.0496,-4.0496,-4.0496,-4.0496,-4.0496,-4.0496,-4.0496,-4.0496,-4.0496,-4.0496,-4.0496,-4.0496,-4.0496,-4.0496,-4.05,-4.0693,-4.0775,-4.0839,-4.1102,-4.1191,-4.1191,-4.1191,-4.1191,-4.1191,-4.1191,-4.1191,-4.1191,-4.1191,-4.1191,-4.1191,-4.1191,-4.1191,-4.1191,-4.1191,-4.1191,-4.1191,-4.1191,-4.1191,-4.1191,-4.1191,-4.1191,-4.1191,-4.1191,-4.1191,-4.1191,-4.1191,-4.1191,-4.1191,-4.1191,-4.1191,-4.1191,-4.1191,-4.1191,-4.1191,-4.1191,-4.1191,-4.1191,-4.1191,-4.1191,-4.1191,-4.1191,-4.1191,-4.1035,-4.0684,-4.0176,-3.9355,-3.8105,-3.7578,-3.6894,-3.6016,-3.5996,-3.5996,-3.5996,-3.5996,-3.5996,-3.5996,-3.5996,-3.5996,-4.2773,-4.3183,-4.3613,-4.2637,-4.3066,0.0,-4.4551,-4.4707,-4.4961,-4.582,-4.5937,-4.5937,-4.6113,-4.6152,-4.6152,-4.6152,-4.623,-4.6308,-4.6308,-4.62,-4.6117,-4.611,-4.6026,-4.5918,-4.5803,-4.5781,-4.5351,-4.4374,-4.347,-4.2239,-4.0593,-4.0496,-4.0496,-4.0496,-4.0496,-4.0496,-4.0496,-4.0496,-4.0496,-4.0496,-4.0496,-4.0496,-4.0496,-4.0496,-4.0496,-4.0496,-4.0496,-4.0496,-4.0512,-4.063,-4.0747,-4.0836,-4.108,-4.1191,-4.1191,-4.1191,-4.1191,-4.1191,-4.1191,-4.1191,-4.1191,-4.1191,-4.1191,-4.1191,-4.1191,-4.1191,-4.1191,-4.1191,-4.1191,-4.1191,-4.1191,-4.1191,-4.1191,-4.1191,-4.1191,-4.1191,-4.1191,-4.1191,-4.1191,-4.1191,-4.1191,-4.1191,-4.1191,-4.1191,-4.1191,-4.1191,-4.1191,-4.1191,-4.1191,-4.1191,-4.1191,-4.1191,-4.1191,-4.1191,-4.1191,-4.1191,-4.082,-3.9961,-3.9902,-3.9121,-3.7363,-3.7305,-3.6894,-3.6016,-3.5996,-3.5996,-3.5996,-3.5996,-3.5996,-3.5996,-3.5996,-3.5996,-4.3672,-4.4082,-4.4375,-4.2793,-4.3066,0.0,-4.3027,-4.291,-4.3144,-4.4023,-4.3652,-4.3594,-4.498,-4.5254,-4.5254,-4.5254,-4.584,-4.6308,-4.6308,-4.6289,-4.6223,-4.6115,-4.6674,-4.6754,-4.5886,-4.6422,-4.6104,-4.4429,-4.2893,-4.1604,-4.0554,-4.0496,-4.0496,-4.0496,-4.0496,-4.0496,-4.0496,-4.0496,-4.0496,-4.0496,-4.0496,-4.0496,-4.0496,-4.0496,-4.0496,-4.0496,-4.0496,-4.0496,-4.0512,-4.063,-4.0747,-4.0813,-4.0986,-4.1104,-4.1191,-4.1191,-4.1191,-4.1191,-4.1191,-4.1191,-4.1191,-4.1191,-4.1191,-4.1191,-4.1191,-4.1191,-4.1191,-4.1191,-4.1191,-4.1191,-4.1191,-4.1191,-4.1191,-4.1191,-4.1191,-4.1191,-4.1191,-4.1191,-4.1191,-4.1191,-4.1191,-4.1191,-4.1191,-4.1191,-4.1191,-4.1191,-4.1191,-4.1191,-4.1191,-4.1191,-4.1191,-4.1191,-4.1191,-4.1191,-4.1191,-4.1191,-4.082,-3.9961,-3.9902,-3.9121,-3.7363,-3.7305,-3.6894,-3.6016,-3.5996,-3.5996,-3.5996,-3.5996,-3.5996,-3.5996,-3.5996,-3.5996,-4.3945,-4.4023,-4.4043,-4.2734,-4.3066,0.0,0.0,-4.3691,-4.3945,-4.4824,-4.4297,-4.3965,-4.4844,-4.4648,-4.4492,-4.4922,-4.5371,-4.5644,-4.5644,-4.6035,-4.6288,-4.6202,-4.6536,-4.6532,-4.6009,-4.6249,-4.5851,-4.441,-4.3143,-4.2066,-4.1181,-4.0746,-4.0496,-4.0496,-4.0496,-4.0496,-4.0496,-4.0496,-4.0496,-4.0496,-4.0496,-4.0496,-4.0496,-4.0496,-4.0496,-4.0496,-4.0496,-4.0496,-4.0504,-4.0581,-4.0682,-4.0809,-4.0952,-4.108,-4.1191,-4.1191,-4.1191,-4.1191,-4.1191,-4.1191,-4.1191,-4.1191,-4.1191,-4.1191,-4.1191,-4.1191,-4.1191,-4.1191,-4.1191,-4.1191,-4.1191,-4.1191,-4.1191,-4.1191,-4.1191,-4.1191,-4.1191,-4.1191,-4.1191,-4.1191,-4.1191,-4.1191,-4.1191,-4.1191,-4.1191,-4.1191,-4.1191,-4.1191,-4.1191,-4.1191,-4.1191,-4.1191,-4.1191,-4.1191,-4.1191,-4.1191,-4.082,-3.9961,-3.9492,-3.8652,-3.7344,-3.6875,-3.6641,-3.6641,-3.6211,-3.6211,-3.6641,-3.6211,-3.5996,-3.5996,-3.5996,-3.5996,-4.4394,-4.4199,-4.3984,-4.3125,-4.3555,-4.4258,0.0,0.0,0.0,-4.5234,-4.4766,-4.4316,-4.4473,-4.3926,-4.3672,-4.4375,-4.4648,-4.4746,-4.4746,-4.5508,-4.6055,-4.6055,-4.6259,-4.6316,-4.613,-4.592,-4.538,-4.4372,-4.3701,-4.2874,-4.1846,-4.1123,-4.0669,-4.0516,-4.0496,-4.0496,-4.0496,-4.0496,-4.0496,-4.0496,-4.0496,-4.0496,-4.0496,-4.0496,-4.0496,-4.0496,-4.0496,-4.0496,-4.0496,-4.0496,-4.0616,-4.0809,-4.0917,-4.1055,-4.1191,-4.1191,-4.1191,-4.1191,-4.1191,-4.1191,-4.1191,-4.1191,-4.1191,-4.1191,-4.1191,-4.1191,-4.1191,-4.1191,-4.1191,-4.1191,-4.1191,-4.1191,-4.1191,-4.1191,-4.1191,-4.1191,-4.1191,-4.1191,-4.1191,-4.1191,-4.1191,-4.1191,-4.1191,-4.1191,-4.1191,-4.1191,-4.1191,-4.1191,-4.1191,-4.1191,-4.1191,-4.1191,-4.1191,-4.1191,-4.1191,-4.1191,-4.082,-3.9961,-3.9238,-3.8457,-3.7598,-3.6719,-3.666,-3.7539,-3.6523,-3.6426,-3.7305,-3.6582,-3.625,-3.625,-3.625,-3.625,-4.6035,-4.5996,-4.5801,-4.4922,-4.5351,-4.543,-4.3203,0.0,-4.3457,-4.207,0.0,-4.1855,-4.2558,0.0,0.0,-4.2676,-4.334,-4.3848,-4.3848,-4.4609,-4.5156,-4.5156,-4.6504,-4.7084,-4.6193,-4.592,-4.538,-4.4372,-4.422,-4.347,-4.1885,-4.172,-4.1296,-4.0516,-4.0496,-4.0496,-4.0496,-4.0496,-4.0496,-4.0496,-4.0496,-4.0496,-4.0496,-4.0496,-4.0496,-4.0496,-4.0496,-4.0496,-4.0496,-4.0496,-4.0616,-4.0801,-4.0813,-4.0986,-4.1191,-4.1191,-4.1191,-4.1191,-4.1191,-4.1191,-4.1191,-4.1191,-4.1191,-4.1191,-4.1191,-4.1191,-4.1191,-4.1191,-4.1191,-4.1191,-4.1191,-4.1191,-4.1191,-4.1191,-4.1191,-4.1191,-4.1191,-4.1191,-4.1191,-4.1191,-4.1191,-4.1191,-4.1191,-4.1191,-4.1191,-4.1191,-4.1191,-4.1191,-4.1191,-4.1191,-4.1191,-4.1191,-4.1191,-4.1191,-4.1191,-4.1191,-4.082,-3.9961,-3.9805,-3.9355,-3.8496,-3.7617,-3.7559,-3.8437,-3.6836,-3.6426,-3.7305,-3.7207,-3.7148,-3.7148,-3.7148,-3.7148,-4.5683,-4.5176,-4.4707,-4.4336,-4.4141,-4.3887,-4.3281,-4.3437,-4.3496,-4.2793,0.0,0.0,0.0,0.0,0.0,0.0,-4.2715,-4.2949,-4.2949,-4.3691,-4.4629,-4.5625,-4.5957,-4.5871,-4.5332,-4.5628,-4.5621,-4.5101,-4.4586,-4.3797,-4.2624,-4.2058,-4.1393,-4.0535,-4.0496,-4.0496,-4.0496,-4.0496,-4.0496,-4.0496,-4.0496,-4.0496,-4.0496,-4.0496,-4.0496,-4.0496,-4.0496,-4.0496,-4.0496,-4.0496,-4.0616,-4.0797,-4.0797,-4.0959,-4.1191,-4.1191,-4.1191,-4.1191,-4.1191,-4.1191,-4.1191,-4.1191,-4.1191,-4.1191,-4.1191,-4.1191,-4.1191,-4.1191,-4.1191,-4.1191,-4.1191,-4.1191,-4.1191,-4.1191,-4.1191,-4.1191,-4.1191,-4.1191,-4.1191,-4.1191,-4.1191,-4.1191,-4.1191,-4.1191,-4.1191,-4.1191,-4.1191,-4.1191,-4.1191,-4.1191,-4.1191,-4.1191,-4.1191,-4.1191,-4.1191,-4.1191,-4.1035,-4.0684,-4.0176,-3.9512,-3.8633,-3.8242,-3.8457,-3.9336,-3.8144,-3.7949,-3.8809,-3.8301,-3.8047,-3.8047,-3.8047,-3.7773,-4.5407,-4.4686,-4.4062,-4.4062,-4.3574,-4.3144,-4.3301,-4.334,-4.334,-4.334,-4.2832,0.0,0.0,0.0,-4.1992,-4.2344,0.0,-4.2402,-4.2402,-4.2949,-4.3808,-4.5078,-4.5098,-4.501,-4.5078,-4.5585,-4.5825,-4.5673,-4.5032,-4.4201,-4.3162,-4.2508,-4.1643,-4.0535,-4.0496,-4.0496,-4.0496,-4.0496,-4.0496,-4.0496,-4.0496,-4.0496,-4.0496,-4.0496,-4.0496,-4.0496,-4.0496,-4.0496,-4.0496,-4.0496,-4.0616,-4.0797,-4.0797,-4.0959,-4.1191,-4.1191,-4.1191,-4.1191,-4.1191,-4.1191,-4.1191,-4.1191,-4.1191,-4.1191,-4.1191,-4.1191,-4.1191,-4.1191,-4.1191,-4.1191,-4.1191,-4.1191,-4.1191,-4.1191,-4.1191,-4.1191,-4.1191,-4.1191,-4.1191,-4.1191,-4.1191,-4.1191,-4.1191,-4.1191,-4.1191,-4.1191,-4.1191,-4.1191,-4.1191,-4.1191,-4.1191,-4.1191,-4.1191,-4.1191,-4.1191,-4.1191,-4.1191,-4.1191,-4.0605,-3.9961,-3.9336,-3.9082,-3.9375,-4.0234,-3.918,-3.9023,-3.9902,-3.9258,-3.8828,-3.8613,-3.8848,-3.8496,-4.5837,-4.5516,-4.4961,-4.4961,-4.4941,-4.4473,-4.2812,-4.2441,-4.2441,-4.2441,-4.2422,-4.2656,-4.3496,-4.3633,-4.3359,-4.2539,-4.2402,0.0,0.0,-4.2422,-4.2461,-4.2519,-4.3984,-4.529,-4.5996,-4.5962,-4.5867,-4.5803,-4.5653,-4.4844,-4.3181,-4.3066,-4.2277,-4.0554,-4.0496,-4.0496,-4.0496,-4.0496,-4.0496,-4.0496,-4.0496,-4.0496,-4.0496,-4.0496,-4.0496,-4.0496,-4.0496,-4.0496,-4.0496,-4.0496,-4.0616,-4.0797,-4.0797,-4.0959,-4.1191,-4.1191,-4.1191,-4.1191,-4.1191,-4.1191,-4.1191,-4.1191,-4.1191,-4.1191,-4.1191,-4.1191,-4.1191,-4.1191,-4.1191,-4.1191,-4.1191,-4.1191,-4.1191,-4.1191,-4.1191,-4.1191,-4.1191,-4.1191,-4.1191,-4.1191,-4.1191,-4.1191,-4.1191,-4.1191,-4.1191,-4.1191,-4.1191,-4.1191,-4.1191,-4.1191,-4.1191,-4.1191,-4.1191,-4.1191,-4.1191,-4.1191,-4.1191,-4.1191,-4.1172,-4.1152,-4.1113,-4.0312,-4.0273,-4.1133,-3.9473,-3.9023,-3.9902,-3.9863,-3.9414,-3.8613,-3.9473,-3.9394,-4.4231,-4.3775,-4.3343,-4.3929,-4.3277,-4.2461,-4.2402,-4.1992,-4.1758,-4.2285,-4.2402,-4.2676,-4.3535,-4.3691,-4.3594,-4.3301,-4.3262,-4.3066,0.0,-4.1933,-4.1797,-4.2344,-4.3945,-4.4626,-4.3671,-4.452,-4.5055,-4.4951,-4.4824,-4.4259,-4.3162,-4.3104,-4.2297,-4.0554,-4.0496,-4.0496,-4.0496,-4.0496,-4.0496,-4.0496,-4.0496,-4.0496,-4.0496,-4.0496,-4.0496,-4.0496,-4.0496,-4.0496,-4.0496,-4.0496,-4.0616,-4.0797,-4.0797,-4.0959,-4.1191,-4.1191,-4.1191,-4.1191,-4.1191,-4.1191,-4.1191,-4.1191,-4.1191,-4.1191,-4.1191,-4.1191,-4.1191,-4.1191,-4.1191,-4.1191,-4.1191,-4.1191,-4.1191,-4.1191,-4.1191,-4.1191,-4.1191,-4.1191,-4.1191,-4.1191,-4.1191,-4.1191,-4.1191,-4.1191,-4.1191,-4.1191,-4.1191,-4.1191,-4.1191,-4.1191,-4.1191,-4.1191,-4.1191,-4.1191,-4.1191,-4.1191,-4.1191,-4.1191,-4.1191,-4.1191,-4.1191,-4.0918,-4.0898,-4.1191,-4.0625,-4.0469,-4.0762,-4.0762,-4.0312,-3.9473,-4.0351,-4.0293,-4.3243,-4.2794,-4.2351,-4.2939,-4.2284,-4.1663,-4.224,-4.1968,-4.1833,-4.2695,-4.3105,-4.3398,-4.3652,-4.4219,-4.4414,-4.3808,-4.3691,-4.3301,0.0,-4.1523,-4.1387,-4.1914,-4.3223,-4.3749,-4.2873,-4.3702,-4.4257,-4.4117,-4.4264,-4.3851,-4.2701,-4.2931,-4.2297,-4.0554,-4.0496,-4.0496,-4.0496,-4.0496,-4.0496,-4.0496,-4.0496,-4.0496,-4.0496,-4.0496,-4.0496,-4.0496,-4.0496,-4.0496,-4.0496,-4.0496,-4.0616,-4.0797,-4.0797,-4.0959,-4.1191,-4.1191,-4.1191,-4.1191,-4.1191,-4.1191,-4.1191,-4.1191,-4.1191,-4.1191,-4.1191,-4.1191,-4.1191,-4.1191,-4.1191,-4.1191,-4.1191,-4.1191,-4.1191,-4.1191,-4.1191,-4.1191,-4.1191,-4.1191,-4.1191,-4.1191,-4.1191,-4.1191,-4.1191,-4.1191,-4.1191,-4.1191,-4.1191,-4.1191,-4.1191,-4.1191,-4.1191,-4.1191,-4.1191,-4.1191,-4.1191,-4.1191,-4.1191,-4.1191,-4.1191,-4.1191,-4.1191,-4.1191,-4.1191,-4.1191,-4.1191,-4.1191,-4.1191,-4.1191,-4.0918,-4.0371,-4.0937,-4.0898]},{"header":{"parameterUnit":"m.s-1","parameterCategory":1,"la1":30.6,"la2":29.2853,"lo1":-89.7004,"lo2":-87.6739,"dy":0.0162,"dx":0.0183,"nx":112,"ny":82,"refTime":"2024-05-20T00:00:00:Z","depth":0,"parameterNumber":3,"parameterNumberName":"V-component_of_WINDS"},"data":[0.0,0.0,0.0,0.0,0.0,0.0,0.0,0.0,0.0,0.0,0.0,0.0,0.0,0.0,0.0,0.0,0.0,0.0,0.0,0.0,0.0,0.0,0.0,0.0,0.0,0.0,0.0,0.0,0.0,0.0,0.0,0.0,0.0,0.0,0.0,0.0,0.0,0.0,0.0,0.0,0.0,0.0,0.0,0.0,0.0,0.0,0.0,0.0,0.0,0.0,0.0,0.0,0.0,0.0,0.0,0.0,0.0,0.0,0.0,0.0,0.0,0.0,0.0,0.0,0.0,0.0,0.0,0.0,0.0,0.0,0.0,0.0,0.0,0.0,0.0,0.0,0.0,0.0,0.0,0.0,0.0,0.0,0.0,0.0,0.0,0.0,0.0,0.0,0.0,0.0,-0.9205,-0.9425,-1.1086,-1.2873,-1.448,-1.5701,-1.677,-1.7523,0.0,0.0,0.0,0.0,0.0,0.0,0.0,0.0,0.0,0.0,0.0,0.0,0.0,0.0,0.0,0.0,0.0,0.0,0.0,0.0,0.0,0.0,0.0,0.0,0.0,0.0,0.0,0.0,0.0,0.0,0.0,0.0,0.0,0.0,0.0,0.0,0.0,0.0,0.0,0.0,0.0,0.0,0.0,0.0,0.0,0.0,0.0,0.0,0.0,0.0,0.0,0.0,0.0,0.0,0.0,0.0,0.0,0.0,0.0,0.0,0.0,0.0,0.0,0.0,0.0,0.0,0.0,0.0,0.0,0.0,0.0,0.0,0.0,0.0,0.0,0.0,0.0,0.0,0.0,0.0,0.0,0.0,0.0,0.0,0.0,0.0,0.0,0.0,0.0,0.0,0.0,0.0,0.0,0.0,0.0,0.0,0.0,0.0,0.0,0.0,0.0,0.0,0.0,0.0,-0.9171,-0.9696,-1.123,-1.2873,-1.448,-1.5552,-1.6575,-1.7516,0.0,0.0,0.0,0.0,0.0,0.0,0.0,0.0,0.0,0.0,0.0,0.0,0.0,0.0,0.0,0.0,0.0,0.0,0.0,0.0,0.0,0.0,0.0,0.0,0.0,0.0,0.0,0.0,0.0,0.0,0.0,0.0,0.0,0.0,0.0,0.0,0.0,0.0,0.0,0.0,0.0,0.0,0.0,0.0,0.0,0.0,0.0,0.0,0.0,0.0,0.0,0.0,0.0,0.0,0.0,0.0,0.0,0.0,0.0,0.0,0.0,0.0,0.0,0.0,0.0,0.0,0.0,0.0,0.0,0.0,0.0,0.0,0.0,0.0,0.0,0.0,0.0,0.0,0.0,0.0,0.0,0.0,0.0,0.0,0.0,0.0,0.0,0.0,0.0,0.0,0.0,0.0,0.0,0.0,0.0,0.0,0.0,0.0,0.0,0.0,0.0,0.0,0.0,-0.9062,-0.9252,-0.9768,-1.2032,-1.3825,-1.4545,-1.6332,-1.7437,-1.7569,-1.7161,0.0,0.0,0.0,0.0,0.0,0.0,0.0,0.0,0.0,0.0,0.0,0.0,0.0,0.0,0.0,0.0,0.0,0.0,0.0,0.0,0.0,0.0,0.0,0.0,0.0,0.0,0.0,0.0,0.0,0.0,0.0,0.0,0.0,0.0,0.0,0.0,0.0,0.0,0.0,0.0,0.0,0.0,0.0,0.0,0.0,0.0,0.0,0.0,0.0,0.0,0.0,0.0,0.0,0.0,0.0,0.0,0.0,0.0,0.0,0.0,0.0,0.0,0.0,0.0,0.0,0.0,0.0,0.0,0.0,0.0,0.0,0.0,0.0,0.0,0.0,0.0,0.0,0.0,0.0,0.0,0.0,0.0,0.0,0.0,0.0,0.0,0.0,0.0,0.0,0.0,0.0,0.0,0.0,0.0,0.0,0.0,0.0,0.0,0.0,0.0,0.0,0.0,-0.9296,-0.9614,-1.0261,-1.2933,-1.4723,-1.5133,-1.7144,-1.8156,-1.7615,-1.6901,0.0,0.0,0.0,0.0,0.0,0.0,0.0,0.0,0.0,0.0,0.0,0.0,0.0,0.0,0.0,0.0,0.0,0.0,0.0,0.0,0.0,0.0,0.0,0.0,0.0,0.0,0.0,0.0,0.0,0.0,0.0,0.0,0.0,0.0,0.0,0.0,0.0,0.0,0.0,0.0,0.0,0.0,0.0,0.0,0.0,0.0,0.0,0.0,0.0,0.0,0.0,0.0,0.0,0.0,0.0,0.0,0.0,0.0,0.0,0.0,0.0,0.0,0.0,0.0,0.0,0.0,0.0,0.0,0.0,0.0,0.0,0.0,0.0,0.0,0.0,0.0,0.0,0.0,0.0,0.0,0.0,0.0,0.0,0.0,0.0,0.0,0.0,0.0,0.0,0.0,0.0,0.0,0.0,0.0,0.0,0.0,0.0,0.0,0.0,0.0,0.0,0.0,-0.9439,-1.0322,-1.1852,-1.3591,-1.5192,-1.6674,-1.7596,-1.7936,-1.7602,-1.652,0.0,0.0,0.0,0.0,0.0,0.0,0.0,0.0,0.0,0.0,0.0,0.0,0.0,0.0,0.0,0.0,0.0,0.0,0.0,0.0,0.0,0.0,0.0,0.0,0.0,0.0,0.0,0.0,0.0,0.0,0.0,0.0,0.0,0.0,0.0,0.0,0.0,0.0,0.0,0.0,0.0,0.0,0.0,0.0,0.0,0.0,0.0,0.0,0.0,0.0,0.0,0.0,0.0,0.0,0.0,0.0,0.0,0.0,0.0,0.0,0.0,0.0,0.0,0.0,0.0,0.0,0.0,0.0,0.0,0.0,0.0,0.0,0.0,0.0,0.0,0.0,0.0,0.0,0.0,0.0,0.0,0.0,0.0,0.0,0.0,0.0,0.0,0.0,0.0,0.0,0.0,0.0,0.0,0.0,0.0,0.0,0.0,0.0,0.0,0.0,0.0,0.0,-0.9211,-0.9742,-1.0627,-1.2871,-1.4552,-1.5136,-1.6907,-1.7836,-1.7393,0.0,0.0,0.0,0.0,0.0,0.0,0.0,0.0,0.0,0.0,0.0,0.0,0.0,0.0,0.0,0.0,0.0,0.0,0.0,0.0,0.0,0.0,0.0,0.0,0.0,0.0,0.0,0.0,0.0,0.0,0.0,0.0,0.0,0.0,0.0,0.0,0.0,0.0,0.0,0.0,0.0,0.0,0.0,0.0,0.0,0.0,0.0,0.0,0.0,0.0,0.0,0.0,0.0,0.0,0.0,0.0,0.0,0.0,0.0,0.0,0.0,0.0,0.0,0.0,0.0,0.0,0.0,0.0,0.0,0.0,0.0,0.0,0.0,0.0,0.0,0.0,0.0,0.0,0.0,0.0,0.0,0.0,0.0,0.0,0.0,0.0,0.0,0.0,0.0,0.0,0.0,0.0,0.0,0.0,0.0,0.0,0.0,0.0,0.0,0.0,0.0,0.0,-0.8821,-0.9076,-0.9571,-1.0354,-1.2615,-1.4259,-1.4771,-1.6637,-1.7549,-1.7092,0.0,0.0,0.0,0.0,0.0,0.0,0.0,0.0,0.0,0.0,0.0,0.0,0.0,0.0,0.0,0.0,0.0,0.0,0.0,0.0,0.0,0.0,0.0,0.0,0.0,0.0,0.0,0.0,0.0,0.0,0.0,0.0,0.0,0.0,0.0,0.0,0.0,0.0,0.0,0.0,0.0,0.0,0.0,0.0,0.0,0.0,0.0,0.0,0.0,0.0,0.0,0.0,0.0,0.0,0.0,0.0,0.0,0.0,0.0,0.0,0.0,0.0,0.0,0.0,0.0,0.0,0.0,0.0,0.0,0.0,0.0,0.0,0.0,0.0,0.0,0.0,0.0,0.0,0.0,0.0,0.0,0.0,0.0,0.0,0.0,0.0,0.0,0.0,0.0,0.0,0.0,0.0,0.0,0.0,0.0,0.0,0.0,0.0,0.0,0.0,0.0,0.0,-0.8686,-0.91,-1.0012,-1.161,-1.3022,-1.4549,-1.6125,-1.6834,-1.7072,0.0,0.0,0.0,0.0,0.0,0.0,0.0,0.0,0.0,0.0,0.0,0.0,0.0,0.0,0.0,0.0,0.0,0.0,0.0,0.0,0.0,0.0,0.0,0.0,0.0,0.0,0.0,0.0,0.0,0.0,0.0,0.0,0.0,0.0,0.0,0.0,0.0,0.0,0.0,0.0,0.0,0.0,0.0,0.0,0.0,0.0,0.0,0.0,0.0,0.0,0.0,0.0,0.0,0.0,0.0,0.0,0.0,0.0,0.0,0.0,0.0,0.0,0.0,0.0,0.0,0.0,0.0,0.0,0.0,0.0,0.0,0.0,0.0,0.0,0.0,0.0,0.0,0.0,0.0,0.0,0.0,0.0,0.0,0.0,0.0,0.0,0.0,0.0,0.0,0.0,0.0,0.0,0.0,0.0,0.0,0.0,0.0,0.0,0.0,0.0,0.0,0.0,0.0,-0.853,-0.8944,-0.9488,-1.0055,-1.2221,-1.3811,-1.4312,-1.6078,-1.6985,-1.6433,0.0,0.0,0.0,0.0,0.0,0.0,0.0,0.0,0.0,0.0,0.0,0.0,0.0,0.0,0.0,0.0,0.0,0.0,0.0,0.0,0.0,0.0,0.0,0.0,0.0,0.0,0.0,0.0,0.0,0.0,0.0,0.0,0.0,0.0,0.0,0.0,0.0,0.0,0.0,0.0,0.0,0.0,0.0,0.0,0.0,0.0,0.0,0.0,0.0,0.0,0.0,0.0,0.0,0.0,0.0,0.0,0.0,0.0,0.0,0.0,0.0,0.0,0.0,0.0,0.0,0.0,0.0,0.0,0.0,0.0,0.0,0.0,0.0,0.0,0.0,0.0,0.0,0.0,0.0,0.0,0.0,0.0,0.0,0.0,0.0,0.0,0.0,0.0,0.0,0.0,0.0,0.0,0.0,0.0,0.0,0.0,0.0,0.0,0.0,0.0,0.0,0.0,-0.837,-0.8737,-0.9035,-0.9188,-1.123,-1.2757,-1.3362,-1.5077,-1.6105,-1.6084,0.0,0.0,0.0,0.0,0.0,0.0,0.0,0.0,0.0,0.0,0.0,0.0,0.0,0.0,0.0,0.0,0.0,0.0,0.0,0.0,0.0,0.0,0.0,0.0,0.0,0.0,0.0,0.0,0.0,0.0,0.0,0.0,0.0,0.0,0.0,0.0,0.0,0.0,0.0,0.0,0.0,0.0,0.0,0.0,0.0,0.0,0.0,0.0,0.0,0.0,0.0,0.0,0.0,0.0,0.0,0.0,0.0,0.0,0.0,0.0,0.0,0.0,0.0,0.0,0.0,0.0,0.0,0.0,0.0,0.0,0.0,0.0,0.0,0.0,0.0,0.0,0.0,0.0,0.0,0.0,0.0,0.0,0.0,0.0,0.0,0.0,0.0,0.0,0.0,0.0,0.0,0.0,0.0,0.0,0.0,0.0,0.0,0.0,0.0,0.0,0.0,0.0,-0.8194,-0.8496,-0.8743,-0.8824,-1.03,-1.1806,-1.3096,-1.4114,-1.4998,-1.573,0.0,0.0,0.0,0.0,0.0,0.0,0.0,0.0,0.0,0.0,0.0,0.0,0.0,0.0,0.0,0.0,0.0,0.0,0.0,0.0,0.0,0.0,0.0,0.0,0.0,0.0,0.0,0.0,0.0,0.0,0.0,0.0,0.0,0.0,0.0,0.0,0.0,0.0,0.0,0.0,0.0,0.0,0.0,0.0,0.0,0.0,0.0,0.0,0.0,0.0,0.0,0.0,0.0,0.0,0.0,0.0,0.0,0.0,0.0,0.0,-0.801,-0.8455,0.0,0.0,0.0,0.0,0.0,0.0,0.0,0.0,0.0,0.0,0.0,0.0,0.0,0.0,0.0,0.0,0.0,0.0,0.0,0.0,0.0,0.0,0.0,0.0,0.0,0.0,0.0,0.0,0.0,0.0,0.0,0.0,0.0,0.0,0.0,0.0,0.0,0.0,0.0,0.0,-0.7902,-0.8272,-0.8543,-0.8574,-1.0819,-1.2427,-1.2739,-1.4681,-1.5767,-1.5478,-1.5157,0.0,0.0,0.0,0.0,0.0,0.0,0.0,0.0,0.0,0.0,0.0,0.0,0.0,0.0,0.0,0.0,0.0,0.0,0.0,0.0,0.0,0.0,0.0,0.0,0.0,0.0,0.0,0.0,0.0,0.0,0.0,0.0,0.0,0.0,0.0,0.0,0.0,0.0,0.0,0.0,0.0,0.0,0.0,0.0,0.0,0.0,0.0,0.0,0.0,0.0,0.0,0.0,0.0,0.0,0.0,0.0,0.0,0.0,0.0,-0.8134,-0.8703,0.0,0.0,0.0,0.0,0.0,0.0,0.0,0.0,0.0,0.0,0.0,0.0,0.0,0.0,0.0,0.0,0.0,0.0,0.0,0.0,0.0,0.0,0.0,0.0,0.0,0.0,0.0,0.0,0.0,0.0,0.0,0.0,0.0,0.0,0.0,0.0,0.0,0.0,0.0,0.0,-0.7801,-0.8143,-0.8408,-0.8476,-0.9771,-1.116,-1.249,-1.3652,-1.4637,-1.5338,-1.5169,0.0,0.0,0.0,0.0,0.0,0.0,0.0,0.0,0.0,0.0,0.0,0.0,0.0,0.0,0.0,0.0,0.0,0.0,0.0,0.0,0.0,0.0,0.0,0.0,0.0,0.0,0.0,0.0,0.0,0.0,0.0,0.0,0.0,0.0,0.0,0.0,0.0,0.0,0.0,0.0,0.0,0.0,0.0,0.0,0.0,0.0,0.0,0.0,0.0,0.0,0.0,0.0,0.0,-0.1146,-0.1683,-0.1878,-0.4562,-0.6057,-0.6611,-0.8001,-0.8742,-0.8964,-0.8811,0.0,0.0,0.0,0.0,0.0,0.0,0.0,0.0,0.0,0.0,0.0,0.0,0.0,0.0,0.0,0.0,0.0,0.0,0.0,0.0,0.0,0.0,-0.7821,-0.7702,-0.7862,-0.7924,-0.7729,0.0,0.0,0.0,0.0,0.0,0.0,0.0,0.0,0.0,0.0,0.0,-0.776,-0.8041,-0.8275,-0.8391,-0.8609,-0.9681,-1.1972,-1.2329,-1.3147,-1.4877,-1.4953,-1.4687,0.0,0.0,0.0,0.0,0.0,0.0,0.0,0.0,0.0,0.0,0.0,0.0,0.0,0.0,0.0,0.0,0.0,0.0,0.0,0.0,0.0,0.0,0.0,0.0,0.0,0.0,0.0,0.0,0.0,0.0,0.0,0.0,0.0154,0.0,0.0,0.0,0.0,0.0,0.0,0.0,0.0,0.0,0.0,0.0,0.0,0.0,0.0,0.0,0.0,0.0,0.0,0.0,-0.0176,-0.0294,-0.0353,-0.1989,-0.3564,-0.5103,-0.6631,0.0,-0.9169,-0.8967,0.0,0.0,0.0,0.0,0.0,0.0,0.0,0.0,0.0,0.0,0.0,0.0,0.0,0.0,0.0,0.0,0.0,0.0,0.0,0.0,0.0,0.0,-0.7955,-0.7938,-0.7961,-0.7978,-0.7941,-0.7892,-0.7763,-0.76,-0.7587,-0.7546,0.0,0.0,0.0,0.0,0.0,0.0,-0.7624,-0.7885,-0.8025,-0.8046,-0.9084,-0.9975,-1.0317,-1.2107,-1.3281,-1.3316,-1.4097,-1.4429,-1.4102,-1.4088,0.0,0.0,0.0,0.0,0.0,0.0,0.0,0.0,0.0,0.0,0.0,0.0,0.0,0.0,0.0,0.0,0.0,0.0,0.0,0.0,0.0,0.0,0.0,0.0,0.0,0.0,0.0,0.0,0.0,0.243,0.114,0.1243,0.0519,0.0,0.0,0.0,0.0,0.0,0.0,0.0,0.0,0.0,0.0,0.0,0.0,0.0,0.0,0.0,0.0,0.0,0.0,0.0,-0.0061,-0.163,-0.2773,-0.3616,-0.6181,-0.756,-0.8093,-0.8754,-0.8971,-0.8808,0.0,0.0,0.0,0.0,-0.8333,-0.8391,-0.8411,-0.8418,-0.8387,-0.8225,0.0,0.0,0.0,0.0,0.0,0.0,0.0,-0.7831,-0.7916,-0.7938,-0.7988,-0.7988,-0.8106,-0.8147,-0.8008,-0.8055,-0.8001,-0.7763,-0.7787,-0.7746,-0.7473,-0.7444,0.0,0.0,0.0,-0.7719,-0.7719,-0.7857,-0.7988,-0.7988,-0.8531,-0.9129,-0.985,-1.0805,-1.1548,-1.1923,-1.2969,-1.3399,-1.3082,-1.373,-1.4088,0.0,0.0,0.0,0.0,0.0,0.0,0.0,0.0,0.0,0.0,0.0,0.0,0.0,0.0,0.0,0.0,0.0,0.0,0.0,0.0,0.0,0.0,0.0,0.0,0.0,0.0,0.0,0.0,0.4061,0.2447,0.224,0.1205,0.0418,0.0,0.0,0.0,0.0,0.0,0.0,0.0,0.0,0.0,0.0,0.0,0.0,0.0,0.0,0.0,0.0,0.0,0.0,-0.0062,-0.1295,-0.2094,-0.2647,-0.5096,-0.651,-0.7184,-0.8676,-0.9127,-0.8964,-0.8659,-0.854,-0.8537,-0.8496,-0.8506,-0.8557,-0.8672,-0.871,-0.8672,-0.8455,-0.8306,-0.814,-0.7767,0.0,0.0,0.0,0.0,-0.7896,-0.7961,-0.7988,-0.7988,-0.7988,-0.813,-0.818,-0.8015,-0.813,-0.8143,-0.7913,-0.7914,-0.7874,-0.7546,-0.758,0.0,-0.7451,-0.7648,-0.7811,-0.7811,-0.7894,-0.7988,-0.7988,-0.7988,-0.8368,-0.9208,-0.9529,-0.9923,-1.0567,-1.1635,-1.2137,-1.1863,-1.3033,-1.3646,-1.3646,0.0,0.0,0.0,0.0,0.0,0.0,0.0,0.0,0.0,0.0,0.0,0.0,0.0,0.0,0.0,0.0,0.0,0.0,0.0,0.0,0.0,0.0,0.0,0.0,0.0,0.0,0.0,0.0,0.0,0.2335,0.2155,0.0,0.0,0.0,0.0,0.0,0.0,0.0,0.0,0.0,0.0,0.0,0.0,0.0,0.0,0.0,0.0,0.0,0.0,0.0,0.0,-0.0062,-0.0986,-0.2524,-0.2647,-0.4387,-0.7192,-0.8783,-0.9337,-0.9169,-0.8815,-0.8699,-0.8679,-0.8537,-0.8574,-0.8699,-0.8706,-0.871,-0.871,-0.8693,-0.8401,-0.7971,-0.7851,-0.7801,0.0,0.0,-0.7916,-0.7978,-0.7988,-0.7988,-0.7988,-0.7988,-0.7995,-0.7998,-0.7992,-0.7995,-0.7995,-0.7982,-0.7985,-0.7938,-0.7818,0.0,-0.7753,-0.7611,-0.7716,-0.7811,-0.7811,-0.7894,-0.7988,-0.7988,-0.7988,-0.7977,-0.7921,-0.8757,-0.9271,-0.921,-1.0172,-1.0707,-1.0697,-1.1772,-1.237,-1.237,-1.3188,0.0,0.0,0.0,0.0,0.0,0.0,0.0,0.0,0.0,0.0,0.0,0.0,0.0,0.0,0.0,0.0,0.0,0.0,0.0,0.0,0.0,0.0,0.0,0.0,0.0,0.0,0.0,0.0,0.5247,0.342,0.0,0.165,0.0612,0.0,0.0,0.0,0.0,0.0,0.0,0.0,0.0,0.0,0.0,0.0,0.0,0.0,0.0,0.0,0.0,0.0,0.0,-0.0308,-0.0924,-0.2011,-0.3684,-0.5689,-0.7172,-0.8337,-0.919,-0.8933,-0.8804,-0.8797,-0.8798,-0.8747,-0.871,-0.871,-0.8645,-0.855,-0.8459,-0.8252,-0.7978,-0.7924,-0.7911,-0.7911,-0.7911,-0.7948,-0.7988,-0.7988,-0.7988,-0.7988,-0.7988,-0.7988,-0.7988,-0.7988,-0.7988,-0.7988,-0.7988,-0.7988,-0.7941,-0.7838,-0.7892,-0.786,-0.7756,-0.7862,-0.7911,-0.7911,-0.7958,-0.7988,-0.7988,-0.7988,-0.7891,-0.7695,-0.7998,-0.8083,-0.7808,-0.8876,-0.9492,-0.9492,-1.1295,-1.2285,-1.2285,-1.3147,-1.3513,0.0,0.0,0.0,0.0,0.0,0.0,0.0,0.0,0.0,0.0,0.0,0.0,0.0,0.0,0.0,0.0,0.0,0.0,0.0,0.0,0.0,0.0,0.0,0.0,0.0,0.7725,0.7079,0.689,0.5044,0.3435,0.2593,0.149,0.0581,0.0058,0.0,0.0,0.0,0.0,0.0,0.0,0.0,0.0,0.0,0.0,0.0,0.0,0.0,0.0,0.0,0.0,0.0,-0.0061,-0.115,-0.2511,-0.3953,-0.5481,-0.701,-0.8389,-0.8752,-0.8885,-0.8875,-0.8824,-0.8798,-0.8703,-0.8652,-0.8537,-0.8394,-0.835,-0.8167,-0.7988,-0.7988,-0.7988,-0.7988,-0.7988,-0.7988,-0.7988,-0.7988,-0.7988,-0.7988,-0.7988,-0.7988,-0.7988,-0.7988,-0.7988,-0.7988,-0.7988,-0.7988,-0.7958,-0.7906,-0.7924,-0.7955,-0.7902,-0.7924,-0.7988,-0.7988,-0.7988,-0.7988,-0.7988,-0.7988,-0.787,-0.7624,-0.76,-0.7468,-0.7115,-0.7841,-0.8277,-0.8277,-1.0135,-1.1166,-1.1166,-1.2003,-1.238,-1.2202,0.0,0.0,0.0,0.0,0.0,0.0,0.0,0.0,0.0,0.0,0.0,0.0,0.0,0.0,0.0,0.0,0.0,0.0,0.0,0.0,0.0,0.0,0.0,0.8469,0.8621,0.8279,0.7133,0.6914,0.5785,0.2928,0.2564,0.1836,0.0181,0.0,0.0,0.0,0.0,0.0,0.0,0.0,0.0,0.0,0.0,0.0,0.0,0.0,0.0,0.0,0.0,0.0,0.0,0.0,-0.0828,-0.2293,-0.3832,-0.5322,-0.6758,-0.8322,-0.8885,-0.8865,-0.8767,-0.8706,-0.8676,-0.852,-0.8377,-0.8313,-0.8313,-0.8163,-0.7988,-0.7988,-0.7988,-0.7988,-0.7988,-0.7988,-0.7988,-0.7988,-0.7988,-0.7988,-0.7988,-0.7988,-0.7988,-0.7988,-0.7988,-0.7988,-0.7988,-0.7988,-0.7988,-0.7988,-0.7988,-0.7988,-0.7988,-0.7988,0.0,-0.7988,-0.7988,-0.7988,-0.7988,-0.7988,-0.7874,-0.7631,-0.76,-0.7472,-0.7122,-0.7098,-0.7095,-0.7095,-0.8277,-0.8934,-0.8934,-0.9767,-1.0198,-1.0198,0.0,0.0,0.0,0.0,0.0,0.0,0.0,0.0,0.0,0.0,0.0,0.0,0.0,0.0,0.0,0.0,0.0,0.0,0.0,0.0,0.0,0.8319,0.8604,0.8642,0.8777,0.8801,0.8705,0.7744,0.6781,0.6133,0.3873,0.2314,0.1836,0.0674,0.0,0.0,0.0,0.0,0.0,0.0,0.0,0.0,0.0,0.0,0.0,0.0,0.0,0.0,0.0,0.0,0.0,0.0,-0.0825,-0.2212,-0.267,-0.3758,-0.5363,-0.7931,-0.8885,-0.8865,-0.8767,-0.8574,-0.837,-0.8214,-0.8136,-0.8102,-0.8102,-0.8025,-0.7988,-0.7988,-0.7988,-0.7988,-0.7988,-0.7988,-0.7988,-0.7988,-0.7988,-0.7988,-0.7988,-0.7988,-0.7988,-0.7988,-0.7988,-0.7988,-0.7988,-0.7988,-0.7988,-0.7988,-0.7988,-0.7988,-0.7988,-0.7988,-0.7988,-0.7988,-0.7988,-0.7988,-0.7988,-0.7988,-0.7914,-0.777,-0.7658,-0.7516,-0.7319,-0.7204,-0.7095,-0.7095,-0.8277,-0.9279,-1.0139,-1.0186,-1.0198,0.0,0.0,0.0,0.0,0.0,0.0,0.0,0.0,0.0,0.0,0.0,0.0,0.0,0.0,0.0,0.0,0.0,0.0,0.0,0.0,0.0,0.0,0.8499,0.8733,0.8798,0.8933,0.9117,0.9354,0.8679,0.7968,0.7472,0.5647,0.3995,0.2585,0.1602,0.074,0.0062,0.0,0.0,0.0,0.0,0.0,0.0,0.0,0.0,0.0,0.0,0.0,0.0,0.0,0.0,0.0,0.0,-0.0467,-0.1323,-0.1973,-0.2738,-0.3855,0.0,0.0,0.0,0.0,-0.8428,-0.816,-0.8022,-0.7988,-0.7988,-0.7988,-0.7988,-0.7988,-0.7988,-0.7988,-0.7988,-0.7988,-0.7988,-0.7988,-0.7988,-0.7988,-0.7988,-0.7988,-0.7988,-0.7988,-0.7988,-0.7988,-0.7988,-0.7988,-0.7988,0.0,-0.7988,-0.7988,-0.7988,-0.7988,-0.7988,-0.7988,-0.7988,-0.7988,-0.7965,-0.7901,-0.7951,-0.7877,-0.7651,-0.7611,0.0,0.0,0.0,-0.7095,-0.7095,-0.7753,0.0,0.0,0.0,0.0,0.0,-0.8888,0.0,0.0,-0.9966,-1.0555,0.0,0.0,0.0,0.0,0.0,0.0,0.0,0.0,0.0,0.0,0.0,0.0,0.0,0.0,0.0,0.0,0.8648,0.8808,0.8944,0.9103,0.9306,0.9367,0.953,0.9134,0.7781,0.7482,0.6137,0.3015,0.2585,0.1787,0.0062,0.0,0.0,0.0,0.0,0.0,0.0,0.0,0.0,0.0,0.0,0.0,0.0,0.0,0.0,0.0,0.0,0.0,-0.0112,-0.14,-0.2068,-0.2458,-0.5349,-0.6508,-0.6801,-0.7865,-0.8125,-0.7988,-0.7988,0.0,0.0,-0.7988,-0.7988,-0.7988,-0.7988,-0.7988,-0.7988,-0.7988,-0.7988,-0.7988,-0.7988,-0.7988,-0.7985,-0.7968,-0.7965,-0.7961,-0.7944,-0.7941,-0.7941,-0.7941,-0.7941,-0.7941,-0.7941,-0.7968,-0.7988,-0.7988,-0.7975,-0.7965,-0.7965,-0.7948,-0.7887,-0.7801,-0.786,0.0,-0.7431,-0.7506,-0.7458,-0.7139,-0.7105,-0.7095,-0.7095,-0.7095,-0.7095,-0.7095,-0.7095,-0.7095,-0.7095,-0.7095,-0.7095,-0.7139,-0.9222,-1.0221,0.0,0.0,0.0,0.0,0.0,0.0,0.0,0.0,0.0,0.0,0.0,0.0,0.0,0.0,0.0,0.8635,0.8893,0.9135,0.9163,0.9347,0.9486,0.9391,0.9618,0.9667,0.9387,0.8158,0.6564,0.461,0.326,0.1787,0.0062,0.0,0.0,0.0,0.0,0.0,0.0,0.0,0.0,0.0,0.0,0.0,0.0,0.0,0.0,0.0,0.0,0.0,0.0,-0.0282,-0.1119,-0.2399,-0.4236,-0.5532,-0.6406,-0.6638,-0.7265,-0.7988,-0.7988,-0.7988,-0.7988,-0.7988,-0.7988,-0.7988,-0.7988,-0.7988,0.0,-0.7988,-0.7988,-0.7988,-0.7988,-0.7988,-0.7958,-0.7885,-0.7855,-0.7824,-0.7709,-0.7685,-0.7685,-0.7685,-0.7685,-0.7685,-0.7685,-0.7882,-0.7988,-0.7988,-0.7884,-0.7855,-0.7855,-0.7753,-0.7675,-0.7645,-0.7665,-0.7648,-0.7563,-0.7468,-0.739,-0.7329,-0.721,-0.7095,-0.7095,-0.7095,-0.7095,-0.7095,-0.7095,-0.7095,-0.7095,-0.7095,-0.7095,-0.7095,-0.7573,-0.7793,0.0,0.0,0.0,0.0,0.0,0.0,0.0,0.0,0.0,0.0,0.0,0.8133,0.8383,0.0,0.8784,0.9008,0.9171,0.9323,0.9323,0.9466,0.9581,0.9503,0.969,0.9822,0.9822,0.9079,0.7548,0.51,0.418,0.2647,0.0123,0.0,0.0,0.0,0.0,0.0,0.0,0.0,0.0,0.0,0.0,0.0,0.0,0.0,0.0,0.0,0.0,0.0,0.0,0.0,-0.0446,-0.116,-0.1953,-0.3477,-0.5235,-0.5246,-0.5969,-0.6983,-0.6983,-0.7437,-0.7889,-0.7235,-0.7434,-0.7889,-0.7185,-0.7484,-0.7988,-0.7988,-0.7988,-0.7988,-0.7988,-0.7483,-0.6969,-0.69,-0.6831,-0.6765,-0.6703,-0.7167,-0.76,-0.76,-0.76,-0.76,-0.76,-0.7723,-0.7821,-0.7821,-0.7753,-0.7706,-0.7706,-0.7645,-0.757,-0.7495,-0.7553,-0.7539,-0.7383,-0.7299,-0.7255,-0.7255,-0.7139,-0.7095,-0.7095,-0.7095,-0.7095,-0.7095,-0.7095,-0.7095,-0.7095,-0.7095,-0.7095,-0.7095,-0.7095,-0.7095,0.0,0.0,0.0,0.0,0.0,0.0,0.0,0.7818,0.7943,0.8046,0.8272,0.8513,0.8817,0.8932,0.9103,0.9344,0.9405,0.9425,0.9425,0.9554,0.9649,0.9649,0.9751,0.9822,0.9822,0.9822,0.8407,0.5161,0.4916,0.3445,0.0185,0.0,0.0,0.0,0.0,0.0,0.0,0.0,0.0,0.0,0.0,0.0,0.0,0.0,0.0,0.0,0.0,0.0,0.0,0.0,0.0,0.0,0.0,-0.1376,-0.3425,-0.3672,-0.4529,-0.5627,-0.5627,-0.6329,-0.703,-0.5977,-0.6329,-0.703,-0.5927,-0.6376,-0.7232,-0.7232,-0.7232,-0.7232,-0.7232,-0.6405,-0.5586,-0.5594,-0.5661,-0.5675,-0.5445,-0.6331,-0.718,-0.718,-0.718,-0.723,-0.7462,-0.7509,-0.7529,-0.759,-0.7577,-0.7556,-0.7556,-0.7529,-0.7465,-0.7339,-0.7438,-0.7411,-0.7115,-0.7095,-0.7095,-0.7095,-0.7095,-0.7095,-0.7095,-0.7095,-0.7095,-0.7095,-0.7095,-0.7095,-0.7095,-0.7095,-0.7095,-0.7095,-0.7095,-0.7095,1.2855,1.15,1.0187,0.9317,0.9098,0.8961,0.0,0.8258,0.8258,0.8401,0.8662,0.8824,0.8875,0.9154,0.9344,0.9374,0.9496,0.9585,0.9585,0.9707,0.9798,0.9798,0.9812,0.9822,0.9822,0.9822,0.8407,0.5161,0.4916,0.3445,0.0185,0.0,0.0,0.0,0.0,0.0,0.0,0.0,0.0,0.0,0.0,0.0,0.0,0.0,0.0,0.0,0.0,0.0,0.0,0.0,0.0,0.0,0.0,-0.0208,-0.0623,-0.183,-0.3071,-0.4218,-0.4218,-0.4316,-0.4416,-0.4266,-0.4316,-0.4416,-0.4266,-0.4316,-0.4468,-0.4468,-0.4468,-0.4468,-0.4468,-0.436,-0.4219,-0.408,-0.4845,-0.5305,-0.4121,-0.4811,-0.5665,-0.5665,-0.5665,-0.5981,-0.6968,-0.7146,-0.724,-0.756,-0.7485,-0.7443,-0.7443,-0.7278,-0.7139,-0.7125,-0.7136,-0.7132,-0.7098,-0.7095,-0.7095,-0.7095,-0.7095,-0.7095,-0.7095,-0.7095,-0.7095,-0.7095,-0.7095,-0.7095,-0.7095,-0.7095,-0.7095,-0.7095,-0.7095,-0.7095,1.2843,1.2277,1.1579,0.9763,0.9506,0.947,0.8509,0.8385,0.8435,0.8584,0.8852,0.9089,0.9181,0.9371,0.954,0.9625,0.969,0.9734,0.9734,0.9785,0.9822,0.9822,0.9822,0.9822,0.9822,0.9822,0.8836,0.6505,0.5466,0.3873,0.1602,0.0555,0.0,0.0,0.0,0.0,0.0,0.0,0.0,0.0,0.0,0.0,0.0,0.0,0.0,0.0,0.0,0.0,0.0,0.0,0.0,0.0,0.0,0.0,-0.0051,-0.0607,-0.1661,-0.2815,-0.2815,-0.3366,-0.3865,-0.3115,-0.3364,-0.3865,-0.3065,-0.3366,-0.4016,-0.4016,-0.4016,-0.4016,-0.4016,-0.341,-0.2812,-0.2767,-0.308,-0.3238,-0.2691,-0.3482,-0.4374,-0.4374,-0.4374,-0.473,-0.5891,-0.6115,-0.6376,-0.7176,-0.7278,-0.7238,-0.7238,-0.7136,-0.7095,-0.7095,-0.7095,-0.7095,-0.7095,-0.7095,-0.7095,-0.7095,-0.7095,-0.7095,-0.7095,-0.7095,-0.7095,-0.7095,-0.7095,-0.7095,-0.7095,-0.7095,-0.7095,-0.7095,-0.7095,-0.7095,1.2703,1.2622,1.2304,0.9952,0.9661,0.9652,0.8537,0.8414,0.8577,0.8686,0.8947,0.9258,0.9354,0.9507,0.9656,0.9798,0.9822,0.9822,0.9822,0.9822,0.9822,0.9822,0.9822,0.9822,0.9822,0.9822,0.9143,0.7543,0.5833,0.4182,0.2585,0.0925,0.0,0.0,0.0,0.0,0.0,0.0,0.0,0.0,0.0,0.0,0.0,0.0,0.0,0.0,0.0,0.0,0.0,0.0,0.0,0.0,0.0,0.0,0.0,0.0,-0.0605,-0.1461,-0.1461,-0.2063,-0.2715,-0.1762,-0.2113,-0.2715,-0.1762,-0.2106,-0.2892,-0.2892,-0.2892,-0.2888,-0.2874,-0.2193,-0.1436,-0.1467,-0.1616,-0.1713,-0.139,-0.2236,-0.3126,-0.3126,-0.3126,-0.3482,-0.4688,-0.491,-0.5312,-0.647,-0.665,-0.6738,-0.7051,-0.7095,-0.7095,-0.7095,-0.7095,-0.7095,-0.7095,-0.7095,-0.7095,-0.7095,-0.7095,-0.7095,-0.7095,-0.7095,-0.7095,-0.7095,-0.7095,-0.7095,-0.7095,-0.7095,-0.7095,-0.7095,-0.7095,-0.7095,1.2941,1.2595,1.2092,1.0043,0.966,0.9549,0.8537,0.8496,0.8706,0.871,0.8947,0.9258,0.9354,0.9507,0.9656,0.9798,0.9822,0.9822,0.9822,0.9822,0.9822,0.9822,0.9822,0.9822,0.9822,0.9822,0.9143,0.7543,0.5833,0.4182,0.2585,0.0925,0.0,0.0,0.0,0.0,0.0,0.0,0.0,0.0,0.0,0.0,0.0,0.0,0.0,0.0,0.0,0.0,0.0,0.0,0.0,0.0,0.0,0.0,0.0,0.0,-0.0051,-0.005,-0.005,-0.0101,-0.0101,-0.005,-0.0101,-0.0101,-0.005,-0.01,-0.0098,-0.0098,-0.0098,-0.0098,-0.0144,-0.0097,-0.0049,-0.0047,-0.097,-0.1469,-0.0316,-0.0986,-0.1835,-0.1835,-0.1835,-0.2236,-0.3436,-0.3659,-0.4061,-0.5267,-0.5447,-0.5849,-0.6962,-0.7095,-0.7095,-0.7095,-0.7095,-0.7095,-0.7095,-0.7095,-0.7095,-0.7095,-0.7095,-0.7095,-0.7095,-0.7095,-0.7095,-0.7095,-0.7095,-0.7095,-0.7095,-0.7095,-0.7095,-0.7095,-0.7095,-0.7095,1.268,1.2176,1.1375,0.9893,0.9713,0.9652,0.8537,0.8421,0.8587,0.8689,0.8947,0.9224,0.9275,0.9439,0.9625,0.9673,0.9758,0.9822,0.9822,0.9822,0.9822,0.9822,0.9822,0.9822,0.9822,0.9822,0.9576,0.9019,0.6446,0.4671,0.4119,0.1479,0.0,0.0,0.0,0.0,0.0,0.0,0.0,0.0,0.0,0.0,0.0,0.0,0.0,0.0,0.0,0.0,0.0,0.0,0.0,0.0,0.0,0.0,0.0,0.0,0.0,0.0,0.0,0.0,0.0,0.0,0.0,0.0,0.0,0.0,0.0,0.0,0.0,0.0,0.0,0.0,0.0,0.0,-0.032,-0.0498,-0.009,-0.0314,-0.0583,-0.0583,-0.0583,-0.0986,-0.2191,-0.2413,-0.3083,-0.509,-0.6027,-0.665,-0.7051,-0.7095,-0.7095,-0.7095,-0.7095,-0.7095,-0.7095,-0.7095,-0.7095,-0.7095,-0.7095,-0.7095,-0.7095,-0.7095,-0.7095,-0.7095,-0.7095,-0.7095,-0.7095,-0.7095,-0.7095,-0.7095,-0.7095,-0.7095,1.1497,1.097,1.0315,0.92,0.9088,0.9099,0.8365,0.8303,0.8435,0.8533,0.8788,0.9011,0.9066,0.9279,0.9483,0.9591,0.9686,0.9764,0.9815,0.9822,0.9822,0.9822,0.9822,0.9822,0.9822,0.9822,0.9822,0.9822,0.7301,0.5527,0.4916,0.234,0.0617,0.0,0.0,0.0,0.0,0.0,0.0,0.0,0.0,0.0,0.0,0.0,0.0,0.0,0.0,0.0,0.0,0.0,0.0,0.0,0.0,0.0,0.0,0.0,0.0,0.0,0.0,0.0,0.0,0.0,0.0,0.0,0.0,0.0,0.0,0.0,0.0,0.0,0.0,0.0,0.0,0.0,0.0,0.0,0.0,0.0,0.0,0.0,0.0,-0.0225,-0.1031,-0.1879,-0.3127,-0.509,-0.6384,-0.7095,-0.7095,-0.7095,-0.7095,-0.7095,-0.7095,-0.7095,-0.7095,-0.7095,-0.7095,-0.7095,-0.7095,-0.7095,-0.7095,-0.7095,-0.7095,-0.7095,-0.7095,-0.7095,-0.7095,-0.7095,-0.7095,-0.7095,-0.7095,-0.7095,0.9678,0.9154,0.8972,0.8058,0.7877,0.7988,0.7988,0.816,0.8323,0.8323,0.8506,0.8754,0.8844,0.9055,0.9316,0.9551,0.9612,0.9666,0.9802,0.9822,0.9822,0.9822,0.9822,0.9822,0.9822,0.9822,0.9822,0.9822,0.8279,0.6689,0.4977,0.3383,0.1725,0.0062,0.0,0.0,0.0,0.0,0.0,0.0,0.0,0.0,0.0,0.0,0.0,0.0,0.0,0.0,0.0,0.0,0.0,0.0,0.0,0.0,0.0,0.0,0.0,0.0,0.0,0.0,0.0,0.0,0.0,0.0,0.0,0.0,0.0,0.0,0.0,0.0,0.0,0.0,0.0,0.0,0.0,0.0,0.0,0.0,0.0,0.0,-0.0045,-0.009,-0.009,-0.2102,-0.4061,-0.5223,-0.6384,-0.7095,-0.7095,-0.7095,-0.7095,-0.7095,-0.7095,-0.7095,-0.7095,-0.7095,-0.7095,-0.7095,-0.7095,-0.7095,-0.7095,-0.7095,-0.7095,-0.7095,-0.7095,-0.7095,-0.7095,-0.7095,-0.7095,-0.7095,-0.7095,-0.7095,0.9459,0.857,0.8005,0.7822,0.7877,0.7988,0.7988,0.816,0.8323,0.8323,0.8506,0.8723,0.876,0.9072,0.9347,0.9425,0.9625,0.9781,0.9815,0.9822,0.9822,0.9822,0.9822,0.9822,0.9822,0.9822,0.9822,0.9822,0.8279,0.6689,0.4977,0.3383,0.1725,0.0062,0.0,0.0,0.0,0.0,0.0,0.0,0.0,0.0,0.0,0.0,0.0,0.0,0.0,0.0,0.0,0.0,0.0,0.0,0.0,0.0,0.0,0.0,0.0,0.0,0.0,0.0,0.0,0.0,0.0,0.0,0.0,0.0,0.0,0.0,0.0,0.0,0.0,0.0,0.0,0.0,0.0,0.0,0.0,0.0,0.0,0.0,-0.0718,-0.1344,-0.1344,-0.3352,-0.5045,-0.5359,-0.6384,-0.7095,-0.7095,-0.7095,-0.7095,-0.7095,-0.7095,-0.7095,-0.7095,-0.7095,-0.7095,-0.7095,-0.7095,-0.7095,-0.7095,-0.7095,-0.7095,-0.7095,-0.7095,-0.7095,-0.7095,-0.7095,-0.7095,-0.7095,-0.7095,-0.7095,0.854,0.7925,0.7617,0.7699,0.7879,0.7988,0.7988,0.8106,0.817,0.817,0.8404,0.8611,0.8611,0.8977,0.9361,0.9371,0.9578,0.9751,0.9812,0.9822,0.9822,0.9822,0.9822,0.9822,0.9822,0.9822,0.9822,0.9822,0.8958,0.7426,0.5039,0.4057,0.2462,0.0062,0.0,0.0,0.0,0.0,0.0,0.0,0.0,0.0,0.0,0.0,0.0,0.0,0.0,0.0,0.0,0.0,0.0,0.0,0.0,0.0,0.0,0.0,0.0,0.0,0.0,0.0,0.0,0.0,0.0,0.0,0.0,0.0,0.0,0.0,0.0,0.0,0.0,0.0,0.0,0.0,0.0,0.0,0.0,0.0,0.0,0.0,-0.0539,-0.1344,-0.2413,-0.3707,-0.4954,-0.5983,-0.6694,-0.7095,-0.7095,-0.7095,-0.7095,-0.7095,-0.7095,-0.7095,-0.7095,-0.7095,-0.7095,-0.7095,-0.7095,-0.7095,-0.7095,-0.7095,-0.7095,-0.7095,-0.7095,-0.7095,-0.7095,-0.7095,-0.7095,-0.7095,-0.7095,-0.7095,0.754,0.7397,0.7604,0.7624,0.7834,0.7988,0.7988,0.7988,0.7988,0.7988,0.8275,0.8482,0.8482,0.8903,0.9262,0.9357,0.951,0.9659,0.9802,0.9822,0.9822,0.9822,0.9822,0.9822,0.9822,0.9822,0.9822,0.9822,0.9822,0.8346,0.51,0.4916,0.3383,0.0123,0.0,0.0,0.0,0.0,0.0,0.0,0.0,0.0,0.0,0.0,0.0,0.0,0.0,0.0,0.0,0.0,0.0,0.0,0.0,0.0,0.0,0.0,0.0,0.0,0.0,0.0,0.0,0.0,0.0,0.0,0.0,0.0,0.0,0.0,0.0,0.0,0.0,0.0,0.0,0.0,0.0,0.0,0.0,0.0,0.0,0.0,-0.0135,-0.0897,-0.2992,-0.3614,-0.455,-0.6558,-0.7007,-0.7095,-0.7095,-0.7095,-0.7095,-0.7095,-0.7095,-0.7095,-0.7095,-0.7095,-0.7095,-0.7095,-0.7095,-0.7095,-0.7095,-0.7095,-0.7095,-0.7095,-0.7095,-0.7095,-0.7095,-0.7095,-0.7095,-0.7095,-0.7095,-0.7095,0.7809,0.756,0.7628,0.7746,0.7909,0.7988,0.7988,0.7988,0.7988,0.7988,0.8275,0.8482,0.8482,0.8903,0.9262,0.9357,0.951,0.9659,0.9802,0.9822,0.9822,0.9822,0.9822,0.9822,0.9822,0.9822,0.9822,0.9822,0.9822,0.8346,0.51,0.4916,0.3383,0.0123,0.0,0.0,0.0,0.0,0.0,0.0,0.0,0.0,0.0,0.0,0.0,0.0,0.0,0.0,0.0,0.0,0.0,0.0,0.0,0.0,0.0,0.0,0.0,0.0,0.0,0.0,0.0,0.0,0.0,0.0,0.0,0.0,0.0,0.0,0.0,0.0,0.0,0.0,0.0,0.0,0.0,0.0,0.0,0.0,0.0,0.0,-0.0807,-0.1612,-0.2057,-0.3751,-0.5223,-0.5625,-0.6517,-0.7095,-0.7095,-0.7095,-0.7095,-0.7095,-0.7095,-0.7095,-0.7095,-0.7095,-0.7095,-0.7095,-0.7095,-0.7095,-0.7095,-0.7095,-0.7095,-0.7095,-0.7095,-0.7095,-0.7095,-0.7095,-0.7095,-0.7095,-0.7095,-0.7095,0.7738,0.7655,0.7726,0.7794,0.7877,0.7988,0.7988,0.7988,0.7988,0.7988,0.8275,0.8482,0.8482,0.8903,0.9234,0.9309,0.9391,0.9544,0.969,0.971,0.9737,0.9812,0.9822,0.9822,0.9822,0.9822,0.9822,0.9822,0.9751,0.8645,0.632,0.5345,0.3372,0.0122,0.0847,0.09,0.0,0.0,0.0,0.0,0.0,0.0,0.0,0.0,0.0,0.0,0.0,0.0,0.0,0.0,0.0,0.0,0.0,0.0,0.0,0.0,0.0,0.0,0.0,0.0,0.0,0.0,0.0,0.0,0.0,0.0,0.0,0.0,0.0,0.0,0.0,0.0,0.0,0.0,0.0,0.0,0.0,0.0,0.0,0.0,-0.0449,-0.1076,-0.17,-0.2772,-0.3976,-0.5225,-0.5849,-0.6428,-0.7007,-0.7095,-0.7095,-0.7095,-0.7095,-0.7095,-0.7095,-0.7095,-0.7095,-0.7095,-0.7095,-0.7095,-0.7095,-0.7095,-0.7095,-0.7095,-0.7095,-0.7095,-0.7095,-0.7095,-0.7095,-0.7095,-0.7095,-0.7095,0.7716,0.775,0.7818,0.7851,0.7901,0.7988,0.7988,0.7988,0.7988,0.7988,0.8275,0.8482,0.8482,0.8825,0.9173,0.9204,0.934,0.9435,0.9588,0.9635,0.9696,0.9805,0.9822,0.9822,0.9822,0.9822,0.9808,0.9778,0.9642,0.8885,0.7344,0.5716,0.3452,0.054,0.1731,0.1658,0.0,0.0,0.0,0.0,0.0,0.0,0.0,0.0,0.0,0.0,0.0,0.0,0.0,0.0,0.0,0.0,0.0,0.0,0.0,0.0,0.0,0.0,0.0,0.0,0.0,0.0,0.0,0.0,0.0,0.0,0.0,0.0,0.0,0.0,0.0,0.0,0.0,0.0,0.0,0.0,0.0,0.0,0.0,0.0,0.0,-0.0314,-0.1254,-0.1612,-0.2459,-0.4332,-0.4868,-0.5445,-0.6605,-0.6738,-0.6827,-0.7095,-0.7095,-0.7095,-0.7095,-0.7095,-0.7095,-0.7095,-0.7095,-0.7095,-0.7095,-0.7095,-0.7095,-0.7095,-0.7095,-0.7095,-0.7095,-0.7095,-0.7095,-0.7095,-0.7095,-0.7095,0.7917,0.786,0.7845,0.7934,0.7978,0.7988,0.7988,0.7988,0.7988,0.7988,0.8275,0.8482,0.8482,0.8743,0.9001,0.9187,0.934,0.9435,0.9588,0.972,0.9805,0.9819,0.9822,0.9822,0.9822,0.9822,0.9768,0.9639,0.949,0.87,0.7059,0.5412,0.3767,0.2061,0.2147,0.1497,0.0,0.0,0.0,0.0,0.0,0.0,0.0,0.0,0.0,0.0,0.0,0.0,0.0,0.0,0.0,0.0,0.0,0.0,0.0,0.0,0.0,0.0,0.0,0.0,0.0,0.0,0.0,0.0,0.0,0.0,0.0,0.0,0.0,0.0,0.0,0.0,0.0,0.0,0.0,0.0,0.0,0.0,0.0,0.0,0.0,-0.0045,-0.0135,-0.1076,-0.1879,-0.2103,-0.3081,-0.4194,-0.5403,-0.5536,-0.5935,-0.7007,-0.7095,-0.7095,-0.7095,-0.7095,-0.7095,-0.7095,-0.7095,-0.7095,-0.7095,-0.7095,-0.7095,-0.7095,-0.7095,-0.7095,-0.7095,-0.7095,-0.7095,-0.7095,-0.7095,-0.7095,0.7975,0.7944,0.7914,0.7975,0.7988,0.7988,0.7988,0.7988,0.7988,0.7988,0.8275,0.8482,0.8482,0.873,0.8902,0.9015,0.9076,0.9198,0.9439,0.952,0.9622,0.9798,0.9822,0.9822,0.9822,0.9822,0.9724,0.949,0.9415,0.9012,0.815,0.7711,0.6241,0.3641,0.3676,0.2963,0.1356,0.045,0.0,0.0,0.0,0.0,0.0,0.0,0.0,0.0,0.0,0.0,0.0,0.0,0.0,0.0,0.0,0.0,0.0,0.0,0.0,0.0,0.0,0.0,0.0,0.0,0.0,0.0,0.0,0.0,0.0,0.0,0.0,0.0,0.0,0.0,0.0,0.0,0.0,0.0,0.0,0.0,0.0,0.0,0.0,0.0,0.0,-0.0404,-0.0941,-0.17,-0.2191,-0.2949,-0.415,-0.4954,-0.5581,-0.6027,-0.6694,-0.7095,-0.7095,-0.7095,-0.7095,-0.7095,-0.7095,-0.7095,-0.7095,-0.7095,-0.7095,-0.7095,-0.7011,-0.7011,-0.7095,-0.7011,-0.7014,-0.7095,-0.7095,-0.7095,0.7988,0.7988,0.7988,0.7988,0.7988,0.7988,0.7988,0.8025,0.8106,0.8106,0.8343,0.855,0.855,0.8764,0.8885,0.8885,0.8956,0.9144,0.9351,0.9456,0.9588,0.9795,0.9785,0.9774,0.9819,0.9781,0.9652,0.9401,0.934,0.9205,0.8898,0.9137,0.7989,0.5227,0.4828,0.3843,0.2235,0.0728,0.0,0.0,0.0,0.0,0.0,0.0,0.0,0.0,0.0,0.0,0.0,0.0,0.0,0.0,0.0,0.0,0.0,0.0,0.0,0.0,0.0,0.0,0.0,0.0,0.0,0.0,0.0,0.0,0.0,0.0,0.0,0.0,0.0,0.0,0.0,0.0,0.0,0.0,0.0,0.0,0.0,0.0,0.0,0.0,0.0,0.0,-0.0269,-0.1121,-0.1254,-0.1701,-0.2903,-0.3796,-0.4465,-0.4821,-0.5578,-0.6334,-0.7051,-0.7095,-0.7095,-0.7095,-0.7095,-0.7095,-0.7095,-0.7095,-0.7095,-0.7095,-0.6997,-0.6997,-0.7095,-0.6997,-0.7001,-0.7095,-0.7095,-0.7095,0.7988,0.7988,0.7988,0.7988,0.7988,0.7988,0.7988,0.816,0.832,0.832,0.8503,0.871,0.871,0.8835,0.8885,0.8885,0.9184,0.9378,0.9381,0.9632,0.9819,0.9822,0.9696,0.9666,0.9805,0.9693,0.9547,0.9395,0.9299,0.9093,0.8892,0.8888,0.8214,0.6702,0.5252,0.3744,0.2235,0.0728,0.0,0.0,0.0,0.0,0.0,0.0,0.0,0.0,0.0,0.0,0.0,0.0,0.0,0.0,0.0,0.0,0.0,0.0,0.0,0.0,0.0,0.0,0.0,0.0,0.0,0.0,0.0,0.0,0.0,0.0,0.0,0.0,0.0,0.0,0.0,0.0,0.0,0.0,0.0,0.0,0.0,0.0,0.0,0.0,0.0,0.0,0.0,0.0,0.0,-0.0449,-0.1657,-0.1835,-0.2281,-0.3481,-0.3614,-0.4594,-0.6918,-0.7095,-0.7095,-0.7095,-0.7095,-0.7095,-0.7095,-0.7095,-0.7095,-0.7095,-0.7095,-0.7095,-0.7095,-0.7095,-0.7095,-0.7095,-0.7095,-0.7095,0.7988,0.7988,0.7988,0.7988,0.7988,0.8019,0.8174,0.8235,0.835,0.8394,0.8574,0.871,0.871,0.8835,0.8971,0.9069,0.9221,0.93,0.9507,0.9618,0.9676,0.9676,0.9639,0.9588,0.9527,0.9574,0.9503,0.9303,0.9238,0.9089,0.8892,0.8885,0.866,0.8211,0.6758,0.5306,0.3799,0.2236,0.1008,0.0,0.0,0.0,0.0,0.0,0.0,0.0,0.0,0.0,0.0,0.0,0.0,0.0,0.0,0.0,0.0,0.0,0.0,0.0,0.0,0.0,0.0,0.0,0.0,0.0,0.0,0.0,0.0,0.0,0.0,0.0,0.0,0.0,0.0,0.0,0.0,0.0,0.0,0.0,0.0,0.0,0.0,0.0,0.0,0.0,0.0,0.0,0.0,-0.0135,-0.0539,-0.1299,-0.1969,-0.2325,-0.3126,-0.3881,-0.4639,-0.4727,-0.4727,-0.4727,-0.4727,-0.5085,-0.5894,-0.5938,-0.5938,-0.5938,-0.5807,-0.5408,-0.4727,-0.4551,-0.4994,-0.5941,-0.5943,-0.634,0.7889,0.7988,0.7988,0.7988,0.7988,0.8029,0.8235,0.8364,0.8391,0.8537,0.8689,0.8798,0.8798,0.8817,0.8967,0.9059,0.9173,0.9296,0.949,0.9571,0.9588,0.953,0.9523,0.9462,0.931,0.9435,0.9418,0.9228,0.921,0.9089,0.8892,0.8885,0.8885,0.8885,0.7482,0.6255,0.5361,0.3276,0.1718,0.0832,0.0273,0.0,0.0,0.0,0.0,0.0,0.0,0.0,0.0,0.0,0.0,0.0,0.0,0.0,0.0,0.0,0.0,0.0,0.0,0.0,0.0,0.0,0.0,0.0,0.0,0.0,0.0,0.0,0.0,0.0,0.0,0.0,0.0,0.0,0.0,0.0,0.0,0.0,0.0,0.0,0.0,0.0,0.0,0.0,0.0,0.0,0.0,0.0,0.0,-0.0673,-0.1121,-0.1121,-0.179,-0.2236,-0.2236,-0.3081,-0.3614,-0.3614,-0.3614,-0.3927,-0.4688,-0.4732,-0.4732,-0.4732,-0.4581,-0.4212,-0.3619,-0.3481,-0.3859,-0.4727,-0.4703,-0.5087,0.0,0.7939,0.7988,0.7988,0.7988,0.8029,0.8235,0.8374,0.0,0.8662,0.8815,0.8868,0.8868,0.8875,0.8888,0.8898,0.9066,0.9262,0.9361,0.9493,0.9523,0.9381,0.9364,0.9306,0.921,0.9276,0.9303,0.9207,0.9193,0.9079,0.8892,0.8885,0.8878,0.8868,0.7581,0.68,0.6689,0.39,0.2399,0.2178,0.0804,0.0106,0.0,0.0,0.0,0.0,0.0,0.0,0.0,0.0,0.0,0.0,0.0,0.0,0.0,0.0,0.0,0.0,0.0,0.0,0.0,0.0,0.0,0.0,0.0,0.0,0.0,0.0,0.0,0.0,0.0,0.0,0.0,0.0,0.0,0.0,0.0,0.0,0.0,0.0,0.0,0.0,0.0,0.0,0.0,0.0,0.0,0.0,0.0,0.0,0.0,0.0,0.0,0.0,0.0,-0.2057,-0.3347,-0.3347,-0.3347,-0.3392,-0.3481,-0.3481,-0.3481,-0.3481,-0.3387,-0.3351,-0.3328,-0.3328,-0.3404,-0.3466,-0.3471,-0.352,0.6129,0.0,0.7988,0.7988,0.7988,0.8029,0.0,0.8347,0.836,0.8506,0.8659,0.8764,0.8764,0.8804,0.8974,0.9086,0.9187,0.9262,0.9361,0.931,0.9306,0.9268,0.9265,0.9147,0.9001,0.912,0.9147,0.8998,0.8988,0.8974,0.8885,0.8885,0.8828,0.8767,0.8435,0.7666,0.657,0.5834,0.4327,0.2032,0.1682,0.0989,0.0,0.0,0.0,0.0,0.0,0.0,0.0,0.0,0.0,0.0,0.0,0.0,0.0,0.0,0.0,0.0,0.0,0.0,0.0,0.0,0.0,0.0,0.0,0.0,0.0,0.0,0.0,0.0,0.0,0.0,0.0,0.0,0.0,0.0,0.0,0.0,0.0,0.0,0.0,0.0,0.0,0.0,0.0,0.0,0.0,0.0,0.0,0.0,0.0,0.0,0.0,0.0,0.0,-0.0539,-0.0852,-0.0852,-0.0852,-0.1254,-0.2191,-0.2236,-0.2236,-0.2236,-0.1323,-0.0866,-0.0847,-0.0847,-0.1315,-0.2213,-0.2208,-0.2727,0.487,0.657,0.8147,0.8147,0.8147,0.8184,0.8333,0.8371,0.8364,0.8452,0.855,0.8604,0.8604,0.873,0.8859,0.8937,0.9008,0.9106,0.9313,0.9262,0.921,0.921,0.9093,0.9025,0.8892,0.9008,0.9022,0.8888,0.8885,0.8854,0.8838,0.8832,0.8764,0.8611,0.8604,0.8228,0.7419,0.6719,0.5286,0.2988,0.2318,0.1279,0.0,0.0,0.0,0.0,0.0,0.0,0.0,0.0,0.0,0.0,0.0,0.0,0.0,0.0,0.0,0.0,0.0,0.0,0.0,0.0,0.0,0.0,0.0,0.0,0.0,0.0,0.0,0.0,0.0,0.0,0.0,0.0,0.0,0.0,0.0,0.0,0.0,0.0,0.0,0.0,0.0,0.0,0.0,0.0,0.0,0.0,0.0,0.0,0.0,0.0,0.0,0.0,0.0,0.0,0.0,0.0,0.0,-0.0314,-0.0941,-0.0986,-0.0986,-0.0986,-0.0352,0.0,0.0,0.0,-0.0338,-0.0981,-0.0993,-0.131,0.3981,0.5981,0.809,0.8275,0.8323,0.8354,0.8421,0.834,0.8269,0.8391,0.8431,0.8455,0.8479,0.8608,0.8716,0.8743,0.8801,0.8981,0.9103,0.9176,0.9176,0.9176,0.9015,0.8885,0.8885,0.8861,0.8848,0.8848,0.8828,0.8811,0.8682,0.8676,0.8608,0.8455,0.8452,0.8438,0.8414,0.7216,0.5875,0.4471,0.2988,0.1611,0.0303,0.0101,0.0,0.0,0.0,0.0,0.0,0.0,0.0,0.0,0.0,0.0,0.0,0.0,0.0,0.0,0.0,0.0,0.0,0.0,0.0,0.0,0.0,0.0,0.0,0.0,0.0,0.0,0.0,0.0,0.0,0.0,0.0,0.0,0.0,0.0,0.0,0.0,0.0,0.0,0.0,0.0,0.0,0.0,0.0,0.0,0.0,0.0,0.0,0.0,0.0,0.0,0.0,0.0,0.0,0.0,0.0,0.0,0.0,0.0,0.0,0.0,0.0,0.0,0.0,0.0,0.0,0.0,0.0,0.0,0.384,0.5467,0.6997,0.8039,0.8323,0.8327,0.835,0.8184,0.8029,0.8052,0.8211,0.834,0.8459,0.8608,0.8754,0.8828,0.8868,0.8892,0.8967,0.8971,0.8971,0.8971,0.8898,0.8885,0.8885,0.8821,0.8747,0.8747,0.8625,0.854,0.852,0.8516,0.8452,0.8357,0.8354,0.8241,0.8059,0.8008,0.7226,0.5701,0.4325,0.3015,0.1661,0.0504,0.0,0.0,0.0,0.0,0.0,0.0,0.0,0.0,0.0,0.0,0.0,0.0,0.0,0.0,0.0,0.0,0.0,0.0,0.0,0.0,0.0,0.0,0.0,0.0,0.0,0.0,0.0,0.0,0.0,0.0,0.0,0.0,0.0,0.0,0.0,0.0,0.0,0.0,0.0,0.0,0.0,0.0,0.0,0.0,0.0,0.0,0.0,0.0,0.0,0.0,0.0,0.0,0.0,0.0,0.0,0.0,0.0,0.0,0.0,0.0,0.0,0.0,0.0,0.0,0.0,0.0,0.0,0.0,0.3705,0.5203,0.6741,0.8066,0.8445,0.8509,0.8509,0.833,0.8163,0.8163,0.8153,0.8191,0.834,0.8486,0.8665,0.8844,0.8885,0.8885,0.8885,0.8885,0.8885,0.8885,0.8885,0.8851,0.8821,0.8754,0.8676,0.8594,0.8523,0.8448,0.837,0.8367,0.8299,0.815,0.8147,0.8113,0.7988,0.8109,0.74,0.5979,0.462,0.3316,0.1962,0.0605,0.0,0.0,0.0,0.0,0.0,0.0,0.0,0.0,0.0,0.0,0.0,0.0,0.0,0.0,0.0,0.0,0.0,0.0,0.0,0.0,0.0,0.0,0.0,0.0,0.0,0.0,0.0,0.0,0.0,0.0,0.0,0.0,0.0,0.0,0.0,0.0,0.0,0.0,0.0,0.0,0.0,0.0,0.0,0.0,0.0,0.0,0.0,0.0,0.0,0.0,0.0,0.0,0.0,0.0,0.0,0.0,0.0,0.0,0.0,0.0,0.0,0.0,0.0,0.0,0.0,0.0,0.0,0.0,0.3584,0.49,0.6218,0.8073,0.8547,0.8625,0.8696,0.8482,0.8323,0.8323,0.8177,0.813,0.8248,0.8414,0.8625,0.8841,0.8885,0.8885,0.8885,0.8885,0.8868,0.8834,0.8831,0.8825,0.8672,0.8628,0.856,0.8442,0.8397,0.8333,0.8221,0.8218,0.8163,0.7992,0.7988,0.7988,0.7988,0.7988,0.7484,0.6431,0.5122,0.3917,0.2865,0.1209,0.0454,0.0454,0.0151,0.0,0.0,0.0,0.0,0.0,0.0,0.0,0.0,0.0,0.0,0.0,0.0,0.0,0.0,0.0,0.0,0.0,0.0,0.0,0.0,0.0,0.0,0.0,0.0,0.0,0.0,0.0,0.0,0.0,0.0,0.0,0.0,0.0,0.0,0.0,0.0,0.0,0.0,0.0,0.0,0.0,0.0,0.0,0.0,0.0,0.0,0.0,0.0,0.0,0.0,0.0,0.0,0.0,0.0,0.0,0.0,0.0,0.0,0.0,0.0,0.0,0.0,0.0,0.0,0.0,0.3439,0.4281,0.5027,0.7808,0.8391,0.8374,0.8648,0.8482,0.8323,0.8323,0.8313,0.8258,0.832,0.8503,0.8747,0.8858,0.8885,0.8885,0.8885,0.8885,0.8831,0.8743,0.8726,0.8665,0.8513,0.8381,0.8347,0.8337,0.8153,0.8015,0.8008,0.8005,0.8002,0.7988,0.7988,0.7988,0.7988,0.7988,0.7939,0.7839,0.6481,0.5827,0.5627,0.3016,0.1862,0.1812,0.0555,0.0,0.0,0.0,0.0,0.0,0.0,0.0,0.0,0.0,0.0,0.0,0.0,0.0,0.0,0.0,0.0,0.0,0.0,0.0,0.0,0.0,0.0,0.0,0.0,0.0,0.0,0.0,0.0,0.0,0.0,0.0,0.0,0.0,0.0,0.0,0.0,0.0,0.0,0.0,0.0,0.0,0.0,0.0,0.0,0.0,0.0,0.0,0.0,0.0,0.0,0.0,0.0,0.0,0.0,0.0,0.0,0.0,0.0,0.0,0.0,0.0,0.0,0.0,0.0,0.0,0.3344,0.4058,0.479,0.7634,0.8238,0.8228,0.8621,0.8482,0.8347,0.8384,0.8255,0.8157,0.8252,0.8435,0.8587,0.8645,0.8655,0.8655,0.8655,0.8655,0.8632,0.8574,0.8567,0.8513,0.8364,0.8354,0.8231,0.8133,0.8022,0.7988,0.7988,0.7988,0.7988,0.7988,0.7988,0.7988,0.7988,0.7988,0.7988,0.7988,0.6631,0.5941,0.5775,0.3161,0.1965,0.1799,0.0536,0.0,0.0,0.0,0.0,0.0,0.0,0.0,0.0,0.0,0.0,0.0,0.0,0.0,0.0,0.0,0.0,0.0,0.0,0.0,0.0,0.0,0.0,0.0,0.0,0.0,0.0,0.0,0.0,0.0,0.0,0.0,0.0,0.0,0.0,0.0,0.0,0.0,0.0,0.0,0.0,0.0,0.0,0.0,0.0,0.0,0.0,0.0,0.0,0.0,0.0,0.0,0.0,0.0,0.0,0.0,0.0,0.0,0.0,0.0,0.0,0.0,0.0,0.0,0.0,0.0,0.2764,0.3665,0.4582,0.6991,0.7811,0.8083,0.8489,0.8414,0.835,0.8394,0.8214,0.8039,0.8241,0.835,0.8428,0.8476,0.8482,0.8482,0.8482,0.8482,0.8465,0.8421,0.8414,0.8357,0.8211,0.8197,0.8153,0.7995,0.7988,0.7988,0.7988,0.7988,0.7988,0.7988,0.7988,0.7988,0.7988,0.7988,0.7988,0.7988,0.7041,0.6527,0.6343,0.3809,0.2565,0.2329,0.0714,0.0,0.0,0.0,0.0,0.0,0.0,0.0,0.0,0.0,0.0,0.0,0.0,0.0,0.0,0.0,0.0,0.0,0.0,0.0,0.0,0.0,0.0,0.0,0.0,0.0,0.0,0.0,0.0,0.0,0.0,0.0,0.0,0.0,0.0,0.0,0.0,0.0,0.0,0.0,0.0,0.0,0.0,0.0,0.0,0.0,0.0,0.0,0.0,0.0,0.0,0.0,0.0,0.0,0.0,0.0,0.0,0.0,0.0,0.0,0.0,0.0,0.0,0.0,0.0,0.0,0.1611,0.2964,0.4318,0.5627,0.6983,0.8029,0.8231,0.8269,0.832,0.832,0.8147,0.8085,0.8241,0.832,0.8368,0.8455,0.8479,0.8479,0.8479,0.8479,0.8425,0.8337,0.832,0.8208,0.8005,0.7988,0.7988,0.7988,0.7988,0.7988,0.7988,0.7988,0.7988,0.7988,0.7988,0.7988,0.7988,0.7988,0.7988,0.7988,0.7885,0.7811,0.7711,0.5176,0.3916,0.3652,0.1142,0.0,0.0,0.0,0.0,0.0,0.0,0.0,0.0,0.0,0.0,0.0,0.0,0.0,0.0,0.0,0.0,0.0,0.0,0.0,0.0,0.0,0.0,0.0,0.0,0.0,0.0,0.0,0.0,0.0,0.0,0.0,0.0,0.0,0.0,0.0,0.0,0.0,0.0,0.0,0.0,0.0,0.0,0.0,0.0,0.0,0.0,0.0,0.0,0.0,0.0,0.0,0.0,0.0,0.0,0.0,0.0,0.0,0.0,0.0,0.0,0.0,0.0,0.0,0.0,0.0,0.1617,0.2314,0.2914,0.4268,0.5622,0.6592,0.6679,0.7397,0.8109,0.8109,0.8022,0.8005,0.8099,0.8109,0.8119,0.8163,0.817,0.817,0.817,0.817,0.8153,0.8113,0.8109,0.8089,0.7995,0.7988,0.7988,0.7988,0.7988,0.7988,0.7988,0.7988,0.7988,0.7988,0.7988,0.7988,0.7988,0.7988,0.7988,0.7988,0.7885,0.7756,0.7611,0.5899,0.4591,0.3592,0.1959,0.0776,0.0,0.0,0.0,0.0,0.0,0.0,0.0,0.0,0.0,0.0,0.0,0.0,0.0,0.0,0.0,0.0,0.0,0.0,0.0,0.0,0.0,0.0,0.0,0.0,0.0,0.0,0.0,0.0,0.0,0.0,0.0,0.0,0.0,0.0,0.0,0.0,0.0,0.0,0.0,0.0,0.0,0.0,0.0,0.0,0.0,0.0,0.0,0.0,0.0,0.0,0.0,0.0,0.0,0.0,0.0,0.0,0.0,0.0,0.0,0.0,0.0,0.0,0.0,0.0,0.0969,0.157,0.2213,0.3015,0.462,0.6129,0.6681,0.7434,0.7988,0.7988,0.7988,0.7988,0.7988,0.7988,0.7988,0.7988,0.7988,0.7988,0.7988,0.7988,0.7988,0.7988,0.7988,0.7988,0.7988,0.7988,0.7988,0.7988,0.7988,0.7988,0.7988,0.7988,0.7988,0.7988,0.7988,0.7988,0.7988,0.7931,0.7897,0.7897,0.7736,0.759,0.7459,0.621,0.5149,0.4241,0.2549,0.1121,0.0,0.0,0.0,0.0,0.0,0.0,0.0,0.0,0.0,0.0,0.0,0.0,0.0,0.0,0.0,0.0,0.0,0.0,0.0,0.0,0.0,0.0,0.0,0.0,0.0,0.0,0.0,0.0,0.0,0.0,0.0,0.0,0.0,0.0,0.0,0.0,0.0,0.0,0.0,0.0,0.0,0.0,0.0,0.0,0.0,0.0,0.0,0.0,0.0,0.0,0.0,0.0,0.0,0.0,0.0,0.0,0.0,0.0,0.0,0.0,0.0,0.0,0.0,0.0,0.0,0.087,0.1817,0.1817,0.3823,0.6179,0.7686,0.7988,0.7988,0.7988,0.7988,0.7988,0.7988,0.7988,0.7988,0.7988,0.7988,0.7988,0.7988,0.7988,0.7988,0.7988,0.7988,0.7988,0.7988,0.7988,0.7988,0.7988,0.7988,0.7985,0.7971,0.7968,0.7968,0.7968,0.7968,0.7968,0.7968,0.7882,0.7804,0.7787,0.7506,0.7415,0.737,0.6253,0.5594,0.527,0.2861,0.1165,0.0135,0.0045,0.0,0.0,0.0,0.0,0.0,0.0,0.0,0.0,0.0,0.0,0.0,0.0,0.0,0.0,0.0,0.0,0.0,0.0,0.0,0.0,0.0,0.0,0.0,0.0,0.0,0.0,0.0,0.0,0.0,0.0,0.0,0.0,0.0,0.0,0.0,0.0,0.0,0.0,0.0,0.0,0.0,0.0,0.0,0.0,0.0,0.0,0.0,0.0,0.0,0.0,0.0,0.0,0.0,0.0,0.0,0.0,0.0,0.0,0.0,0.0,0.0,0.0,0.0,0.0207,0.0413,0.0413,0.2441,0.507,0.7434,0.7988,0.7988,0.7988,0.7988,0.7988,0.7988,0.7988,0.7988,0.7988,0.7988,0.7988,0.7988,0.7988,0.7988,0.7988,0.7988,0.7988,0.7988,0.7988,0.7988,0.7988,0.7988,0.7938,0.7868,0.7862,0.7862,0.7862,0.7862,0.7862,0.7862,0.7828,0.7753,0.7645,0.7458,0.7415,0.7366,0.6972,0.6278,0.527,0.2861,0.1657,0.1344,0.0404,0.0,0.0,0.0,0.0,0.0,0.0,0.0,0.0,0.0,0.0,0.0,0.0,0.0,0.0,0.0,0.0,0.0,0.0,0.0,0.0,0.0,0.0,0.0,0.0,0.0,0.0,0.0,0.0,0.0,0.0,0.0,0.0,0.0,0.0,0.0,0.0,0.0,0.0,0.0,0.0,0.0,0.0,0.0,0.0,0.0,0.0,0.0,0.0,0.0,0.0,0.0,0.0,0.0,0.0,0.0,0.0,0.0,0.0,0.0,0.0,0.0,0.0,0.0,0.0,0.0156,0.0778,0.1989,0.3767,0.6429,0.7033,0.7235,0.7889,0.7988,0.7988,0.7988,0.7988,0.7988,0.7988,0.7988,0.7988,0.7988,0.7988,0.7988,0.7988,0.7988,0.7988,0.7988,0.7988,0.7988,0.7988,0.7921,0.7896,0.7814,0.7746,0.7709,0.7709,0.7709,0.7709,0.7709,0.7638,0.7563,0.7489,0.7333,0.7261,0.7258,0.7132,0.647,0.5314,0.3438,0.2325,0.1701,0.0494,0.0,0.0,0.0,0.0,0.0,0.0,0.0,0.0,0.0,0.0,0.0,0.0,0.0,0.0,0.0,0.0,0.0,0.0,0.0,0.0,0.0,0.0,0.0,0.0,0.0,0.0,0.0,0.0,0.0,0.0,0.0,0.0,0.0,0.0,0.0,0.0,0.0,0.0,0.0,0.0,0.0,0.0,0.0,0.0,0.0,0.0,0.0,0.0,0.0,0.0,0.0,0.0,0.0,0.0,0.0,0.0,0.0,0.0,0.0,0.0,0.0,0.0,0.0,0.0,0.0311,0.1656,0.1989,0.2666,0.5072,0.5677,0.6027,0.7385,0.7839,0.7988,0.7988,0.7988,0.7988,0.7988,0.7988,0.7988,0.7988,0.7988,0.7988,0.7988,0.7988,0.7988,0.7988,0.7988,0.7978,0.7951,0.7882,0.7787,0.7736,0.7624,0.756,0.756,0.756,0.756,0.756,0.7434,0.7402,0.7329,0.72,0.7095,0.7095,0.7095,0.6605,0.5625,0.4419,0.3215,0.2013,0.0807,0.018,0.0,0.0,0.0,0.0,0.0,0.0,0.0,0.0,0.0,0.0,0.0,0.0,0.0,0.0,0.0,0.0,0.0,0.0,0.0,0.0,0.0,0.0,0.0,0.0,0.0,0.0,0.0,0.0,0.0,0.0,0.0,0.0,0.0,0.0,0.0,0.0,0.0,0.0,0.0,0.0,0.0,0.0,0.0,0.0,0.0,0.0,0.0,0.0,0.0,0.0,0.0,0.0,0.0,0.0,0.0,0.0,0.0,0.0,0.0,0.0,0.0,0.0,0.0,0.0311,0.1656,0.1989,0.2413,0.3917,0.4268,0.467,0.5977,0.7185,0.7988,0.7988,0.7988,0.7988,0.7988,0.7988,0.7988,0.7988,0.7988,0.7988,0.7988,0.7988,0.7988,0.7988,0.7988,0.7934,0.7851,0.7824,0.7699,0.7444,0.7456,0.7446,0.7446,0.7446,0.7446,0.7446,0.7429,0.7305,0.7125,0.7105,0.7095,0.7095,0.7095,0.7007,0.6827,0.5669,0.4463,0.326,0.2057,0.0942,0.0,0.0,0.0,0.0,0.0,0.0,0.0,0.0,0.0,0.0,0.0,0.0,0.0,0.0,0.0,0.0,0.0,0.0,0.0,0.0,0.0,0.0,0.0,0.0,0.0,0.0,0.0,0.0,0.0,0.0,0.0,0.0,0.0,0.0,0.0,0.0,0.0,0.0,0.0,0.0,0.0,0.0,0.0,0.0,0.0,0.0,0.0,0.0,0.0,0.0,0.0,0.0,0.0,0.0,0.0,0.0,0.0,0.0,0.0,0.0,0.0,0.0,0.0,0.0154,0.0724,0.0869,0.1209,0.2564,0.2864,0.3265,0.462,0.537,0.6224,0.7736,0.7988,0.7988,0.7988,0.7988,0.7988,0.7988,0.7988,0.7988,0.7988,0.7988,0.7988,0.7988,0.7988,0.7928,0.7824,0.7736,0.7597,0.7429,0.7288,0.7241,0.7241,0.7241,0.7241,0.7241,0.7241,0.7207,0.7095,0.7095,0.7095,0.7095,0.7095,0.7095,0.7051,0.5894,0.4732,0.3525,0.228,0.1076,0.0,0.0,0.0,0.0,0.0,0.0,0.0,0.0,0.0,0.0,0.0,0.0,0.0,0.0,0.0,0.0,0.0,0.0,0.0,0.0,0.0,0.0,0.0,0.0,0.0,0.0,0.0,0.0,0.0,0.0,0.0,0.0,0.0,0.0,0.0,0.0,0.0,0.0,0.0,0.0,0.0,0.0,0.0,0.0,0.0,0.0,0.0,0.0,0.0,0.0,0.0,0.0,0.0,0.0,0.0,0.0,0.0,0.0,0.0,0.0,0.0,0.0,0.0,0.0,0.0,0.0,0.0252,0.126,0.1511,0.1862,0.3215,0.3501,0.4193,0.657,0.698,0.708,0.7434,0.7487,0.7587,0.7939,0.7988,0.7988,0.7988,0.7988,0.7988,0.7988,0.7988,0.7911,0.7773,0.7658,0.7516,0.7322,0.7204,0.7095,0.7095,0.7095,0.7095,0.7095,0.7095,0.7095,0.7095,0.7095,0.7095,0.7095,0.7095,0.7095,0.7051,0.6204,0.4999,0.3525,0.2637,0.1344,0.0,0.0,0.0,0.0,0.0,0.0,0.0,0.0,0.0,0.0,0.0,0.0,0.0,0.0,0.0,0.0,0.0,0.0,0.0,0.0,0.0,0.0,0.0,0.0,0.0,0.0,0.0,0.0,0.0,0.0,0.0,0.0,0.0,0.0,0.0,0.0,0.0,0.0,0.0,0.0,0.0,0.0,0.0,0.0,0.0,0.0,0.0,0.0,0.0,0.0,0.0,0.0,0.0,0.0,0.0,0.0,0.0,0.0,0.0,0.0,0.0,0.0,0.0,0.0,0.0,0.0,0.0,0.0101,0.0101,0.0504,0.1812,0.2083,0.2559,0.3954,0.4216,0.4618,0.5877,0.6079,0.6531,0.7839,0.7988,0.7988,0.7988,0.7988,0.7988,0.7988,0.7988,0.787,0.7634,0.7604,0.7468,0.7125,0.7098,0.7095,0.7095,0.7095,0.7095,0.7095,0.7095,0.7095,0.7095,0.7095,0.7095,0.7095,0.7095,0.7095,0.7095,0.7051,0.5708,0.3614,0.3525,0.2102,0.0,0.0,0.0,0.0,0.0,0.0,0.0,0.0,0.0,0.0,0.0,0.0,0.0,0.0,0.0,0.0,0.0,0.0,0.0,0.0,0.0,0.0,0.0,0.0,0.0,0.0,0.0,0.0,0.0,0.0,0.0,0.0,0.0,0.0,0.0,0.0,0.0,0.0,0.0,0.0,0.0,0.0,0.0,0.0,0.0,0.0,0.0,0.0,0.0,0.0,0.0,0.0,0.0,0.0,0.0,0.0,0.0,0.0,0.0,0.0,0.0,0.0,0.0,0.0,0.0,0.0,0.0,0.0,0.0,0.0151,0.0605,0.0696,0.0887,0.1355,0.2839,0.4162,0.466,0.5425,0.6179,0.6634,0.7434,0.7988,0.7988,0.7988,0.7988,0.7988,0.7988,0.7867,0.7621,0.76,0.7465,0.7112,0.7095,0.7095,0.7095,0.7095,0.7095,0.7095,0.7095,0.7095,0.7095,0.7095,0.7095,0.7095,0.7095,0.7095,0.7095,0.7095,0.6201,0.4688,0.3927,0.2637,0.1076,0.0314,0.0,0.0,0.0,0.0,0.0,0.0,0.0,0.0,0.0,0.0,0.0,0.0,0.0,0.0,0.0,0.0,0.0,0.0,0.0,0.0,0.0,0.0,0.0,0.0,0.0,0.0,0.0,0.0,0.0,0.0,0.0,0.0,0.0,0.0,0.0,0.0,0.0,0.0,0.0,0.0,0.0,0.0,0.0,0.0,0.0,0.0,0.0,0.0,0.0,0.0,0.0,0.0,0.0,0.0,0.0,0.0,0.0,0.0,0.0,0.0,0.0,0.0,0.0,0.0,0.0,0.0,0.0,0.0,0.0,0.0,0.0,0.0,0.1439,0.2806,0.3256,0.4069,0.4822,0.5272,0.6478,0.7335,0.7335,0.7739,0.7988,0.7988,0.7988,0.7867,0.7621,0.76,0.7465,0.7112,0.7095,0.7095,0.7095,0.7095,0.7095,0.7095,0.7095,0.7095,0.7095,0.7095,0.7095,0.7095,0.7095,0.7095,0.7095,0.7095,0.6473,0.5314,0.4105,0.2903,0.17,0.0449,0.0,0.0,0.0,0.0,0.0,0.0,0.0,0.0,0.0,0.0,0.0,0.0,0.0,0.0,0.0,0.0,0.0,0.0,0.0,0.0,0.0,0.0,0.0,0.0,0.0,0.0,0.0,0.0,0.0,0.0,0.0,0.0,0.0,0.0,0.0,0.0,0.0,0.0,0.0,0.0,0.0,0.0,0.0,0.0,0.0,0.0,0.0,0.0,0.0,0.0,0.0,0.0,0.0,0.0,0.0,0.0,0.0,0.0,0.0,0.0,0.0,0.0,0.0,0.0,0.0,0.0,0.0,0.0,0.0,0.0,0.0,0.0,0.0,0.0444,0.1706,0.1962,0.2464,0.3765,0.5072,0.5979,0.5979,0.7135,0.7939,0.7988,0.7988,0.7867,0.7621,0.76,0.7465,0.7112,0.7095,0.7095,0.7095,0.7095,0.7095,0.7095,0.7095,0.7095,0.7095,0.7095,0.7095,0.7095,0.7095,0.7095,0.7095,0.7095,0.647,0.5359,0.4105,0.2903,0.1746,0.0494,0.0,0.0,0.0,0.0,0.0,0.0,0.0,0.0,0.0,0.0,0.0,0.0,0.0,0.0,0.0,0.0,0.0,0.0,0.0,0.0,0.0,0.0,0.0,0.0,0.0,0.0,0.0,0.0,0.0,0.0,0.0,0.0,0.0,0.0,0.0,0.0,0.0,0.0,0.0,0.0,0.0,0.0,0.0,0.0,0.0,0.0,0.0,0.0,0.0,0.0,0.0,0.0,0.0,0.0,0.0,0.0,0.0,0.0,0.0,0.0,0.0,0.0,0.0,0.0,0.0,0.0,0.0,0.0,0.0,0.0,0.0,0.0,0.0,0.0099,0.0503,0.136,0.2113,0.2514,0.3717,0.492,0.5879,0.6331,0.6933,0.7889,0.7988,0.7867,0.7621,0.76,0.7465,0.7112,0.7095,0.7095,0.7095,0.7095,0.7095,0.7095,0.7095,0.7095,0.7095,0.7095,0.7095,0.7095,0.7095,0.7095,0.7095,0.7095,0.6918,0.647,0.4417,0.3392,0.2903,0.0807,0.0,0.0,0.0,0.0,0.0,0.0,0.0,0.0,0.0,0.0,0.0,0.0,0.0,0.0,0.0,0.0,0.0,0.0,0.0,0.0,0.0,0.0,0.0,0.0,0.0,0.0,0.0,0.0,0.0,0.0,0.0,0.0,0.0,0.0,0.0,0.0,0.0,0.0,0.0,0.0,0.0,0.0,0.0,0.0,0.0,0.0,0.0,0.0,0.0,0.0,0.0,0.0,0.0,0.0,0.0,0.0,0.0,0.0,0.0,0.0,0.0,0.0,0.0,0.0,0.0,0.0,0.0,0.0,0.0,0.0,0.0,0.0,0.0,0.0,0.0,0.0656,0.1159,0.1159,0.2314,0.3466,0.4221,0.5325,0.6331,0.7083,0.7686,0.7891,0.7706,0.7634,0.7465,0.7112,0.7095,0.7095,0.7095,0.7095,0.7095,0.7095,0.7095,0.7095,0.7095,0.7095,0.7095,0.7095,0.7095,0.7095,0.7095,0.7095,0.7095,0.6959,0.5132,0.4061,0.3349,0.0942,0.0,0.0,0.0,0.0,0.0,0.0,0.0,0.0,0.0,0.0,0.0,0.0,0.0,0.0,0.0,0.0,0.0,0.0,0.0,0.0,0.0,0.0,0.0,0.0,0.0,0.0,0.0,0.0,0.0,0.0,0.0,0.0,0.0,0.0,0.0,0.0,0.0,0.0,0.0,0.0,0.0,0.0,0.0,0.0,0.0,0.0,0.0,0.0,0.0,0.0,0.0,0.0,0.0,0.0,0.0,0.0,0.0,0.0,0.0,0.0,0.0,0.0,0.0,0.0,0.0,0.0,0.0,0.0,0.0,0.0,0.0,0.0,0.0,0.0,0.0,0.0,0.0,0.0,0.1008,0.1812,0.1963,0.4128,0.5689,0.5979,0.7098,0.7793,0.7824,0.7665,0.7448,0.7112,0.7095,0.7095,0.7095,0.7095,0.7095,0.7095,0.7095,0.7095,0.7095,0.7095,0.7095,0.7095,0.7095,0.7095,0.7095,0.7095,0.7095,0.7007,0.5891,0.4688,0.3393,0.1076,0.0135,0.0,0.0,0.0,0.0,0.0,0.0,0.0,0.0,0.0,0.0,0.0,0.0,0.0,0.0,0.0,0.0,0.0,0.0,0.0,0.0,0.0,0.0,0.0,0.0,0.0,0.0,0.0,0.0,0.0,0.0,0.0,0.0,0.0,0.0,0.0,0.0,0.0,0.0,0.0,0.0,0.0,0.0,0.0,0.0,0.0,0.0,0.0,0.0,0.0,0.0,0.0,0.0,0.0,0.0,0.0,0.0,0.0,0.0,0.0,0.0,0.0,0.0,0.0,0.0,0.0,0.0,0.0,0.0,0.0,0.0,0.0,0.0,0.0,0.0,0.0,0.0,0.0,0.0202,0.0807,0.1862,0.2446,0.3628,0.5787,0.6215,0.6788,0.7734,0.7563,0.7336,0.7105,0.7095,0.7095,0.7095,0.7095,0.7095,0.7095,0.7095,0.7095,0.7095,0.7095,0.7095,0.7095,0.7095,0.7095,0.7095,0.7095,0.7095,0.7007,0.5891,0.4688,0.3436,0.2013,0.0852,0.0,0.0,0.0,0.0,0.0,0.0,0.0,0.0,0.0,0.0,0.0,0.0,0.0,0.0,0.0,0.0,0.0,0.0,0.0,0.0,0.0,0.0,0.0,0.0,0.0,0.0,0.0,0.0,0.0,0.0,0.0,0.0,0.0,0.0,0.0,0.0,0.0,0.0,0.0,0.0,0.0,0.0,0.0,0.0,0.0,0.0,0.0,0.0,0.0,0.0,0.0,0.0,0.0,0.0,0.0,0.0,0.0,0.0,0.0,0.0,0.0,0.0,0.0,0.0,0.0,0.0,0.0,0.0,0.0,0.0,0.0,0.0,0.0,0.0,0.0,0.0,0.0,0.0,0.0252,0.0907,0.1574,0.254,0.3874,0.5218,0.6495,0.7731,0.7607,0.7417,0.7261,0.7139,0.7095,0.7095,0.7095,0.7095,0.7095,0.7095,0.7095,0.7095,0.7095,0.7095,0.7095,0.7095,0.7095,0.7095,0.7095,0.7095,0.7051,0.6473,0.522,0.3481,0.2281,0.1076,0.0,0.0,0.0,0.0,0.0,0.0,0.0,0.0,0.0,0.0,0.0,0.0,0.0,0.0,0.0,0.0,0.0,0.0,0.0,0.0,0.0,0.0,0.0,0.0,0.0,0.0,0.0,0.0,0.0,0.0,0.0,0.0,0.0,0.0,0.0,0.0,0.0,0.0,0.0,0.0,0.0,0.0,0.0,0.0,0.0,0.0,0.0,0.0,0.0,0.0,0.0,0.0,0.0,0.0,0.0,0.0,0.0,0.0,0.0,0.0,0.0,0.0,0.0,0.0,0.0,0.0,0.0,0.0,0.0,0.0,0.0,0.0,0.0,0.0,0.0,0.0,0.0,0.0,0.0,0.0,0.0959,0.1719,0.1964,0.4422,0.6479,0.7724,0.7706,0.756,0.7426,0.7251,0.7125,0.7098,0.7095,0.7095,0.7095,0.7095,0.7095,0.7095,0.7095,0.7095,0.7095,0.7095,0.7095,0.7095,0.7095,0.7095,0.7095,0.7095,0.5708,0.3481,0.2547,0.1254,0.0,0.0,0.0,0.0,0.0,0.0,0.0,0.0,0.0,0.0,0.0,0.0,0.0,0.0,0.0,0.0,0.0,0.0,0.0,0.0,0.0,0.0,0.0,0.0,0.0,0.0,0.0,0.0,0.0,0.0,0.0,0.0,0.0,0.0,0.0,0.0,0.0,0.0,0.0,0.0,0.0,0.0,0.0,0.0,0.0,0.0,0.0,0.0,0.0,0.0,0.0,0.0,0.0,0.0,0.0,0.0,0.0,0.0,0.0,0.0,0.0,0.0,0.0,0.0,0.0,0.0,0.0,0.0,0.0,0.0,0.0,0.0,0.0,0.0,0.0,0.0,0.0,0.0,0.0,0.0,0.0152,0.0719,0.1865,0.4422,0.6479,0.7724,0.7797,0.7665,0.7433,0.7356,0.7282,0.7098,0.7095,0.7095,0.7095,0.7095,0.7095,0.7095,0.7095,0.7095,0.7095,0.7095,0.7095,0.7095,0.7095,0.7095,0.7095,0.7095,0.5708,0.357,0.3436,0.2013,0.0,0.0,0.0,0.0,0.0,0.0,0.0,0.0,0.0,0.0,0.0,0.0,0.0,0.0,0.0,0.0,0.0,0.0,0.0,0.0,0.0,0.0,0.0,0.0,0.0,0.0,0.0,0.0,0.0,0.0,0.0,0.0,0.0,0.0,0.0,0.0,0.0,0.0,0.0,0.0,0.0,0.0,0.0,0.0,0.0,0.0,0.0,0.0,0.0,0.0,0.0,0.0,0.0,0.0,0.0,0.0,0.0,0.0,0.0,0.0,0.0,0.0,0.0,0.0,0.0,0.0,0.0,0.0,0.0,0.0,0.0,0.0,0.0,0.0,0.0,0.0,0.0,0.0,0.0,0.0,0.0,0.0851,0.2971,0.4193,0.5703,0.775,0.7862,0.7723,0.7516,0.7463,0.7299,0.7102,0.7095,0.7095,0.7095,0.7095,0.7095,0.7095,0.7095,0.7095,0.7095,0.7095,0.7095,0.7095,0.7095,0.7095,0.7095,0.7095,0.5708,0.3614,0.3614,0.2147,0.0,0.0,0.0,0.0,0.0,0.0,0.0,0.0,0.0,0.0,0.0,0.0,0.0,0.0,0.0,0.0,0.0,0.0,0.0,0.0,0.0,0.0,0.0,0.0,0.0,0.0,0.0,0.0,0.0,0.0,0.0,0.0,0.0,0.0,0.0,0.0,0.0,0.0,0.0,0.0,0.0,0.0,0.0,0.0,0.0,0.0,0.0,0.0,0.0,0.0,0.0,0.0,0.0,0.0,0.0,0.0,0.0,0.0,0.0545,0.0292,0.0,0.0,0.0,0.0,0.0,0.0,0.0,0.0,0.0,0.0,0.0,0.0,0.0,0.0,0.0,0.0,0.0,0.0,0.0,0.0,0.0,0.0933,0.3251,0.3788,0.4968,0.7285,0.7687,0.7794,0.7611,0.7495,0.7343,0.7102,0.7095,0.7095,0.7095,0.7095,0.7095,0.7095,0.7095,0.7095,0.7095,0.7095,0.7095,0.7095,0.7095,0.7095,0.7095,0.7095,0.5708,0.3614,0.3614,0.2147,0.0,0.0,0.0,0.0,0.0,0.0,0.0,0.0,0.0,0.0,0.0,0.0,0.0,0.0,0.0,0.0,0.0,0.0,0.0,0.0,0.0,0.0,0.0,0.0,0.0,0.0,0.0,0.0,0.0,0.0,0.0,0.0,0.0,0.0,0.0,0.0,0.0,0.0,0.0,0.0,0.0,0.0,0.0,0.0,0.0,0.0,0.0,0.0,0.0,0.0,0.0,0.0,0.0,0.0,0.0,0.0,0.0,0.0,0.1951,0.0993,0.0,0.0,0.0,0.0,0.0,0.0,0.0,0.0,0.0,0.0,0.0,0.0,0.0,0.0,0.0,0.0,0.0,0.0,0.0,0.0,0.0,0.0543,0.1908,0.3214,0.4568,0.5979,0.7282,0.7857,0.7614,0.7594,0.7455,0.7105,0.7095,0.7095,0.7095,0.7095,0.7095,0.7095,0.7095,0.7095,0.7095,0.7095,0.7095,0.7095,0.7095,0.7095,0.7095,0.7095,0.5708,0.3614,0.3614,0.2147,0.0,0.0,0.0,0.0,0.0,0.0,0.0,0.0,0.0,0.0,0.0,0.0,0.0,0.0,0.0,0.0,0.0,0.0,0.0,0.0,0.0,0.0,0.0,0.0,0.0,0.0,0.0,0.0,0.0,0.0,0.0,0.0,0.0,0.0,0.0,0.0,0.0,0.0,0.0,0.0,0.0,0.0,0.0,0.0,0.0,0.0,0.0,0.0,0.0,0.0,0.0,0.0,0.0,0.0,0.0,0.0,0.0,0.0,0.3044,0.2151,0.1182,0.1198,0.0614,0.0,0.0,0.0,0.0,0.0,0.0,0.0,0.0,0.0,0.0,0.0,0.0,0.0,0.0,0.0,0.0,0.0,0.0,0.0535,0.1859,0.3113,0.4438,0.5868,0.715,0.7804,0.7611,0.76,0.7458,0.7105,0.7095,0.7095,0.7095,0.7095,0.7095,0.7095,0.7095,0.7095,0.7095,0.7095,0.7095,0.7095,0.7095,0.7095,0.7095,0.7095,0.5708,0.3614,0.3614,0.2147,0.0,0.0,0.0,0.0,0.0,0.0,0.0,0.0,0.0,0.0,0.0,0.0,0.0,0.0,0.0,0.0,0.0,0.0,0.0,0.0,0.0,0.0,0.0,0.0,0.0,0.0,0.0,0.0,0.0,0.0,0.0,0.0,0.0,0.0,0.0,0.0,0.0,0.0,0.0,0.0,0.0,0.0,0.0,0.0,0.0,0.0,0.0,0.0,0.0,0.0,0.0,0.0,0.0,0.0,0.0,0.0,0.0,0.0,0.4307,0.3415,0.2451,0.2438,0.1846,0.1182,0.0737,0.0641,0.0502,0.0093,0.0,0.0,0.0,0.0,0.0,0.0,0.0,0.0,0.0,0.0,0.0,0.0,0.0,0.0334,0.1216,0.2434,0.3726,0.5124,0.6418,0.7289,0.7529,0.757,0.7458,0.7105,0.7095,0.7095,0.7095,0.7095,0.7095,0.7095,0.7095,0.7095,0.7095,0.7095,0.7095,0.7095,0.7095,0.7095,0.7095,0.7095,0.5708,0.3614,0.3614,0.2147,0.0,0.0,0.0,0.0,0.0,0.0,0.0,0.0,0.0,0.0,0.0,0.0,0.0,0.0,0.0,0.0,0.0,0.0,0.0,0.0,0.0,0.0,0.0,0.0,0.0,0.0,0.0,0.0,0.0,0.0,0.0,0.0,0.0,0.0,0.0,0.0,0.0,0.0,0.0,0.0,0.0,0.0,0.0,0.0,0.0,0.0,0.0,0.0,0.0,0.0,0.0,0.0,0.0,0.0,0.0,0.0,0.0,0.0]}]]